<?xml version="1.0" encoding="UTF-8" standalone="no" ?>
<gpx xmlns="http://www.topografix.com/GPX/1/1" xmlns:xsi="http://www.w3.org/2001/XMLSchema-instance" xsi:schemaLocation="http://www.topografix.com/GPX/1/1 http://www.topografix.com/GPX/1/1/gpx.xsd" version="1.1" creator="VisuGPX - https://www.visugpx.com">
  <metadata>
    <name>Le Grand Caunet</name>
    <desc><![CDATA[Ballade facile dans la Forêt de Font Blanche]]></desc>
  </metadata>
  <trk>
    <name><![CDATA[Le Grand Caunet_1]]></name>
    <trkseg>
      <trkpt lat="43.23488" lon="5.6696">
        <ele>402</ele>
        <time>2020-09-16T08:26:58Z</time>
      </trkpt>
      <trkpt lat="43.2349" lon="5.66951">
        <ele>403</ele>
        <time>2020-09-16T08:27:03Z</time>
      </trkpt>
      <trkpt lat="43.23492" lon="5.66945">
        <ele>403</ele>
        <time>2020-09-16T08:27:09Z</time>
      </trkpt>
      <trkpt lat="43.23492" lon="5.66938">
        <ele>403</ele>
        <time>2020-09-16T08:27:13Z</time>
      </trkpt>
      <trkpt lat="43.23491" lon="5.6693">
        <ele>403</ele>
        <time>2020-09-16T08:27:19Z</time>
      </trkpt>
      <trkpt lat="43.23492" lon="5.66922">
        <ele>404</ele>
        <time>2020-09-16T08:27:25Z</time>
      </trkpt>
      <trkpt lat="43.23493" lon="5.66916">
        <ele>404</ele>
        <time>2020-09-16T08:27:29Z</time>
      </trkpt>
      <trkpt lat="43.23493" lon="5.66907">
        <ele>403</ele>
        <time>2020-09-16T08:27:35Z</time>
      </trkpt>
      <trkpt lat="43.23493" lon="5.669">
        <ele>403</ele>
        <time>2020-09-16T08:27:39Z</time>
      </trkpt>
      <trkpt lat="43.23495" lon="5.66892">
        <ele>402</ele>
        <time>2020-09-16T08:27:45Z</time>
      </trkpt>
      <trkpt lat="43.23495" lon="5.66883">
        <ele>402</ele>
        <time>2020-09-16T08:27:51Z</time>
      </trkpt>
      <trkpt lat="43.23495" lon="5.66874">
        <ele>402</ele>
        <time>2020-09-16T08:27:57Z</time>
      </trkpt>
      <trkpt lat="43.23495" lon="5.66868">
        <ele>401</ele>
        <time>2020-09-16T08:28:01Z</time>
      </trkpt>
      <trkpt lat="43.23497" lon="5.66862">
        <ele>401</ele>
        <time>2020-09-16T08:28:05Z</time>
      </trkpt>
      <trkpt lat="43.23499" lon="5.66854">
        <ele>401</ele>
        <time>2020-09-16T08:28:11Z</time>
      </trkpt>
      <trkpt lat="43.23501" lon="5.66848">
        <ele>402</ele>
        <time>2020-09-16T08:28:17Z</time>
      </trkpt>
      <trkpt lat="43.23505" lon="5.66841">
        <ele>402</ele>
        <time>2020-09-16T08:28:23Z</time>
      </trkpt>
      <trkpt lat="43.23506" lon="5.66833">
        <ele>402</ele>
        <time>2020-09-16T08:28:29Z</time>
      </trkpt>
      <trkpt lat="43.2351" lon="5.66826">
        <ele>401</ele>
        <time>2020-09-16T08:28:35Z</time>
      </trkpt>
      <trkpt lat="43.23511" lon="5.66819">
        <ele>401</ele>
        <time>2020-09-16T08:28:39Z</time>
      </trkpt>
      <trkpt lat="43.23513" lon="5.66813">
        <ele>401</ele>
        <time>2020-09-16T08:28:43Z</time>
      </trkpt>
      <trkpt lat="43.23514" lon="5.66806">
        <ele>401</ele>
        <time>2020-09-16T08:28:47Z</time>
      </trkpt>
      <trkpt lat="43.23517" lon="5.66799">
        <ele>401</ele>
        <time>2020-09-16T08:28:55Z</time>
      </trkpt>
      <trkpt lat="43.23518" lon="5.66793">
        <ele>401</ele>
        <time>2020-09-16T08:28:59Z</time>
      </trkpt>
      <trkpt lat="43.23519" lon="5.66786">
        <ele>401</ele>
        <time>2020-09-16T08:29:03Z</time>
      </trkpt>
      <trkpt lat="43.2352" lon="5.66779">
        <ele>401</ele>
        <time>2020-09-16T08:29:07Z</time>
      </trkpt>
      <trkpt lat="43.23522" lon="5.66773">
        <ele>401</ele>
        <time>2020-09-16T08:29:11Z</time>
      </trkpt>
      <trkpt lat="43.23523" lon="5.66767">
        <ele>401</ele>
        <time>2020-09-16T08:29:15Z</time>
      </trkpt>
      <trkpt lat="43.23526" lon="5.66759">
        <ele>401</ele>
        <time>2020-09-16T08:29:21Z</time>
      </trkpt>
      <trkpt lat="43.23528" lon="5.66753">
        <ele>401</ele>
        <time>2020-09-16T08:29:25Z</time>
      </trkpt>
      <trkpt lat="43.23528" lon="5.66745">
        <ele>400</ele>
        <time>2020-09-16T08:29:29Z</time>
      </trkpt>
      <trkpt lat="43.2353" lon="5.66737">
        <ele>400</ele>
        <time>2020-09-16T08:29:35Z</time>
      </trkpt>
      <trkpt lat="43.23533" lon="5.6673">
        <ele>400</ele>
        <time>2020-09-16T08:29:41Z</time>
      </trkpt>
      <trkpt lat="43.23534" lon="5.66724">
        <ele>400</ele>
        <time>2020-09-16T08:29:45Z</time>
      </trkpt>
      <trkpt lat="43.23534" lon="5.66715">
        <ele>400</ele>
        <time>2020-09-16T08:29:51Z</time>
      </trkpt>
      <trkpt lat="43.23534" lon="5.66708">
        <ele>399</ele>
        <time>2020-09-16T08:29:57Z</time>
      </trkpt>
      <trkpt lat="43.23535" lon="5.667">
        <ele>399</ele>
        <time>2020-09-16T08:30:03Z</time>
      </trkpt>
      <trkpt lat="43.23535" lon="5.66692">
        <ele>399</ele>
        <time>2020-09-16T08:30:09Z</time>
      </trkpt>
      <trkpt lat="43.23534" lon="5.66685">
        <ele>399</ele>
        <time>2020-09-16T08:30:13Z</time>
      </trkpt>
      <trkpt lat="43.23534" lon="5.66679">
        <ele>399</ele>
        <time>2020-09-16T08:30:17Z</time>
      </trkpt>
      <trkpt lat="43.23534" lon="5.66671">
        <ele>399</ele>
        <time>2020-09-16T08:30:23Z</time>
      </trkpt>
      <trkpt lat="43.23534" lon="5.66663">
        <ele>398</ele>
        <time>2020-09-16T08:30:29Z</time>
      </trkpt>
      <trkpt lat="43.23535" lon="5.66657">
        <ele>398</ele>
        <time>2020-09-16T08:30:33Z</time>
      </trkpt>
      <trkpt lat="43.23535" lon="5.66649">
        <ele>398</ele>
        <time>2020-09-16T08:30:37Z</time>
      </trkpt>
      <trkpt lat="43.23536" lon="5.66642">
        <ele>398</ele>
        <time>2020-09-16T08:30:41Z</time>
      </trkpt>
      <trkpt lat="43.23536" lon="5.66633">
        <ele>398</ele>
        <time>2020-09-16T08:30:47Z</time>
      </trkpt>
      <trkpt lat="43.23537" lon="5.66625">
        <ele>398</ele>
        <time>2020-09-16T08:30:57Z</time>
      </trkpt>
      <trkpt lat="43.23539" lon="5.66618">
        <ele>398</ele>
        <time>2020-09-16T08:31:01Z</time>
      </trkpt>
      <trkpt lat="43.23541" lon="5.66612">
        <ele>398</ele>
        <time>2020-09-16T08:31:05Z</time>
      </trkpt>
      <trkpt lat="43.23541" lon="5.66605">
        <ele>398</ele>
        <time>2020-09-16T08:31:09Z</time>
      </trkpt>
      <trkpt lat="43.23542" lon="5.66597">
        <ele>398</ele>
        <time>2020-09-16T08:31:13Z</time>
      </trkpt>
      <trkpt lat="43.23543" lon="5.6659">
        <ele>398</ele>
        <time>2020-09-16T08:31:17Z</time>
      </trkpt>
      <trkpt lat="43.23545" lon="5.66582">
        <ele>397</ele>
        <time>2020-09-16T08:31:23Z</time>
      </trkpt>
      <trkpt lat="43.23547" lon="5.66575">
        <ele>397</ele>
        <time>2020-09-16T08:31:27Z</time>
      </trkpt>
      <trkpt lat="43.23547" lon="5.66568">
        <ele>397</ele>
        <time>2020-09-16T08:31:31Z</time>
      </trkpt>
      <trkpt lat="43.23548" lon="5.66561">
        <ele>397</ele>
        <time>2020-09-16T08:31:35Z</time>
      </trkpt>
      <trkpt lat="43.23549" lon="5.66553">
        <ele>397</ele>
        <time>2020-09-16T08:31:41Z</time>
      </trkpt>
      <trkpt lat="43.2355" lon="5.66545">
        <ele>397</ele>
        <time>2020-09-16T08:31:47Z</time>
      </trkpt>
      <trkpt lat="43.2355" lon="5.66537">
        <ele>397</ele>
        <time>2020-09-16T08:31:53Z</time>
      </trkpt>
      <trkpt lat="43.2355" lon="5.66529">
        <ele>397</ele>
        <time>2020-09-16T08:31:59Z</time>
      </trkpt>
      <trkpt lat="43.2355" lon="5.66522">
        <ele>397</ele>
        <time>2020-09-16T08:32:03Z</time>
      </trkpt>
      <trkpt lat="43.23551" lon="5.66516">
        <ele>397</ele>
        <time>2020-09-16T08:32:07Z</time>
      </trkpt>
      <trkpt lat="43.23554" lon="5.66509">
        <ele>397</ele>
        <time>2020-09-16T08:32:13Z</time>
      </trkpt>
      <trkpt lat="43.23555" lon="5.665">
        <ele>397</ele>
        <time>2020-09-16T08:32:19Z</time>
      </trkpt>
      <trkpt lat="43.23554" lon="5.66494">
        <ele>397</ele>
        <time>2020-09-16T08:32:23Z</time>
      </trkpt>
      <trkpt lat="43.23553" lon="5.66487">
        <ele>397</ele>
        <time>2020-09-16T08:32:27Z</time>
      </trkpt>
      <trkpt lat="43.23553" lon="5.66481">
        <ele>397</ele>
        <time>2020-09-16T08:32:31Z</time>
      </trkpt>
      <trkpt lat="43.23553" lon="5.66472">
        <ele>397</ele>
        <time>2020-09-16T08:32:37Z</time>
      </trkpt>
      <trkpt lat="43.23554" lon="5.66464">
        <ele>397</ele>
        <time>2020-09-16T08:32:43Z</time>
      </trkpt>
      <trkpt lat="43.23554" lon="5.66457">
        <ele>397</ele>
        <time>2020-09-16T08:32:47Z</time>
      </trkpt>
      <trkpt lat="43.23553" lon="5.66451">
        <ele>397</ele>
        <time>2020-09-16T08:32:51Z</time>
      </trkpt>
      <trkpt lat="43.23552" lon="5.66445">
        <ele>397</ele>
        <time>2020-09-16T08:32:55Z</time>
      </trkpt>
      <trkpt lat="43.23552" lon="5.66438">
        <ele>397</ele>
        <time>2020-09-16T08:32:59Z</time>
      </trkpt>
      <trkpt lat="43.23551" lon="5.66432">
        <ele>397</ele>
        <time>2020-09-16T08:33:03Z</time>
      </trkpt>
      <trkpt lat="43.23552" lon="5.66425">
        <ele>397</ele>
        <time>2020-09-16T08:33:07Z</time>
      </trkpt>
      <trkpt lat="43.23552" lon="5.66418">
        <ele>397</ele>
        <time>2020-09-16T08:33:11Z</time>
      </trkpt>
      <trkpt lat="43.23555" lon="5.6641">
        <ele>398</ele>
        <time>2020-09-16T08:33:17Z</time>
      </trkpt>
      <trkpt lat="43.23555" lon="5.66404">
        <ele>398</ele>
        <time>2020-09-16T08:33:21Z</time>
      </trkpt>
      <trkpt lat="43.23555" lon="5.66397">
        <ele>398</ele>
        <time>2020-09-16T08:33:25Z</time>
      </trkpt>
      <trkpt lat="43.23556" lon="5.66388">
        <ele>398</ele>
        <time>2020-09-16T08:33:31Z</time>
      </trkpt>
      <trkpt lat="43.23559" lon="5.66381">
        <ele>398</ele>
        <time>2020-09-16T08:33:37Z</time>
      </trkpt>
      <trkpt lat="43.23561" lon="5.66375">
        <ele>398</ele>
        <time>2020-09-16T08:33:43Z</time>
      </trkpt>
      <trkpt lat="43.23561" lon="5.66368">
        <ele>398</ele>
        <time>2020-09-16T08:33:55Z</time>
      </trkpt>
      <trkpt lat="43.23561" lon="5.66361">
        <ele>399</ele>
        <time>2020-09-16T08:34:01Z</time>
      </trkpt>
      <trkpt lat="43.23562" lon="5.66355">
        <ele>399</ele>
        <time>2020-09-16T08:34:07Z</time>
      </trkpt>
      <trkpt lat="43.23562" lon="5.66345">
        <ele>399</ele>
        <time>2020-09-16T08:34:13Z</time>
      </trkpt>
      <trkpt lat="43.23562" lon="5.66337">
        <ele>400</ele>
        <time>2020-09-16T08:34:19Z</time>
      </trkpt>
      <trkpt lat="43.23563" lon="5.6633">
        <ele>400</ele>
        <time>2020-09-16T08:34:25Z</time>
      </trkpt>
      <trkpt lat="43.23564" lon="5.66322">
        <ele>400</ele>
        <time>2020-09-16T08:34:31Z</time>
      </trkpt>
      <trkpt lat="43.23565" lon="5.66314">
        <ele>400</ele>
        <time>2020-09-16T08:34:37Z</time>
      </trkpt>
      <trkpt lat="43.23566" lon="5.66307">
        <ele>400</ele>
        <time>2020-09-16T08:34:43Z</time>
      </trkpt>
      <trkpt lat="43.23567" lon="5.66301">
        <ele>399</ele>
        <time>2020-09-16T08:34:47Z</time>
      </trkpt>
      <trkpt lat="43.23568" lon="5.66295">
        <ele>399</ele>
        <time>2020-09-16T08:34:51Z</time>
      </trkpt>
      <trkpt lat="43.23568" lon="5.66288">
        <ele>399</ele>
        <time>2020-09-16T08:34:55Z</time>
      </trkpt>
      <trkpt lat="43.2357" lon="5.66282">
        <ele>399</ele>
        <time>2020-09-16T08:34:59Z</time>
      </trkpt>
      <trkpt lat="43.23572" lon="5.66276">
        <ele>400</ele>
        <time>2020-09-16T08:35:03Z</time>
      </trkpt>
      <trkpt lat="43.23572" lon="5.66269">
        <ele>400</ele>
        <time>2020-09-16T08:35:09Z</time>
      </trkpt>
      <trkpt lat="43.23572" lon="5.66263">
        <ele>400</ele>
        <time>2020-09-16T08:35:13Z</time>
      </trkpt>
      <trkpt lat="43.23572" lon="5.66254">
        <ele>400</ele>
        <time>2020-09-16T08:35:19Z</time>
      </trkpt>
      <trkpt lat="43.23574" lon="5.66246">
        <ele>401</ele>
        <time>2020-09-16T08:35:27Z</time>
      </trkpt>
      <trkpt lat="43.23576" lon="5.6624">
        <ele>401</ele>
        <time>2020-09-16T08:35:31Z</time>
      </trkpt>
      <trkpt lat="43.23579" lon="5.66234">
        <ele>400</ele>
        <time>2020-09-16T08:35:35Z</time>
      </trkpt>
      <trkpt lat="43.23581" lon="5.66228">
        <ele>400</ele>
        <time>2020-09-16T08:35:39Z</time>
      </trkpt>
      <trkpt lat="43.23583" lon="5.66222">
        <ele>400</ele>
        <time>2020-09-16T08:35:43Z</time>
      </trkpt>
      <trkpt lat="43.23585" lon="5.66213">
        <ele>398</ele>
        <time>2020-09-16T08:35:49Z</time>
      </trkpt>
      <trkpt lat="43.23584" lon="5.66205">
        <ele>398</ele>
        <time>2020-09-16T08:35:53Z</time>
      </trkpt>
      <trkpt lat="43.23585" lon="5.66196">
        <ele>398</ele>
        <time>2020-09-16T08:35:59Z</time>
      </trkpt>
      <trkpt lat="43.23585" lon="5.66189">
        <ele>398</ele>
        <time>2020-09-16T08:36:03Z</time>
      </trkpt>
      <trkpt lat="43.23584" lon="5.6618">
        <ele>399</ele>
        <time>2020-09-16T08:36:09Z</time>
      </trkpt>
      <trkpt lat="43.23583" lon="5.66174">
        <ele>400</ele>
        <time>2020-09-16T08:36:13Z</time>
      </trkpt>
      <trkpt lat="43.23581" lon="5.66167">
        <ele>401</ele>
        <time>2020-09-16T08:36:17Z</time>
      </trkpt>
      <trkpt lat="43.23581" lon="5.66158">
        <ele>401</ele>
        <time>2020-09-16T08:36:23Z</time>
      </trkpt>
      <trkpt lat="43.2358" lon="5.6615">
        <ele>401</ele>
        <time>2020-09-16T08:36:29Z</time>
      </trkpt>
      <trkpt lat="43.23579" lon="5.66142">
        <ele>400</ele>
        <time>2020-09-16T08:36:33Z</time>
      </trkpt>
      <trkpt lat="43.23581" lon="5.66134">
        <ele>401</ele>
        <time>2020-09-16T08:36:39Z</time>
      </trkpt>
      <trkpt lat="43.23581" lon="5.66128">
        <ele>401</ele>
        <time>2020-09-16T08:36:43Z</time>
      </trkpt>
      <trkpt lat="43.23583" lon="5.66121">
        <ele>401</ele>
        <time>2020-09-16T08:36:47Z</time>
      </trkpt>
      <trkpt lat="43.23584" lon="5.66112">
        <ele>399</ele>
        <time>2020-09-16T08:36:51Z</time>
      </trkpt>
      <trkpt lat="43.23584" lon="5.66105">
        <ele>400</ele>
        <time>2020-09-16T08:36:55Z</time>
      </trkpt>
      <trkpt lat="43.23586" lon="5.66097">
        <ele>401</ele>
        <time>2020-09-16T08:37:01Z</time>
      </trkpt>
      <trkpt lat="43.23587" lon="5.6609">
        <ele>402</ele>
        <time>2020-09-16T08:37:07Z</time>
      </trkpt>
      <trkpt lat="43.23588" lon="5.66082">
        <ele>403</ele>
        <time>2020-09-16T08:37:13Z</time>
      </trkpt>
      <trkpt lat="43.23588" lon="5.66075">
        <ele>402</ele>
        <time>2020-09-16T08:37:17Z</time>
      </trkpt>
      <trkpt lat="43.23589" lon="5.66069">
        <ele>402</ele>
        <time>2020-09-16T08:37:21Z</time>
      </trkpt>
      <trkpt lat="43.2359" lon="5.6606">
        <ele>401</ele>
        <time>2020-09-16T08:37:27Z</time>
      </trkpt>
      <trkpt lat="43.2359" lon="5.66052">
        <ele>401</ele>
        <time>2020-09-16T08:37:33Z</time>
      </trkpt>
      <trkpt lat="43.23591" lon="5.66045">
        <ele>401</ele>
        <time>2020-09-16T08:37:39Z</time>
      </trkpt>
      <trkpt lat="43.23591" lon="5.66035">
        <ele>401</ele>
        <time>2020-09-16T08:37:45Z</time>
      </trkpt>
      <trkpt lat="43.23591" lon="5.66029">
        <ele>401</ele>
        <time>2020-09-16T08:37:49Z</time>
      </trkpt>
      <trkpt lat="43.23592" lon="5.66022">
        <ele>401</ele>
        <time>2020-09-16T08:37:53Z</time>
      </trkpt>
      <trkpt lat="43.23592" lon="5.66015">
        <ele>401</ele>
        <time>2020-09-16T08:37:57Z</time>
      </trkpt>
      <trkpt lat="43.23593" lon="5.66006">
        <ele>402</ele>
        <time>2020-09-16T08:38:03Z</time>
      </trkpt>
      <trkpt lat="43.23594" lon="5.66">
        <ele>403</ele>
        <time>2020-09-16T08:38:07Z</time>
      </trkpt>
      <trkpt lat="43.23596" lon="5.65992">
        <ele>403</ele>
        <time>2020-09-16T08:38:13Z</time>
      </trkpt>
      <trkpt lat="43.23596" lon="5.65984">
        <ele>402</ele>
        <time>2020-09-16T08:38:19Z</time>
      </trkpt>
      <trkpt lat="43.23597" lon="5.65975">
        <ele>402</ele>
        <time>2020-09-16T08:38:25Z</time>
      </trkpt>
      <trkpt lat="43.23598" lon="5.65969">
        <ele>403</ele>
        <time>2020-09-16T08:38:29Z</time>
      </trkpt>
      <trkpt lat="43.23599" lon="5.65962">
        <ele>403</ele>
        <time>2020-09-16T08:38:33Z</time>
      </trkpt>
      <trkpt lat="43.236" lon="5.65955">
        <ele>403</ele>
        <time>2020-09-16T08:38:37Z</time>
      </trkpt>
      <trkpt lat="43.23601" lon="5.65948">
        <ele>403</ele>
        <time>2020-09-16T08:38:41Z</time>
      </trkpt>
      <trkpt lat="43.23602" lon="5.6594">
        <ele>403</ele>
        <time>2020-09-16T08:38:47Z</time>
      </trkpt>
      <trkpt lat="43.23603" lon="5.65932">
        <ele>403</ele>
        <time>2020-09-16T08:38:53Z</time>
      </trkpt>
      <trkpt lat="43.23603" lon="5.65925">
        <ele>404</ele>
        <time>2020-09-16T08:38:57Z</time>
      </trkpt>
      <trkpt lat="43.23604" lon="5.65916">
        <ele>405</ele>
        <time>2020-09-16T08:39:03Z</time>
      </trkpt>
      <trkpt lat="43.23605" lon="5.65909">
        <ele>405</ele>
        <time>2020-09-16T08:39:07Z</time>
      </trkpt>
      <trkpt lat="43.23606" lon="5.65902">
        <ele>405</ele>
        <time>2020-09-16T08:39:13Z</time>
      </trkpt>
      <trkpt lat="43.23608" lon="5.65894">
        <ele>405</ele>
        <time>2020-09-16T08:39:19Z</time>
      </trkpt>
      <trkpt lat="43.23609" lon="5.65887">
        <ele>405</ele>
        <time>2020-09-16T08:39:23Z</time>
      </trkpt>
      <trkpt lat="43.23609" lon="5.6588">
        <ele>405</ele>
        <time>2020-09-16T08:39:27Z</time>
      </trkpt>
      <trkpt lat="43.23608" lon="5.65874">
        <ele>406</ele>
        <time>2020-09-16T08:39:31Z</time>
      </trkpt>
      <trkpt lat="43.23607" lon="5.65867">
        <ele>406</ele>
        <time>2020-09-16T08:39:35Z</time>
      </trkpt>
      <trkpt lat="43.23607" lon="5.65859">
        <ele>406</ele>
        <time>2020-09-16T08:39:39Z</time>
      </trkpt>
      <trkpt lat="43.23607" lon="5.65851">
        <ele>406</ele>
        <time>2020-09-16T08:39:45Z</time>
      </trkpt>
      <trkpt lat="43.23608" lon="5.65843">
        <ele>406</ele>
        <time>2020-09-16T08:39:51Z</time>
      </trkpt>
      <trkpt lat="43.23609" lon="5.65834">
        <ele>406</ele>
        <time>2020-09-16T08:39:57Z</time>
      </trkpt>
      <trkpt lat="43.23609" lon="5.65828">
        <ele>408</ele>
        <time>2020-09-16T08:40:03Z</time>
      </trkpt>
      <trkpt lat="43.23611" lon="5.65821">
        <ele>408</ele>
        <time>2020-09-16T08:40:09Z</time>
      </trkpt>
      <trkpt lat="43.23612" lon="5.65813">
        <ele>409</ele>
        <time>2020-09-16T08:40:15Z</time>
      </trkpt>
      <trkpt lat="43.23614" lon="5.65807">
        <ele>409</ele>
        <time>2020-09-16T08:40:19Z</time>
      </trkpt>
      <trkpt lat="43.23613" lon="5.65798">
        <ele>409</ele>
        <time>2020-09-16T08:40:25Z</time>
      </trkpt>
      <trkpt lat="43.23614" lon="5.65789">
        <ele>409</ele>
        <time>2020-09-16T08:40:31Z</time>
      </trkpt>
      <trkpt lat="43.23615" lon="5.65782">
        <ele>409</ele>
        <time>2020-09-16T08:40:35Z</time>
      </trkpt>
      <trkpt lat="43.23615" lon="5.65776">
        <ele>409</ele>
        <time>2020-09-16T08:40:39Z</time>
      </trkpt>
      <trkpt lat="43.23616" lon="5.65769">
        <ele>409</ele>
        <time>2020-09-16T08:40:43Z</time>
      </trkpt>
      <trkpt lat="43.23617" lon="5.6576">
        <ele>410</ele>
        <time>2020-09-16T08:40:49Z</time>
      </trkpt>
      <trkpt lat="43.23619" lon="5.65752">
        <ele>410</ele>
        <time>2020-09-16T08:40:55Z</time>
      </trkpt>
      <trkpt lat="43.23621" lon="5.65744">
        <ele>412</ele>
        <time>2020-09-16T08:41:01Z</time>
      </trkpt>
      <trkpt lat="43.23624" lon="5.65738">
        <ele>412</ele>
        <time>2020-09-16T08:41:07Z</time>
      </trkpt>
      <trkpt lat="43.23628" lon="5.65732">
        <ele>412</ele>
        <time>2020-09-16T08:41:13Z</time>
      </trkpt>
      <trkpt lat="43.23631" lon="5.65726">
        <ele>412</ele>
        <time>2020-09-16T08:41:19Z</time>
      </trkpt>
      <trkpt lat="43.23633" lon="5.65718">
        <ele>412</ele>
        <time>2020-09-16T08:41:25Z</time>
      </trkpt>
      <trkpt lat="43.23635" lon="5.65713">
        <ele>412</ele>
        <time>2020-09-16T08:41:29Z</time>
      </trkpt>
      <trkpt lat="43.23637" lon="5.65706">
        <ele>413</ele>
        <time>2020-09-16T08:41:33Z</time>
      </trkpt>
      <trkpt lat="43.23639" lon="5.657">
        <ele>413</ele>
        <time>2020-09-16T08:41:37Z</time>
      </trkpt>
      <trkpt lat="43.23641" lon="5.65694">
        <ele>413</ele>
        <time>2020-09-16T08:41:41Z</time>
      </trkpt>
      <trkpt lat="43.23644" lon="5.65686">
        <ele>413</ele>
        <time>2020-09-16T08:41:47Z</time>
      </trkpt>
      <trkpt lat="43.23647" lon="5.6568">
        <ele>414</ele>
        <time>2020-09-16T08:41:53Z</time>
      </trkpt>
      <trkpt lat="43.23648" lon="5.65673">
        <ele>414</ele>
        <time>2020-09-16T08:41:59Z</time>
      </trkpt>
      <trkpt lat="43.23651" lon="5.65665">
        <ele>416</ele>
        <time>2020-09-16T08:42:05Z</time>
      </trkpt>
      <trkpt lat="43.23653" lon="5.65658">
        <ele>416</ele>
        <time>2020-09-16T08:42:09Z</time>
      </trkpt>
      <trkpt lat="43.23655" lon="5.65651">
        <ele>416</ele>
        <time>2020-09-16T08:42:13Z</time>
      </trkpt>
      <trkpt lat="43.23658" lon="5.65646">
        <ele>416</ele>
        <time>2020-09-16T08:42:17Z</time>
      </trkpt>
      <trkpt lat="43.23661" lon="5.65639">
        <ele>416</ele>
        <time>2020-09-16T08:42:23Z</time>
      </trkpt>
      <trkpt lat="43.23662" lon="5.6563">
        <ele>416</ele>
        <time>2020-09-16T08:42:29Z</time>
      </trkpt>
      <trkpt lat="43.23664" lon="5.65624">
        <ele>417</ele>
        <time>2020-09-16T08:42:33Z</time>
      </trkpt>
      <trkpt lat="43.23667" lon="5.65618">
        <ele>417</ele>
        <time>2020-09-16T08:42:37Z</time>
      </trkpt>
      <trkpt lat="43.23669" lon="5.65612">
        <ele>419</ele>
        <time>2020-09-16T08:42:41Z</time>
      </trkpt>
      <trkpt lat="43.23671" lon="5.65604">
        <ele>420</ele>
        <time>2020-09-16T08:42:47Z</time>
      </trkpt>
      <trkpt lat="43.23673" lon="5.65596">
        <ele>420</ele>
        <time>2020-09-16T08:42:53Z</time>
      </trkpt>
      <trkpt lat="43.23675" lon="5.65589">
        <ele>421</ele>
        <time>2020-09-16T08:42:59Z</time>
      </trkpt>
      <trkpt lat="43.23676" lon="5.65581">
        <ele>422</ele>
        <time>2020-09-16T08:43:03Z</time>
      </trkpt>
      <trkpt lat="43.23678" lon="5.65575">
        <ele>423</ele>
        <time>2020-09-16T08:43:07Z</time>
      </trkpt>
      <trkpt lat="43.23679" lon="5.65569">
        <ele>423</ele>
        <time>2020-09-16T08:43:11Z</time>
      </trkpt>
      <trkpt lat="43.23681" lon="5.65562">
        <ele>423</ele>
        <time>2020-09-16T08:43:17Z</time>
      </trkpt>
      <trkpt lat="43.23685" lon="5.65556">
        <ele>423</ele>
        <time>2020-09-16T08:43:23Z</time>
      </trkpt>
      <trkpt lat="43.23686" lon="5.6555">
        <ele>423</ele>
        <time>2020-09-16T08:43:29Z</time>
      </trkpt>
      <trkpt lat="43.23688" lon="5.65542">
        <ele>423</ele>
        <time>2020-09-16T08:43:35Z</time>
      </trkpt>
      <trkpt lat="43.23688" lon="5.65533">
        <ele>424</ele>
        <time>2020-09-16T08:43:41Z</time>
      </trkpt>
      <trkpt lat="43.2369" lon="5.65524">
        <ele>424</ele>
        <time>2020-09-16T08:43:47Z</time>
      </trkpt>
      <trkpt lat="43.23689" lon="5.65518">
        <ele>424</ele>
        <time>2020-09-16T08:43:51Z</time>
      </trkpt>
      <trkpt lat="43.23689" lon="5.6551">
        <ele>424</ele>
        <time>2020-09-16T08:43:57Z</time>
      </trkpt>
      <trkpt lat="43.23688" lon="5.65501">
        <ele>425</ele>
        <time>2020-09-16T08:44:03Z</time>
      </trkpt>
      <trkpt lat="43.23688" lon="5.65492">
        <ele>427</ele>
        <time>2020-09-16T08:44:09Z</time>
      </trkpt>
      <trkpt lat="43.23687" lon="5.65483">
        <ele>427</ele>
        <time>2020-09-16T08:44:15Z</time>
      </trkpt>
      <trkpt lat="43.23687" lon="5.65475">
        <ele>428</ele>
        <time>2020-09-16T08:44:21Z</time>
      </trkpt>
      <trkpt lat="43.23687" lon="5.65466">
        <ele>428</ele>
        <time>2020-09-16T08:44:27Z</time>
      </trkpt>
      <trkpt lat="43.23688" lon="5.65458">
        <ele>428</ele>
        <time>2020-09-16T08:44:33Z</time>
      </trkpt>
      <trkpt lat="43.23688" lon="5.65451">
        <ele>428</ele>
        <time>2020-09-16T08:44:37Z</time>
      </trkpt>
      <trkpt lat="43.23688" lon="5.65445">
        <ele>429</ele>
        <time>2020-09-16T08:44:41Z</time>
      </trkpt>
      <trkpt lat="43.23689" lon="5.65437">
        <ele>429</ele>
        <time>2020-09-16T08:44:47Z</time>
      </trkpt>
      <trkpt lat="43.23691" lon="5.65429">
        <ele>429</ele>
        <time>2020-09-16T08:44:53Z</time>
      </trkpt>
      <trkpt lat="43.23693" lon="5.6542">
        <ele>429</ele>
        <time>2020-09-16T08:44:59Z</time>
      </trkpt>
      <trkpt lat="43.23695" lon="5.65412">
        <ele>432</ele>
        <time>2020-09-16T08:45:05Z</time>
      </trkpt>
      <trkpt lat="43.23697" lon="5.65405">
        <ele>432</ele>
        <time>2020-09-16T08:45:11Z</time>
      </trkpt>
      <trkpt lat="43.23698" lon="5.65398">
        <ele>432</ele>
        <time>2020-09-16T08:45:17Z</time>
      </trkpt>
      <trkpt lat="43.23696" lon="5.65391">
        <ele>432</ele>
        <time>2020-09-16T08:45:23Z</time>
      </trkpt>
      <trkpt lat="43.23696" lon="5.65383">
        <ele>432</ele>
        <time>2020-09-16T08:45:49Z</time>
      </trkpt>
      <trkpt lat="43.23698" lon="5.65376">
        <ele>433</ele>
        <time>2020-09-16T08:45:55Z</time>
      </trkpt>
      <trkpt lat="43.23699" lon="5.65369">
        <ele>433</ele>
        <time>2020-09-16T08:46:01Z</time>
      </trkpt>
      <trkpt lat="43.23701" lon="5.65362">
        <ele>433</ele>
        <time>2020-09-16T08:46:07Z</time>
      </trkpt>
      <trkpt lat="43.23702" lon="5.65354">
        <ele>433</ele>
        <time>2020-09-16T08:46:13Z</time>
      </trkpt>
      <trkpt lat="43.23703" lon="5.65346">
        <ele>433</ele>
        <time>2020-09-16T08:46:19Z</time>
      </trkpt>
      <trkpt lat="43.23703" lon="5.65337">
        <ele>433</ele>
        <time>2020-09-16T08:46:25Z</time>
      </trkpt>
      <trkpt lat="43.23704" lon="5.65331">
        <ele>434</ele>
        <time>2020-09-16T08:46:29Z</time>
      </trkpt>
      <trkpt lat="43.23705" lon="5.65324">
        <ele>434</ele>
        <time>2020-09-16T08:46:33Z</time>
      </trkpt>
      <trkpt lat="43.23708" lon="5.65316">
        <ele>434</ele>
        <time>2020-09-16T08:46:39Z</time>
      </trkpt>
      <trkpt lat="43.23711" lon="5.6531">
        <ele>435</ele>
        <time>2020-09-16T08:46:45Z</time>
      </trkpt>
      <trkpt lat="43.23714" lon="5.65305">
        <ele>435</ele>
        <time>2020-09-16T08:46:49Z</time>
      </trkpt>
      <trkpt lat="43.23716" lon="5.65296">
        <ele>435</ele>
        <time>2020-09-16T08:46:55Z</time>
      </trkpt>
      <trkpt lat="43.23718" lon="5.65287">
        <ele>435</ele>
        <time>2020-09-16T08:47:01Z</time>
      </trkpt>
      <trkpt lat="43.2372" lon="5.65281">
        <ele>435</ele>
        <time>2020-09-16T08:47:05Z</time>
      </trkpt>
      <trkpt lat="43.23721" lon="5.65273">
        <ele>435</ele>
        <time>2020-09-16T08:47:11Z</time>
      </trkpt>
      <trkpt lat="43.23721" lon="5.65264">
        <ele>435</ele>
        <time>2020-09-16T08:47:17Z</time>
      </trkpt>
      <trkpt lat="43.23723" lon="5.65255">
        <ele>436</ele>
        <time>2020-09-16T08:47:23Z</time>
      </trkpt>
      <trkpt lat="43.23725" lon="5.65249">
        <ele>436</ele>
        <time>2020-09-16T08:47:27Z</time>
      </trkpt>
      <trkpt lat="43.23727" lon="5.65241">
        <ele>436</ele>
        <time>2020-09-16T08:47:33Z</time>
      </trkpt>
      <trkpt lat="43.23728" lon="5.65234">
        <ele>436</ele>
        <time>2020-09-16T08:47:39Z</time>
      </trkpt>
      <trkpt lat="43.23731" lon="5.65227">
        <ele>436</ele>
        <time>2020-09-16T08:47:45Z</time>
      </trkpt>
      <trkpt lat="43.23734" lon="5.6522">
        <ele>436</ele>
        <time>2020-09-16T08:47:51Z</time>
      </trkpt>
      <trkpt lat="43.23737" lon="5.65214">
        <ele>436</ele>
        <time>2020-09-16T08:47:57Z</time>
      </trkpt>
      <trkpt lat="43.2374" lon="5.65208">
        <ele>436</ele>
        <time>2020-09-16T08:48:03Z</time>
      </trkpt>
      <trkpt lat="43.23744" lon="5.65201">
        <ele>436</ele>
        <time>2020-09-16T08:48:09Z</time>
      </trkpt>
      <trkpt lat="43.23748" lon="5.65197">
        <ele>437</ele>
        <time>2020-09-16T08:48:15Z</time>
      </trkpt>
      <trkpt lat="43.2375" lon="5.65189">
        <ele>440</ele>
        <time>2020-09-16T08:48:21Z</time>
      </trkpt>
      <trkpt lat="43.23752" lon="5.6518">
        <ele>440</ele>
        <time>2020-09-16T08:48:27Z</time>
      </trkpt>
      <trkpt lat="43.23755" lon="5.65174">
        <ele>440</ele>
        <time>2020-09-16T08:48:33Z</time>
      </trkpt>
      <trkpt lat="43.23759" lon="5.65167">
        <ele>440</ele>
        <time>2020-09-16T08:48:39Z</time>
      </trkpt>
      <trkpt lat="43.23761" lon="5.65159">
        <ele>441</ele>
        <time>2020-09-16T08:48:45Z</time>
      </trkpt>
      <trkpt lat="43.23761" lon="5.65152">
        <ele>442</ele>
        <time>2020-09-16T08:48:49Z</time>
      </trkpt>
      <trkpt lat="43.23762" lon="5.65145">
        <ele>442</ele>
        <time>2020-09-16T08:48:53Z</time>
      </trkpt>
      <trkpt lat="43.23762" lon="5.65139">
        <ele>442</ele>
        <time>2020-09-16T08:48:57Z</time>
      </trkpt>
      <trkpt lat="43.23763" lon="5.65132">
        <ele>442</ele>
        <time>2020-09-16T08:49:01Z</time>
      </trkpt>
      <trkpt lat="43.23766" lon="5.65124">
        <ele>442</ele>
        <time>2020-09-16T08:49:07Z</time>
      </trkpt>
      <trkpt lat="43.23768" lon="5.65118">
        <ele>443</ele>
        <time>2020-09-16T08:49:11Z</time>
      </trkpt>
      <trkpt lat="43.23769" lon="5.65112">
        <ele>443</ele>
        <time>2020-09-16T08:49:15Z</time>
      </trkpt>
      <trkpt lat="43.23772" lon="5.65103">
        <ele>443</ele>
        <time>2020-09-16T08:49:21Z</time>
      </trkpt>
      <trkpt lat="43.23775" lon="5.65096">
        <ele>443</ele>
        <time>2020-09-16T08:49:27Z</time>
      </trkpt>
      <trkpt lat="43.23777" lon="5.6509">
        <ele>443</ele>
        <time>2020-09-16T08:49:31Z</time>
      </trkpt>
      <trkpt lat="43.2378" lon="5.65082">
        <ele>446</ele>
        <time>2020-09-16T08:49:37Z</time>
      </trkpt>
      <trkpt lat="43.23781" lon="5.65074">
        <ele>446</ele>
        <time>2020-09-16T08:49:43Z</time>
      </trkpt>
      <trkpt lat="43.23782" lon="5.65067">
        <ele>446</ele>
        <time>2020-09-16T08:49:49Z</time>
      </trkpt>
      <trkpt lat="43.23784" lon="5.65059">
        <ele>446</ele>
        <time>2020-09-16T08:49:55Z</time>
      </trkpt>
      <trkpt lat="43.23786" lon="5.65052">
        <ele>447</ele>
        <time>2020-09-16T08:50:01Z</time>
      </trkpt>
      <trkpt lat="43.23788" lon="5.65044">
        <ele>447</ele>
        <time>2020-09-16T08:50:07Z</time>
      </trkpt>
      <trkpt lat="43.23788" lon="5.65036">
        <ele>447</ele>
        <time>2020-09-16T08:50:13Z</time>
      </trkpt>
      <trkpt lat="43.23789" lon="5.65028">
        <ele>448</ele>
        <time>2020-09-16T08:50:19Z</time>
      </trkpt>
      <trkpt lat="43.23789" lon="5.65019">
        <ele>448</ele>
        <time>2020-09-16T08:50:25Z</time>
      </trkpt>
      <trkpt lat="43.23789" lon="5.65011">
        <ele>448</ele>
        <time>2020-09-16T08:50:31Z</time>
      </trkpt>
      <trkpt lat="43.2379" lon="5.65003">
        <ele>448</ele>
        <time>2020-09-16T08:50:37Z</time>
      </trkpt>
      <trkpt lat="43.2379" lon="5.64996">
        <ele>451</ele>
        <time>2020-09-16T08:50:43Z</time>
      </trkpt>
      <trkpt lat="43.2379" lon="5.64988">
        <ele>451</ele>
        <time>2020-09-16T08:50:49Z</time>
      </trkpt>
      <trkpt lat="43.2379" lon="5.64982">
        <ele>451</ele>
        <time>2020-09-16T08:50:53Z</time>
      </trkpt>
      <trkpt lat="43.2379" lon="5.64972">
        <ele>452</ele>
        <time>2020-09-16T08:50:59Z</time>
      </trkpt>
      <trkpt lat="43.23791" lon="5.64964">
        <ele>452</ele>
        <time>2020-09-16T08:51:05Z</time>
      </trkpt>
      <trkpt lat="43.23793" lon="5.64958">
        <ele>452</ele>
        <time>2020-09-16T08:51:11Z</time>
      </trkpt>
      <trkpt lat="43.23794" lon="5.64951">
        <ele>452</ele>
        <time>2020-09-16T08:51:17Z</time>
      </trkpt>
      <trkpt lat="43.23796" lon="5.64943">
        <ele>452</ele>
        <time>2020-09-16T08:51:23Z</time>
      </trkpt>
      <trkpt lat="43.23798" lon="5.64935">
        <ele>453</ele>
        <time>2020-09-16T08:51:29Z</time>
      </trkpt>
      <trkpt lat="43.238" lon="5.64929">
        <ele>453</ele>
        <time>2020-09-16T08:51:33Z</time>
      </trkpt>
      <trkpt lat="43.23802" lon="5.64921">
        <ele>453</ele>
        <time>2020-09-16T08:51:39Z</time>
      </trkpt>
      <trkpt lat="43.23805" lon="5.64916">
        <ele>454</ele>
        <time>2020-09-16T08:51:43Z</time>
      </trkpt>
      <trkpt lat="43.2381" lon="5.6491">
        <ele>455</ele>
        <time>2020-09-16T08:51:49Z</time>
      </trkpt>
      <trkpt lat="43.23811" lon="5.64902">
        <ele>455</ele>
        <time>2020-09-16T08:51:55Z</time>
      </trkpt>
      <trkpt lat="43.23812" lon="5.64895">
        <ele>455</ele>
        <time>2020-09-16T08:52:01Z</time>
      </trkpt>
      <trkpt lat="43.23814" lon="5.64887">
        <ele>455</ele>
        <time>2020-09-16T08:52:07Z</time>
      </trkpt>
      <trkpt lat="43.23815" lon="5.6488">
        <ele>455</ele>
        <time>2020-09-16T08:52:13Z</time>
      </trkpt>
      <trkpt lat="43.23817" lon="5.64873">
        <ele>455</ele>
        <time>2020-09-16T08:52:19Z</time>
      </trkpt>
      <trkpt lat="43.23819" lon="5.64866">
        <ele>455</ele>
        <time>2020-09-16T08:52:25Z</time>
      </trkpt>
      <trkpt lat="43.2382" lon="5.6486">
        <ele>455</ele>
        <time>2020-09-16T08:52:31Z</time>
      </trkpt>
      <trkpt lat="43.23821" lon="5.64853">
        <ele>455</ele>
        <time>2020-09-16T08:52:37Z</time>
      </trkpt>
      <trkpt lat="43.23821" lon="5.64845">
        <ele>456</ele>
        <time>2020-09-16T08:52:43Z</time>
      </trkpt>
      <trkpt lat="43.23822" lon="5.64837">
        <ele>456</ele>
        <time>2020-09-16T08:52:49Z</time>
      </trkpt>
      <trkpt lat="43.23823" lon="5.64831">
        <ele>456</ele>
        <time>2020-09-16T08:52:53Z</time>
      </trkpt>
      <trkpt lat="43.23825" lon="5.64822">
        <ele>455</ele>
        <time>2020-09-16T08:52:59Z</time>
      </trkpt>
      <trkpt lat="43.23827" lon="5.64814">
        <ele>455</ele>
        <time>2020-09-16T08:53:05Z</time>
      </trkpt>
      <trkpt lat="43.23829" lon="5.64806">
        <ele>454</ele>
        <time>2020-09-16T08:53:11Z</time>
      </trkpt>
      <trkpt lat="43.23831" lon="5.64798">
        <ele>454</ele>
        <time>2020-09-16T08:53:17Z</time>
      </trkpt>
      <trkpt lat="43.23833" lon="5.64792">
        <ele>454</ele>
        <time>2020-09-16T08:53:21Z</time>
      </trkpt>
      <trkpt lat="43.23835" lon="5.64783">
        <ele>461</ele>
        <time>2020-09-16T08:53:27Z</time>
      </trkpt>
      <trkpt lat="43.23838" lon="5.64777">
        <ele>461</ele>
        <time>2020-09-16T08:53:33Z</time>
      </trkpt>
      <trkpt lat="43.23841" lon="5.64769">
        <ele>461</ele>
        <time>2020-09-16T08:53:39Z</time>
      </trkpt>
      <trkpt lat="43.23845" lon="5.64764">
        <ele>460</ele>
        <time>2020-09-16T08:53:45Z</time>
      </trkpt>
      <trkpt lat="43.23849" lon="5.64758">
        <ele>461</ele>
        <time>2020-09-16T08:53:51Z</time>
      </trkpt>
      <trkpt lat="43.23852" lon="5.64752">
        <ele>461</ele>
        <time>2020-09-16T08:53:57Z</time>
      </trkpt>
      <trkpt lat="43.23855" lon="5.64746">
        <ele>459</ele>
        <time>2020-09-16T08:54:03Z</time>
      </trkpt>
      <trkpt lat="43.23858" lon="5.64739">
        <ele>459</ele>
        <time>2020-09-16T08:54:09Z</time>
      </trkpt>
      <trkpt lat="43.23862" lon="5.64734">
        <ele>459</ele>
        <time>2020-09-16T08:54:15Z</time>
      </trkpt>
      <trkpt lat="43.23865" lon="5.64728">
        <ele>459</ele>
        <time>2020-09-16T08:54:21Z</time>
      </trkpt>
      <trkpt lat="43.2387" lon="5.64723">
        <ele>460</ele>
        <time>2020-09-16T08:54:27Z</time>
      </trkpt>
      <trkpt lat="43.23874" lon="5.64718">
        <ele>460</ele>
        <time>2020-09-16T08:54:33Z</time>
      </trkpt>
      <trkpt lat="43.23878" lon="5.64713">
        <ele>460</ele>
        <time>2020-09-16T08:54:39Z</time>
      </trkpt>
      <trkpt lat="43.23883" lon="5.64708">
        <ele>460</ele>
        <time>2020-09-16T08:54:45Z</time>
      </trkpt>
      <trkpt lat="43.23887" lon="5.64704">
        <ele>460</ele>
        <time>2020-09-16T08:54:51Z</time>
      </trkpt>
      <trkpt lat="43.23891" lon="5.647">
        <ele>461</ele>
        <time>2020-09-16T08:54:57Z</time>
      </trkpt>
      <trkpt lat="43.23896" lon="5.64694">
        <ele>461</ele>
        <time>2020-09-16T08:55:03Z</time>
      </trkpt>
      <trkpt lat="43.239" lon="5.64689">
        <ele>461</ele>
        <time>2020-09-16T08:55:09Z</time>
      </trkpt>
      <trkpt lat="43.23905" lon="5.64683">
        <ele>462</ele>
        <time>2020-09-16T08:55:15Z</time>
      </trkpt>
      <trkpt lat="43.23909" lon="5.64679">
        <ele>463</ele>
        <time>2020-09-16T08:55:21Z</time>
      </trkpt>
      <trkpt lat="43.23912" lon="5.64673">
        <ele>463</ele>
        <time>2020-09-16T08:55:27Z</time>
      </trkpt>
      <trkpt lat="43.23917" lon="5.64668">
        <ele>465</ele>
        <time>2020-09-16T08:55:33Z</time>
      </trkpt>
      <trkpt lat="43.23921" lon="5.64663">
        <ele>466</ele>
        <time>2020-09-16T08:55:39Z</time>
      </trkpt>
      <trkpt lat="43.23925" lon="5.64658">
        <ele>468</ele>
        <time>2020-09-16T08:55:45Z</time>
      </trkpt>
      <trkpt lat="43.2393" lon="5.64653">
        <ele>469</ele>
        <time>2020-09-16T08:55:51Z</time>
      </trkpt>
      <trkpt lat="43.23934" lon="5.64648">
        <ele>470</ele>
        <time>2020-09-16T08:55:57Z</time>
      </trkpt>
      <trkpt lat="43.23939" lon="5.64644">
        <ele>470</ele>
        <time>2020-09-16T08:56:01Z</time>
      </trkpt>
      <trkpt lat="43.23944" lon="5.64639">
        <ele>471</ele>
        <time>2020-09-16T08:56:07Z</time>
      </trkpt>
      <trkpt lat="43.23948" lon="5.64634">
        <ele>472</ele>
        <time>2020-09-16T08:56:13Z</time>
      </trkpt>
      <trkpt lat="43.23952" lon="5.64628">
        <ele>472</ele>
        <time>2020-09-16T08:56:19Z</time>
      </trkpt>
      <trkpt lat="43.23956" lon="5.64623">
        <ele>472</ele>
        <time>2020-09-16T08:56:25Z</time>
      </trkpt>
      <trkpt lat="43.23958" lon="5.64617">
        <ele>472</ele>
        <time>2020-09-16T08:56:31Z</time>
      </trkpt>
      <trkpt lat="43.23962" lon="5.64613">
        <ele>473</ele>
        <time>2020-09-16T08:56:37Z</time>
      </trkpt>
      <trkpt lat="43.23966" lon="5.64606">
        <ele>473</ele>
        <time>2020-09-16T08:56:43Z</time>
      </trkpt>
      <trkpt lat="43.23969" lon="5.646">
        <ele>473</ele>
        <time>2020-09-16T08:56:49Z</time>
      </trkpt>
      <trkpt lat="43.23974" lon="5.64595">
        <ele>474</ele>
        <time>2020-09-16T08:56:55Z</time>
      </trkpt>
      <trkpt lat="43.23979" lon="5.6459">
        <ele>475</ele>
        <time>2020-09-16T08:57:01Z</time>
      </trkpt>
      <trkpt lat="43.23983" lon="5.64585">
        <ele>475</ele>
        <time>2020-09-16T08:57:07Z</time>
      </trkpt>
      <trkpt lat="43.23987" lon="5.64581">
        <ele>476</ele>
        <time>2020-09-16T08:57:13Z</time>
      </trkpt>
      <trkpt lat="43.2399" lon="5.64575">
        <ele>476</ele>
        <time>2020-09-16T08:57:19Z</time>
      </trkpt>
      <trkpt lat="43.23994" lon="5.64571">
        <ele>476</ele>
        <time>2020-09-16T08:57:25Z</time>
      </trkpt>
      <trkpt lat="43.23998" lon="5.64567">
        <ele>476</ele>
        <time>2020-09-16T08:57:31Z</time>
      </trkpt>
      <trkpt lat="43.24001" lon="5.64563">
        <ele>485</ele>
        <time>2020-09-16T08:57:37Z</time>
      </trkpt>
      <trkpt lat="43.24005" lon="5.64556">
        <ele>486</ele>
        <time>2020-09-16T08:57:43Z</time>
      </trkpt>
      <trkpt lat="43.24007" lon="5.6455">
        <ele>487</ele>
        <time>2020-09-16T08:57:49Z</time>
      </trkpt>
      <trkpt lat="43.24009" lon="5.64543">
        <ele>487</ele>
        <time>2020-09-16T08:57:55Z</time>
      </trkpt>
      <trkpt lat="43.24011" lon="5.64536">
        <ele>487</ele>
        <time>2020-09-16T08:58:01Z</time>
      </trkpt>
      <trkpt lat="43.24012" lon="5.64528">
        <ele>487</ele>
        <time>2020-09-16T08:58:07Z</time>
      </trkpt>
      <trkpt lat="43.24013" lon="5.64522">
        <ele>487</ele>
        <time>2020-09-16T08:58:13Z</time>
      </trkpt>
      <trkpt lat="43.24012" lon="5.64515">
        <ele>486</ele>
        <time>2020-09-16T08:58:19Z</time>
      </trkpt>
      <trkpt lat="43.24012" lon="5.64509">
        <ele>485</ele>
        <time>2020-09-16T08:58:25Z</time>
      </trkpt>
      <trkpt lat="43.24009" lon="5.64502">
        <ele>484</ele>
        <time>2020-09-16T08:58:33Z</time>
      </trkpt>
      <trkpt lat="43.24005" lon="5.64496">
        <ele>483</ele>
        <time>2020-09-16T08:58:41Z</time>
      </trkpt>
      <trkpt lat="43.24001" lon="5.64493">
        <ele>483</ele>
        <time>2020-09-16T08:58:47Z</time>
      </trkpt>
      <trkpt lat="43.23997" lon="5.64488">
        <ele>481</ele>
        <time>2020-09-16T08:58:53Z</time>
      </trkpt>
      <trkpt lat="43.23994" lon="5.64482">
        <ele>481</ele>
        <time>2020-09-16T08:58:59Z</time>
      </trkpt>
      <trkpt lat="43.2399" lon="5.64476">
        <ele>481</ele>
        <time>2020-09-16T08:59:05Z</time>
      </trkpt>
      <trkpt lat="43.23986" lon="5.6447">
        <ele>481</ele>
        <time>2020-09-16T08:59:11Z</time>
      </trkpt>
      <trkpt lat="43.23983" lon="5.64464">
        <ele>481</ele>
        <time>2020-09-16T08:59:17Z</time>
      </trkpt>
      <trkpt lat="43.23981" lon="5.64456">
        <ele>481</ele>
        <time>2020-09-16T08:59:25Z</time>
      </trkpt>
      <trkpt lat="43.23979" lon="5.6445">
        <ele>482</ele>
        <time>2020-09-16T08:59:31Z</time>
      </trkpt>
      <trkpt lat="43.23978" lon="5.64444">
        <ele>482</ele>
        <time>2020-09-16T08:59:37Z</time>
      </trkpt>
      <trkpt lat="43.23977" lon="5.64438">
        <ele>482</ele>
        <time>2020-09-16T08:59:45Z</time>
      </trkpt>
      <trkpt lat="43.23977" lon="5.6443">
        <ele>483</ele>
        <time>2020-09-16T08:59:53Z</time>
      </trkpt>
      <trkpt lat="43.23978" lon="5.64423">
        <ele>483</ele>
        <time>2020-09-16T09:00:01Z</time>
      </trkpt>
      <trkpt lat="43.23977" lon="5.64416">
        <ele>485</ele>
        <time>2020-09-16T09:00:07Z</time>
      </trkpt>
      <trkpt lat="43.2398" lon="5.6441">
        <ele>485</ele>
        <time>2020-09-16T09:00:17Z</time>
      </trkpt>
      <trkpt lat="43.23981" lon="5.64405">
        <ele>485</ele>
        <time>2020-09-16T09:00:41Z</time>
      </trkpt>
      <trkpt lat="43.23985" lon="5.64401">
        <ele>485</ele>
        <time>2020-09-16T09:06:07Z</time>
      </trkpt>
      <trkpt lat="43.23989" lon="5.64398">
        <ele>485</ele>
        <time>2020-09-16T09:06:19Z</time>
      </trkpt>
      <trkpt lat="43.23994" lon="5.64398">
        <ele>485</ele>
        <time>2020-09-16T09:06:25Z</time>
      </trkpt>
      <trkpt lat="43.23999" lon="5.64401">
        <ele>486</ele>
        <time>2020-09-16T09:06:33Z</time>
      </trkpt>
      <trkpt lat="43.24003" lon="5.64401">
        <ele>487</ele>
        <time>2020-09-16T09:06:41Z</time>
      </trkpt>
      <trkpt lat="43.24009" lon="5.64402">
        <ele>487</ele>
        <time>2020-09-16T09:06:47Z</time>
      </trkpt>
      <trkpt lat="43.24014" lon="5.64404">
        <ele>487</ele>
        <time>2020-09-16T09:06:53Z</time>
      </trkpt>
      <trkpt lat="43.24019" lon="5.64406">
        <ele>487</ele>
        <time>2020-09-16T09:06:59Z</time>
      </trkpt>
      <trkpt lat="43.24025" lon="5.64406">
        <ele>487</ele>
        <time>2020-09-16T09:07:05Z</time>
      </trkpt>
      <trkpt lat="43.2403" lon="5.64408">
        <ele>487</ele>
        <time>2020-09-16T09:07:13Z</time>
      </trkpt>
      <trkpt lat="43.24035" lon="5.64411">
        <ele>488</ele>
        <time>2020-09-16T09:07:19Z</time>
      </trkpt>
      <trkpt lat="43.24041" lon="5.64413">
        <ele>488</ele>
        <time>2020-09-16T09:07:25Z</time>
      </trkpt>
      <trkpt lat="43.24047" lon="5.64414">
        <ele>488</ele>
        <time>2020-09-16T09:07:31Z</time>
      </trkpt>
      <trkpt lat="43.24052" lon="5.64416">
        <ele>489</ele>
        <time>2020-09-16T09:07:37Z</time>
      </trkpt>
      <trkpt lat="43.24057" lon="5.64416">
        <ele>489</ele>
        <time>2020-09-16T09:07:43Z</time>
      </trkpt>
      <trkpt lat="43.24062" lon="5.64416">
        <ele>490</ele>
        <time>2020-09-16T09:07:49Z</time>
      </trkpt>
      <trkpt lat="43.24067" lon="5.64417">
        <ele>493</ele>
        <time>2020-09-16T09:07:55Z</time>
      </trkpt>
      <trkpt lat="43.24073" lon="5.64417">
        <ele>494</ele>
        <time>2020-09-16T09:08:05Z</time>
      </trkpt>
      <trkpt lat="43.24079" lon="5.64417">
        <ele>494</ele>
        <time>2020-09-16T09:08:13Z</time>
      </trkpt>
      <trkpt lat="43.24084" lon="5.6442">
        <ele>496</ele>
        <time>2020-09-16T09:08:19Z</time>
      </trkpt>
      <trkpt lat="43.24089" lon="5.64424">
        <ele>497</ele>
        <time>2020-09-16T09:08:25Z</time>
      </trkpt>
      <trkpt lat="43.24093" lon="5.64426">
        <ele>498</ele>
        <time>2020-09-16T09:08:35Z</time>
      </trkpt>
      <trkpt lat="43.24098" lon="5.64431">
        <ele>499</ele>
        <time>2020-09-16T09:08:45Z</time>
      </trkpt>
      <trkpt lat="43.24102" lon="5.64434">
        <ele>499</ele>
        <time>2020-09-16T09:08:51Z</time>
      </trkpt>
      <trkpt lat="43.24107" lon="5.64438">
        <ele>500</ele>
        <time>2020-09-16T09:08:59Z</time>
      </trkpt>
      <trkpt lat="43.24112" lon="5.6444">
        <ele>500</ele>
        <time>2020-09-16T09:09:05Z</time>
      </trkpt>
      <trkpt lat="43.24116" lon="5.64442">
        <ele>501</ele>
        <time>2020-09-16T09:09:11Z</time>
      </trkpt>
      <trkpt lat="43.24121" lon="5.64446">
        <ele>501</ele>
        <time>2020-09-16T09:09:21Z</time>
      </trkpt>
      <trkpt lat="43.24125" lon="5.6445">
        <ele>502</ele>
        <time>2020-09-16T09:09:25Z</time>
      </trkpt>
      <trkpt lat="43.24129" lon="5.64454">
        <ele>502</ele>
        <time>2020-09-16T09:09:33Z</time>
      </trkpt>
      <trkpt lat="43.24134" lon="5.64459">
        <ele>502</ele>
        <time>2020-09-16T09:09:43Z</time>
      </trkpt>
      <trkpt lat="43.24138" lon="5.64462">
        <ele>503</ele>
        <time>2020-09-16T09:09:51Z</time>
      </trkpt>
      <trkpt lat="43.24142" lon="5.64466">
        <ele>503</ele>
        <time>2020-09-16T09:09:57Z</time>
      </trkpt>
      <trkpt lat="43.24147" lon="5.64471">
        <ele>504</ele>
        <time>2020-09-16T09:10:07Z</time>
      </trkpt>
      <trkpt lat="43.24151" lon="5.64475">
        <ele>505</ele>
        <time>2020-09-16T09:10:15Z</time>
      </trkpt>
      <trkpt lat="43.24155" lon="5.64478">
        <ele>506</ele>
        <time>2020-09-16T09:10:21Z</time>
      </trkpt>
      <trkpt lat="43.2416" lon="5.64481">
        <ele>507</ele>
        <time>2020-09-16T09:10:29Z</time>
      </trkpt>
      <trkpt lat="43.24164" lon="5.64486">
        <ele>508</ele>
        <time>2020-09-16T09:10:37Z</time>
      </trkpt>
      <trkpt lat="43.24168" lon="5.64489">
        <ele>510</ele>
        <time>2020-09-16T09:10:43Z</time>
      </trkpt>
      <trkpt lat="43.24173" lon="5.64491">
        <ele>510</ele>
        <time>2020-09-16T09:10:49Z</time>
      </trkpt>
      <trkpt lat="43.24178" lon="5.64496">
        <ele>510</ele>
        <time>2020-09-16T09:10:57Z</time>
      </trkpt>
      <trkpt lat="43.24183" lon="5.64501">
        <ele>516</ele>
        <time>2020-09-16T09:11:05Z</time>
      </trkpt>
      <trkpt lat="43.24186" lon="5.64506">
        <ele>517</ele>
        <time>2020-09-16T09:11:15Z</time>
      </trkpt>
      <trkpt lat="43.24189" lon="5.64511">
        <ele>517</ele>
        <time>2020-09-16T09:11:23Z</time>
      </trkpt>
      <trkpt lat="43.24193" lon="5.64517">
        <ele>518</ele>
        <time>2020-09-16T09:11:35Z</time>
      </trkpt>
      <trkpt lat="43.24197" lon="5.6452">
        <ele>518</ele>
        <time>2020-09-16T09:11:41Z</time>
      </trkpt>
      <trkpt lat="43.24202" lon="5.64524">
        <ele>519</ele>
        <time>2020-09-16T09:11:47Z</time>
      </trkpt>
      <trkpt lat="43.24206" lon="5.64528">
        <ele>519</ele>
        <time>2020-09-16T09:11:55Z</time>
      </trkpt>
      <trkpt lat="43.24211" lon="5.64533">
        <ele>520</ele>
        <time>2020-09-16T09:12:03Z</time>
      </trkpt>
      <trkpt lat="43.24215" lon="5.64537">
        <ele>520</ele>
        <time>2020-09-16T09:12:13Z</time>
      </trkpt>
      <trkpt lat="43.24218" lon="5.64541">
        <ele>521</ele>
        <time>2020-09-16T09:12:21Z</time>
      </trkpt>
      <trkpt lat="43.24223" lon="5.64546">
        <ele>521</ele>
        <time>2020-09-16T09:12:31Z</time>
      </trkpt>
      <trkpt lat="43.24227" lon="5.64549">
        <ele>522</ele>
        <time>2020-09-16T09:12:39Z</time>
      </trkpt>
      <trkpt lat="43.24231" lon="5.64555">
        <ele>523</ele>
        <time>2020-09-16T09:12:47Z</time>
      </trkpt>
      <trkpt lat="43.24235" lon="5.6456">
        <ele>524</ele>
        <time>2020-09-16T09:12:55Z</time>
      </trkpt>
      <trkpt lat="43.24239" lon="5.64567">
        <ele>525</ele>
        <time>2020-09-16T09:13:05Z</time>
      </trkpt>
      <trkpt lat="43.24242" lon="5.64571">
        <ele>527</ele>
        <time>2020-09-16T09:13:13Z</time>
      </trkpt>
      <trkpt lat="43.24247" lon="5.64575">
        <ele>528</ele>
        <time>2020-09-16T09:13:21Z</time>
      </trkpt>
      <trkpt lat="43.24251" lon="5.64579">
        <ele>530</ele>
        <time>2020-09-16T09:13:29Z</time>
      </trkpt>
      <trkpt lat="43.24255" lon="5.64582">
        <ele>530</ele>
        <time>2020-09-16T09:13:37Z</time>
      </trkpt>
      <trkpt lat="43.2426" lon="5.64586">
        <ele>534</ele>
        <time>2020-09-16T09:13:47Z</time>
      </trkpt>
      <trkpt lat="43.24264" lon="5.64591">
        <ele>534</ele>
        <time>2020-09-16T09:13:55Z</time>
      </trkpt>
      <trkpt lat="43.24268" lon="5.64595">
        <ele>535</ele>
        <time>2020-09-16T09:14:03Z</time>
      </trkpt>
      <trkpt lat="43.24273" lon="5.64598">
        <ele>535</ele>
        <time>2020-09-16T09:14:11Z</time>
      </trkpt>
      <trkpt lat="43.24277" lon="5.64602">
        <ele>536</ele>
        <time>2020-09-16T09:14:19Z</time>
      </trkpt>
      <trkpt lat="43.24282" lon="5.64605">
        <ele>536</ele>
        <time>2020-09-16T09:14:29Z</time>
      </trkpt>
      <trkpt lat="43.24286" lon="5.64609">
        <ele>536</ele>
        <time>2020-09-16T09:14:37Z</time>
      </trkpt>
      <trkpt lat="43.2429" lon="5.64613">
        <ele>536</ele>
        <time>2020-09-16T09:14:43Z</time>
      </trkpt>
      <trkpt lat="43.24294" lon="5.64618">
        <ele>537</ele>
        <time>2020-09-16T09:14:51Z</time>
      </trkpt>
      <trkpt lat="43.24298" lon="5.64624">
        <ele>537</ele>
        <time>2020-09-16T09:14:59Z</time>
      </trkpt>
      <trkpt lat="43.24302" lon="5.64628">
        <ele>538</ele>
        <time>2020-09-16T09:15:07Z</time>
      </trkpt>
      <trkpt lat="43.24305" lon="5.64633">
        <ele>538</ele>
        <time>2020-09-16T09:15:15Z</time>
      </trkpt>
      <trkpt lat="43.24309" lon="5.64636">
        <ele>539</ele>
        <time>2020-09-16T09:15:21Z</time>
      </trkpt>
      <trkpt lat="43.24313" lon="5.6464">
        <ele>539</ele>
        <time>2020-09-16T09:15:27Z</time>
      </trkpt>
      <trkpt lat="43.24317" lon="5.64644">
        <ele>540</ele>
        <time>2020-09-16T09:15:33Z</time>
      </trkpt>
      <trkpt lat="43.24321" lon="5.64648">
        <ele>541</ele>
        <time>2020-09-16T09:15:39Z</time>
      </trkpt>
      <trkpt lat="43.24325" lon="5.64652">
        <ele>542</ele>
        <time>2020-09-16T09:15:45Z</time>
      </trkpt>
      <trkpt lat="43.2433" lon="5.64656">
        <ele>543</ele>
        <time>2020-09-16T09:15:51Z</time>
      </trkpt>
      <trkpt lat="43.24333" lon="5.6466">
        <ele>544</ele>
        <time>2020-09-16T09:15:57Z</time>
      </trkpt>
      <trkpt lat="43.24338" lon="5.64665">
        <ele>544</ele>
        <time>2020-09-16T09:16:05Z</time>
      </trkpt>
      <trkpt lat="43.24342" lon="5.64669">
        <ele>546</ele>
        <time>2020-09-16T09:16:13Z</time>
      </trkpt>
      <trkpt lat="43.24346" lon="5.64674">
        <ele>546</ele>
        <time>2020-09-16T09:16:21Z</time>
      </trkpt>
      <trkpt lat="43.2435" lon="5.64673">
        <ele>546</ele>
        <time>2020-09-16T09:21:55Z</time>
      </trkpt>
      <trkpt lat="43.24355" lon="5.64676">
        <ele>546</ele>
        <time>2020-09-16T09:23:03Z</time>
      </trkpt>
      <trkpt lat="43.2436" lon="5.6468">
        <ele>546</ele>
        <time>2020-09-16T09:23:09Z</time>
      </trkpt>
      <trkpt lat="43.24365" lon="5.64683">
        <ele>546</ele>
        <time>2020-09-16T09:23:15Z</time>
      </trkpt>
      <trkpt lat="43.24371" lon="5.64686">
        <ele>546</ele>
        <time>2020-09-16T09:23:21Z</time>
      </trkpt>
      <trkpt lat="43.24376" lon="5.64689">
        <ele>546</ele>
        <time>2020-09-16T09:23:27Z</time>
      </trkpt>
      <trkpt lat="43.2438" lon="5.64692">
        <ele>546</ele>
        <time>2020-09-16T09:23:31Z</time>
      </trkpt>
      <trkpt lat="43.24385" lon="5.64695">
        <ele>546</ele>
        <time>2020-09-16T09:23:35Z</time>
      </trkpt>
      <trkpt lat="43.2439" lon="5.64698">
        <ele>546</ele>
        <time>2020-09-16T09:23:41Z</time>
      </trkpt>
      <trkpt lat="43.24394" lon="5.64701">
        <ele>546</ele>
        <time>2020-09-16T09:23:45Z</time>
      </trkpt>
      <trkpt lat="43.24398" lon="5.64703">
        <ele>546</ele>
        <time>2020-09-16T09:23:49Z</time>
      </trkpt>
      <trkpt lat="43.24404" lon="5.64707">
        <ele>546</ele>
        <time>2020-09-16T09:23:55Z</time>
      </trkpt>
      <trkpt lat="43.24409" lon="5.64709">
        <ele>546</ele>
        <time>2020-09-16T09:23:59Z</time>
      </trkpt>
      <trkpt lat="43.24414" lon="5.64712">
        <ele>546</ele>
        <time>2020-09-16T09:24:05Z</time>
      </trkpt>
      <trkpt lat="43.24419" lon="5.64714">
        <ele>547</ele>
        <time>2020-09-16T09:24:11Z</time>
      </trkpt>
      <trkpt lat="43.24424" lon="5.64716">
        <ele>548</ele>
        <time>2020-09-16T09:24:17Z</time>
      </trkpt>
      <trkpt lat="43.2443" lon="5.64718">
        <ele>548</ele>
        <time>2020-09-16T09:24:23Z</time>
      </trkpt>
      <trkpt lat="43.24436" lon="5.64722">
        <ele>548</ele>
        <time>2020-09-16T09:24:29Z</time>
      </trkpt>
      <trkpt lat="43.2444" lon="5.64725">
        <ele>548</ele>
        <time>2020-09-16T09:24:35Z</time>
      </trkpt>
      <trkpt lat="43.24445" lon="5.64728">
        <ele>548</ele>
        <time>2020-09-16T09:24:41Z</time>
      </trkpt>
      <trkpt lat="43.2445" lon="5.64731">
        <ele>548</ele>
        <time>2020-09-16T09:24:47Z</time>
      </trkpt>
      <trkpt lat="43.24456" lon="5.64735">
        <ele>549</ele>
        <time>2020-09-16T09:24:53Z</time>
      </trkpt>
      <trkpt lat="43.24462" lon="5.64738">
        <ele>549</ele>
        <time>2020-09-16T09:25:01Z</time>
      </trkpt>
      <trkpt lat="43.24467" lon="5.64743">
        <ele>549</ele>
        <time>2020-09-16T09:25:07Z</time>
      </trkpt>
      <trkpt lat="43.24471" lon="5.64746">
        <ele>550</ele>
        <time>2020-09-16T09:25:11Z</time>
      </trkpt>
      <trkpt lat="43.24475" lon="5.6475">
        <ele>550</ele>
        <time>2020-09-16T09:25:15Z</time>
      </trkpt>
      <trkpt lat="43.24478" lon="5.64755">
        <ele>553</ele>
        <time>2020-09-16T09:25:19Z</time>
      </trkpt>
      <trkpt lat="43.24482" lon="5.64761">
        <ele>553</ele>
        <time>2020-09-16T09:25:25Z</time>
      </trkpt>
      <trkpt lat="43.24485" lon="5.64766">
        <ele>553</ele>
        <time>2020-09-16T09:25:31Z</time>
      </trkpt>
      <trkpt lat="43.24489" lon="5.64773">
        <ele>553</ele>
        <time>2020-09-16T09:25:37Z</time>
      </trkpt>
      <trkpt lat="43.2449" lon="5.64781">
        <ele>553</ele>
        <time>2020-09-16T09:25:43Z</time>
      </trkpt>
      <trkpt lat="43.24491" lon="5.64789">
        <ele>553</ele>
        <time>2020-09-16T09:25:49Z</time>
      </trkpt>
      <trkpt lat="43.24493" lon="5.64797">
        <ele>554</ele>
        <time>2020-09-16T09:25:55Z</time>
      </trkpt>
      <trkpt lat="43.24494" lon="5.64804">
        <ele>554</ele>
        <time>2020-09-16T09:26:01Z</time>
      </trkpt>
      <trkpt lat="43.24495" lon="5.64811">
        <ele>555</ele>
        <time>2020-09-16T09:26:07Z</time>
      </trkpt>
      <trkpt lat="43.24496" lon="5.64819">
        <ele>555</ele>
        <time>2020-09-16T09:26:13Z</time>
      </trkpt>
      <trkpt lat="43.24499" lon="5.64827">
        <ele>557</ele>
        <time>2020-09-16T09:26:19Z</time>
      </trkpt>
      <trkpt lat="43.24502" lon="5.64834">
        <ele>557</ele>
        <time>2020-09-16T09:26:25Z</time>
      </trkpt>
      <trkpt lat="43.24504" lon="5.6484">
        <ele>555</ele>
        <time>2020-09-16T09:26:31Z</time>
      </trkpt>
      <trkpt lat="43.24507" lon="5.64846">
        <ele>554</ele>
        <time>2020-09-16T09:26:37Z</time>
      </trkpt>
      <trkpt lat="43.2451" lon="5.64853">
        <ele>553</ele>
        <time>2020-09-16T09:26:43Z</time>
      </trkpt>
      <trkpt lat="43.24511" lon="5.64862">
        <ele>552</ele>
        <time>2020-09-16T09:26:49Z</time>
      </trkpt>
      <trkpt lat="43.24513" lon="5.64869">
        <ele>552</ele>
        <time>2020-09-16T09:26:55Z</time>
      </trkpt>
      <trkpt lat="43.24515" lon="5.64876">
        <ele>552</ele>
        <time>2020-09-16T09:27:01Z</time>
      </trkpt>
      <trkpt lat="43.24518" lon="5.64884">
        <ele>552</ele>
        <time>2020-09-16T09:27:07Z</time>
      </trkpt>
      <trkpt lat="43.2452" lon="5.64891">
        <ele>552</ele>
        <time>2020-09-16T09:27:13Z</time>
      </trkpt>
      <trkpt lat="43.24522" lon="5.64898">
        <ele>552</ele>
        <time>2020-09-16T09:27:19Z</time>
      </trkpt>
      <trkpt lat="43.24523" lon="5.64905">
        <ele>552</ele>
        <time>2020-09-16T09:27:25Z</time>
      </trkpt>
      <trkpt lat="43.24525" lon="5.64912">
        <ele>552</ele>
        <time>2020-09-16T09:27:31Z</time>
      </trkpt>
      <trkpt lat="43.24526" lon="5.64919">
        <ele>553</ele>
        <time>2020-09-16T09:27:37Z</time>
      </trkpt>
      <trkpt lat="43.24526" lon="5.64926">
        <ele>553</ele>
        <time>2020-09-16T09:27:43Z</time>
      </trkpt>
      <trkpt lat="43.24527" lon="5.64932">
        <ele>552</ele>
        <time>2020-09-16T09:27:49Z</time>
      </trkpt>
      <trkpt lat="43.24528" lon="5.6494">
        <ele>552</ele>
        <time>2020-09-16T09:27:57Z</time>
      </trkpt>
      <trkpt lat="43.24529" lon="5.64948">
        <ele>552</ele>
        <time>2020-09-16T09:28:05Z</time>
      </trkpt>
      <trkpt lat="43.24528" lon="5.64954">
        <ele>551</ele>
        <time>2020-09-16T09:28:11Z</time>
      </trkpt>
      <trkpt lat="43.24527" lon="5.64961">
        <ele>551</ele>
        <time>2020-09-16T09:28:17Z</time>
      </trkpt>
      <trkpt lat="43.24526" lon="5.64968">
        <ele>551</ele>
        <time>2020-09-16T09:28:25Z</time>
      </trkpt>
      <trkpt lat="43.24529" lon="5.64973">
        <ele>551</ele>
        <time>2020-09-16T09:29:23Z</time>
      </trkpt>
      <trkpt lat="43.24532" lon="5.64968">
        <ele>551</ele>
        <time>2020-09-16T09:30:03Z</time>
      </trkpt>
      <trkpt lat="43.24535" lon="5.64961">
        <ele>551</ele>
        <time>2020-09-16T09:30:11Z</time>
      </trkpt>
      <trkpt lat="43.24538" lon="5.64953">
        <ele>551</ele>
        <time>2020-09-16T09:30:21Z</time>
      </trkpt>
      <trkpt lat="43.24543" lon="5.64948">
        <ele>551</ele>
        <time>2020-09-16T09:30:27Z</time>
      </trkpt>
      <trkpt lat="43.24548" lon="5.64945">
        <ele>550</ele>
        <time>2020-09-16T09:30:35Z</time>
      </trkpt>
      <trkpt lat="43.24552" lon="5.64946">
        <ele>550</ele>
        <time>2020-09-16T09:30:49Z</time>
      </trkpt>
      <trkpt lat="43.24555" lon="5.64952">
        <ele>550</ele>
        <time>2020-09-16T09:30:57Z</time>
      </trkpt>
      <trkpt lat="43.24558" lon="5.64958">
        <ele>550</ele>
        <time>2020-09-16T09:31:03Z</time>
      </trkpt>
      <trkpt lat="43.2456" lon="5.64963">
        <ele>549</ele>
        <time>2020-09-16T09:31:09Z</time>
      </trkpt>
      <trkpt lat="43.24563" lon="5.6497">
        <ele>549</ele>
        <time>2020-09-16T09:31:17Z</time>
      </trkpt>
      <trkpt lat="43.24566" lon="5.64976">
        <ele>549</ele>
        <time>2020-09-16T09:31:23Z</time>
      </trkpt>
      <trkpt lat="43.24567" lon="5.64983">
        <ele>549</ele>
        <time>2020-09-16T09:31:29Z</time>
      </trkpt>
      <trkpt lat="43.2457" lon="5.64988">
        <ele>548</ele>
        <time>2020-09-16T09:31:35Z</time>
      </trkpt>
      <trkpt lat="43.24575" lon="5.64992">
        <ele>548</ele>
        <time>2020-09-16T09:31:43Z</time>
      </trkpt>
      <trkpt lat="43.2458" lon="5.64994">
        <ele>547</ele>
        <time>2020-09-16T09:31:51Z</time>
      </trkpt>
      <trkpt lat="43.24586" lon="5.64995">
        <ele>542</ele>
        <time>2020-09-16T09:31:57Z</time>
      </trkpt>
      <trkpt lat="43.2459" lon="5.64997">
        <ele>541</ele>
        <time>2020-09-16T09:32:03Z</time>
      </trkpt>
      <trkpt lat="43.24595" lon="5.65003">
        <ele>539</ele>
        <time>2020-09-16T09:32:11Z</time>
      </trkpt>
      <trkpt lat="43.24599" lon="5.65008">
        <ele>537</ele>
        <time>2020-09-16T09:32:17Z</time>
      </trkpt>
      <trkpt lat="43.24602" lon="5.65015">
        <ele>535</ele>
        <time>2020-09-16T09:32:23Z</time>
      </trkpt>
      <trkpt lat="43.24605" lon="5.65021">
        <ele>533</ele>
        <time>2020-09-16T09:32:29Z</time>
      </trkpt>
      <trkpt lat="43.24609" lon="5.65027">
        <ele>532</ele>
        <time>2020-09-16T09:32:35Z</time>
      </trkpt>
      <trkpt lat="43.24613" lon="5.65033">
        <ele>531</ele>
        <time>2020-09-16T09:32:41Z</time>
      </trkpt>
      <trkpt lat="43.24616" lon="5.65037">
        <ele>530</ele>
        <time>2020-09-16T09:32:47Z</time>
      </trkpt>
      <trkpt lat="43.2462" lon="5.65042">
        <ele>529</ele>
        <time>2020-09-16T09:32:53Z</time>
      </trkpt>
      <trkpt lat="43.24624" lon="5.65046">
        <ele>529</ele>
        <time>2020-09-16T09:32:59Z</time>
      </trkpt>
      <trkpt lat="43.24629" lon="5.65049">
        <ele>528</ele>
        <time>2020-09-16T09:33:05Z</time>
      </trkpt>
      <trkpt lat="43.24633" lon="5.65053">
        <ele>528</ele>
        <time>2020-09-16T09:33:13Z</time>
      </trkpt>
      <trkpt lat="43.24637" lon="5.65056">
        <ele>527</ele>
        <time>2020-09-16T09:33:35Z</time>
      </trkpt>
      <trkpt lat="43.24639" lon="5.65063">
        <ele>527</ele>
        <time>2020-09-16T09:33:43Z</time>
      </trkpt>
      <trkpt lat="43.24643" lon="5.6507">
        <ele>527</ele>
        <time>2020-09-16T09:33:51Z</time>
      </trkpt>
      <trkpt lat="43.24647" lon="5.65075">
        <ele>526</ele>
        <time>2020-09-16T09:33:57Z</time>
      </trkpt>
      <trkpt lat="43.24649" lon="5.65081">
        <ele>526</ele>
        <time>2020-09-16T09:34:03Z</time>
      </trkpt>
      <trkpt lat="43.24649" lon="5.65087">
        <ele>522</ele>
        <time>2020-09-16T09:34:09Z</time>
      </trkpt>
      <trkpt lat="43.24649" lon="5.65094">
        <ele>521</ele>
        <time>2020-09-16T09:34:15Z</time>
      </trkpt>
      <trkpt lat="43.2465" lon="5.65101">
        <ele>521</ele>
        <time>2020-09-16T09:34:21Z</time>
      </trkpt>
      <trkpt lat="43.24652" lon="5.65109">
        <ele>520</ele>
        <time>2020-09-16T09:34:27Z</time>
      </trkpt>
      <trkpt lat="43.24655" lon="5.65115">
        <ele>520</ele>
        <time>2020-09-16T09:34:33Z</time>
      </trkpt>
      <trkpt lat="43.24658" lon="5.65122">
        <ele>519</ele>
        <time>2020-09-16T09:34:39Z</time>
      </trkpt>
      <trkpt lat="43.24662" lon="5.65128">
        <ele>519</ele>
        <time>2020-09-16T09:34:45Z</time>
      </trkpt>
      <trkpt lat="43.24665" lon="5.65135">
        <ele>518</ele>
        <time>2020-09-16T09:34:51Z</time>
      </trkpt>
      <trkpt lat="43.24667" lon="5.65141">
        <ele>513</ele>
        <time>2020-09-16T09:34:57Z</time>
      </trkpt>
      <trkpt lat="43.24667" lon="5.65147">
        <ele>513</ele>
        <time>2020-09-16T09:35:03Z</time>
      </trkpt>
      <trkpt lat="43.24667" lon="5.65155">
        <ele>514</ele>
        <time>2020-09-16T09:35:09Z</time>
      </trkpt>
      <trkpt lat="43.24669" lon="5.65162">
        <ele>515</ele>
        <time>2020-09-16T09:35:15Z</time>
      </trkpt>
      <trkpt lat="43.24674" lon="5.65167">
        <ele>513</ele>
        <time>2020-09-16T09:35:21Z</time>
      </trkpt>
      <trkpt lat="43.24677" lon="5.65171">
        <ele>511</ele>
        <time>2020-09-16T09:35:27Z</time>
      </trkpt>
      <trkpt lat="43.24681" lon="5.65174">
        <ele>510</ele>
        <time>2020-09-16T09:35:33Z</time>
      </trkpt>
      <trkpt lat="43.24685" lon="5.65178">
        <ele>508</ele>
        <time>2020-09-16T09:35:39Z</time>
      </trkpt>
      <trkpt lat="43.24688" lon="5.65183">
        <ele>507</ele>
        <time>2020-09-16T09:35:47Z</time>
      </trkpt>
      <trkpt lat="43.24691" lon="5.65188">
        <ele>506</ele>
        <time>2020-09-16T09:35:53Z</time>
      </trkpt>
      <trkpt lat="43.24694" lon="5.65194">
        <ele>505</ele>
        <time>2020-09-16T09:36:01Z</time>
      </trkpt>
      <trkpt lat="43.24699" lon="5.65194">
        <ele>505</ele>
        <time>2020-09-16T09:36:15Z</time>
      </trkpt>
      <trkpt lat="43.24704" lon="5.65199">
        <ele>504</ele>
        <time>2020-09-16T09:36:27Z</time>
      </trkpt>
      <trkpt lat="43.24709" lon="5.65203">
        <ele>503</ele>
        <time>2020-09-16T09:36:37Z</time>
      </trkpt>
      <trkpt lat="43.24713" lon="5.65207">
        <ele>503</ele>
        <time>2020-09-16T09:36:47Z</time>
      </trkpt>
      <trkpt lat="43.24716" lon="5.65212">
        <ele>502</ele>
        <time>2020-09-16T09:36:57Z</time>
      </trkpt>
      <trkpt lat="43.24719" lon="5.65219">
        <ele>502</ele>
        <time>2020-09-16T09:37:07Z</time>
      </trkpt>
      <trkpt lat="43.24722" lon="5.65225">
        <ele>501</ele>
        <time>2020-09-16T09:37:17Z</time>
      </trkpt>
      <trkpt lat="43.24726" lon="5.6523">
        <ele>501</ele>
        <time>2020-09-16T09:37:25Z</time>
      </trkpt>
      <trkpt lat="43.24728" lon="5.65236">
        <ele>501</ele>
        <time>2020-09-16T09:37:31Z</time>
      </trkpt>
      <trkpt lat="43.24728" lon="5.65243">
        <ele>500</ele>
        <time>2020-09-16T09:37:37Z</time>
      </trkpt>
      <trkpt lat="43.2473" lon="5.65249">
        <ele>500</ele>
        <time>2020-09-16T09:37:43Z</time>
      </trkpt>
      <trkpt lat="43.24734" lon="5.65253">
        <ele>494</ele>
        <time>2020-09-16T09:37:51Z</time>
      </trkpt>
      <trkpt lat="43.24738" lon="5.65258">
        <ele>494</ele>
        <time>2020-09-16T09:37:57Z</time>
      </trkpt>
      <trkpt lat="43.24741" lon="5.65263">
        <ele>494</ele>
        <time>2020-09-16T09:38:17Z</time>
      </trkpt>
      <trkpt lat="43.24743" lon="5.65269">
        <ele>493</ele>
        <time>2020-09-16T09:38:27Z</time>
      </trkpt>
      <trkpt lat="43.24747" lon="5.65273">
        <ele>492</ele>
        <time>2020-09-16T09:38:33Z</time>
      </trkpt>
      <trkpt lat="43.24751" lon="5.65277">
        <ele>488</ele>
        <time>2020-09-16T09:38:39Z</time>
      </trkpt>
      <trkpt lat="43.24756" lon="5.65278">
        <ele>487</ele>
        <time>2020-09-16T09:38:45Z</time>
      </trkpt>
      <trkpt lat="43.24761" lon="5.65277">
        <ele>487</ele>
        <time>2020-09-16T09:38:53Z</time>
      </trkpt>
      <trkpt lat="43.24766" lon="5.65278">
        <ele>486</ele>
        <time>2020-09-16T09:39:03Z</time>
      </trkpt>
      <trkpt lat="43.2477" lon="5.65276">
        <ele>486</ele>
        <time>2020-09-16T09:39:13Z</time>
      </trkpt>
      <trkpt lat="43.24775" lon="5.65275">
        <ele>485</ele>
        <time>2020-09-16T09:39:21Z</time>
      </trkpt>
      <trkpt lat="43.2478" lon="5.65277">
        <ele>484</ele>
        <time>2020-09-16T09:39:29Z</time>
      </trkpt>
      <trkpt lat="43.24785" lon="5.65278">
        <ele>483</ele>
        <time>2020-09-16T09:39:37Z</time>
      </trkpt>
      <trkpt lat="43.24789" lon="5.65283">
        <ele>483</ele>
        <time>2020-09-16T09:39:47Z</time>
      </trkpt>
      <trkpt lat="43.24791" lon="5.65288">
        <ele>482</ele>
        <time>2020-09-16T09:39:55Z</time>
      </trkpt>
      <trkpt lat="43.24796" lon="5.65293">
        <ele>481</ele>
        <time>2020-09-16T09:40:03Z</time>
      </trkpt>
      <trkpt lat="43.24799" lon="5.653">
        <ele>481</ele>
        <time>2020-09-16T09:40:09Z</time>
      </trkpt>
      <trkpt lat="43.24802" lon="5.65304">
        <ele>480</ele>
        <time>2020-09-16T09:40:15Z</time>
      </trkpt>
      <trkpt lat="43.24806" lon="5.65308">
        <ele>480</ele>
        <time>2020-09-16T09:40:21Z</time>
      </trkpt>
      <trkpt lat="43.2481" lon="5.65312">
        <ele>479</ele>
        <time>2020-09-16T09:40:27Z</time>
      </trkpt>
      <trkpt lat="43.24813" lon="5.65319">
        <ele>478</ele>
        <time>2020-09-16T09:40:35Z</time>
      </trkpt>
      <trkpt lat="43.24813" lon="5.65326">
        <ele>478</ele>
        <time>2020-09-16T09:40:43Z</time>
      </trkpt>
      <trkpt lat="43.24813" lon="5.65332">
        <ele>478</ele>
        <time>2020-09-16T09:40:49Z</time>
      </trkpt>
      <trkpt lat="43.24812" lon="5.6534">
        <ele>474</ele>
        <time>2020-09-16T09:40:55Z</time>
      </trkpt>
      <trkpt lat="43.24811" lon="5.65347">
        <ele>474</ele>
        <time>2020-09-16T09:41:01Z</time>
      </trkpt>
      <trkpt lat="43.2481" lon="5.65355">
        <ele>474</ele>
        <time>2020-09-16T09:41:09Z</time>
      </trkpt>
      <trkpt lat="43.2481" lon="5.65362">
        <ele>474</ele>
        <time>2020-09-16T09:41:13Z</time>
      </trkpt>
      <trkpt lat="43.24808" lon="5.65371">
        <ele>474</ele>
        <time>2020-09-16T09:41:19Z</time>
      </trkpt>
      <trkpt lat="43.24808" lon="5.6538">
        <ele>474</ele>
        <time>2020-09-16T09:41:25Z</time>
      </trkpt>
      <trkpt lat="43.24809" lon="5.65387">
        <ele>474</ele>
        <time>2020-09-16T09:41:31Z</time>
      </trkpt>
      <trkpt lat="43.2481" lon="5.65394">
        <ele>473</ele>
        <time>2020-09-16T09:41:37Z</time>
      </trkpt>
      <trkpt lat="43.24815" lon="5.65399">
        <ele>473</ele>
        <time>2020-09-16T09:42:17Z</time>
      </trkpt>
      <trkpt lat="43.24818" lon="5.65405">
        <ele>473</ele>
        <time>2020-09-16T09:42:35Z</time>
      </trkpt>
      <trkpt lat="43.24821" lon="5.65411">
        <ele>473</ele>
        <time>2020-09-16T09:42:55Z</time>
      </trkpt>
      <trkpt lat="43.24825" lon="5.65416">
        <ele>473</ele>
        <time>2020-09-16T09:43:01Z</time>
      </trkpt>
      <trkpt lat="43.2483" lon="5.65421">
        <ele>472</ele>
        <time>2020-09-16T09:43:07Z</time>
      </trkpt>
      <trkpt lat="43.24834" lon="5.65424">
        <ele>472</ele>
        <time>2020-09-16T09:44:29Z</time>
      </trkpt>
      <trkpt lat="43.24836" lon="5.6543">
        <ele>472</ele>
        <time>2020-09-16T09:44:47Z</time>
      </trkpt>
      <trkpt lat="43.24841" lon="5.65432">
        <ele>472</ele>
        <time>2020-09-16T09:46:19Z</time>
      </trkpt>
      <trkpt lat="43.24845" lon="5.65436">
        <ele>471</ele>
        <time>2020-09-16T09:46:25Z</time>
      </trkpt>
      <trkpt lat="43.24849" lon="5.65443">
        <ele>471</ele>
        <time>2020-09-16T09:46:31Z</time>
      </trkpt>
      <trkpt lat="43.24851" lon="5.65452">
        <ele>471</ele>
        <time>2020-09-16T09:46:37Z</time>
      </trkpt>
      <trkpt lat="43.24853" lon="5.6546">
        <ele>471</ele>
        <time>2020-09-16T09:46:43Z</time>
      </trkpt>
      <trkpt lat="43.24855" lon="5.65468">
        <ele>471</ele>
        <time>2020-09-16T09:46:49Z</time>
      </trkpt>
      <trkpt lat="43.24856" lon="5.65476">
        <ele>471</ele>
        <time>2020-09-16T09:46:55Z</time>
      </trkpt>
      <trkpt lat="43.24858" lon="5.65483">
        <ele>471</ele>
        <time>2020-09-16T09:47:01Z</time>
      </trkpt>
      <trkpt lat="43.24855" lon="5.6549">
        <ele>472</ele>
        <time>2020-09-16T09:47:09Z</time>
      </trkpt>
      <trkpt lat="43.24851" lon="5.65494">
        <ele>472</ele>
        <time>2020-09-16T09:47:17Z</time>
      </trkpt>
      <trkpt lat="43.24849" lon="5.655">
        <ele>472</ele>
        <time>2020-09-16T09:47:27Z</time>
      </trkpt>
      <trkpt lat="43.24846" lon="5.65507">
        <ele>472</ele>
        <time>2020-09-16T09:47:33Z</time>
      </trkpt>
      <trkpt lat="43.24844" lon="5.65515">
        <ele>472</ele>
        <time>2020-09-16T09:47:39Z</time>
      </trkpt>
      <trkpt lat="43.24842" lon="5.65522">
        <ele>472</ele>
        <time>2020-09-16T09:47:45Z</time>
      </trkpt>
      <trkpt lat="43.24841" lon="5.65529">
        <ele>472</ele>
        <time>2020-09-16T09:47:51Z</time>
      </trkpt>
      <trkpt lat="43.2484" lon="5.65535">
        <ele>471</ele>
        <time>2020-09-16T09:47:55Z</time>
      </trkpt>
      <trkpt lat="43.24837" lon="5.65542">
        <ele>471</ele>
        <time>2020-09-16T09:48:01Z</time>
      </trkpt>
      <trkpt lat="43.24834" lon="5.65548">
        <ele>471</ele>
        <time>2020-09-16T09:48:07Z</time>
      </trkpt>
      <trkpt lat="43.24831" lon="5.65555">
        <ele>463</ele>
        <time>2020-09-16T09:48:13Z</time>
      </trkpt>
      <trkpt lat="43.24828" lon="5.6556">
        <ele>463</ele>
        <time>2020-09-16T09:48:19Z</time>
      </trkpt>
      <trkpt lat="43.24824" lon="5.65566">
        <ele>463</ele>
        <time>2020-09-16T09:48:25Z</time>
      </trkpt>
      <trkpt lat="43.24819" lon="5.6557">
        <ele>463</ele>
        <time>2020-09-16T09:48:31Z</time>
      </trkpt>
      <trkpt lat="43.24814" lon="5.65574">
        <ele>462</ele>
        <time>2020-09-16T09:48:37Z</time>
      </trkpt>
      <trkpt lat="43.2481" lon="5.65578">
        <ele>462</ele>
        <time>2020-09-16T09:48:41Z</time>
      </trkpt>
      <trkpt lat="43.24805" lon="5.65581">
        <ele>461</ele>
        <time>2020-09-16T09:48:47Z</time>
      </trkpt>
      <trkpt lat="43.24802" lon="5.65585">
        <ele>455</ele>
        <time>2020-09-16T09:48:53Z</time>
      </trkpt>
      <trkpt lat="43.24797" lon="5.65588">
        <ele>454</ele>
        <time>2020-09-16T09:48:59Z</time>
      </trkpt>
      <trkpt lat="43.24793" lon="5.65592">
        <ele>453</ele>
        <time>2020-09-16T09:49:05Z</time>
      </trkpt>
      <trkpt lat="43.24789" lon="5.65595">
        <ele>452</ele>
        <time>2020-09-16T09:49:13Z</time>
      </trkpt>
      <trkpt lat="43.24784" lon="5.65599">
        <ele>452</ele>
        <time>2020-09-16T09:49:21Z</time>
      </trkpt>
      <trkpt lat="43.24781" lon="5.65604">
        <ele>451</ele>
        <time>2020-09-16T09:49:27Z</time>
      </trkpt>
      <trkpt lat="43.24777" lon="5.65609">
        <ele>451</ele>
        <time>2020-09-16T09:49:33Z</time>
      </trkpt>
      <trkpt lat="43.24773" lon="5.65613">
        <ele>450</ele>
        <time>2020-09-16T09:49:39Z</time>
      </trkpt>
      <trkpt lat="43.24767" lon="5.65616">
        <ele>450</ele>
        <time>2020-09-16T09:49:47Z</time>
      </trkpt>
      <trkpt lat="43.24762" lon="5.6562">
        <ele>449</ele>
        <time>2020-09-16T09:49:53Z</time>
      </trkpt>
      <trkpt lat="43.24758" lon="5.65625">
        <ele>449</ele>
        <time>2020-09-16T09:49:59Z</time>
      </trkpt>
      <trkpt lat="43.24753" lon="5.65627">
        <ele>449</ele>
        <time>2020-09-16T09:50:07Z</time>
      </trkpt>
      <trkpt lat="43.24749" lon="5.65629">
        <ele>438</ele>
        <time>2020-09-16T09:50:13Z</time>
      </trkpt>
      <trkpt lat="43.24744" lon="5.65633">
        <ele>438</ele>
        <time>2020-09-16T09:50:19Z</time>
      </trkpt>
      <trkpt lat="43.2474" lon="5.65638">
        <ele>438</ele>
        <time>2020-09-16T09:50:25Z</time>
      </trkpt>
      <trkpt lat="43.24737" lon="5.65643">
        <ele>438</ele>
        <time>2020-09-16T09:50:31Z</time>
      </trkpt>
      <trkpt lat="43.24734" lon="5.65649">
        <ele>438</ele>
        <time>2020-09-16T09:50:37Z</time>
      </trkpt>
      <trkpt lat="43.24732" lon="5.65655">
        <ele>438</ele>
        <time>2020-09-16T09:50:43Z</time>
      </trkpt>
      <trkpt lat="43.24729" lon="5.65659">
        <ele>438</ele>
        <time>2020-09-16T09:50:49Z</time>
      </trkpt>
      <trkpt lat="43.24725" lon="5.65665">
        <ele>437</ele>
        <time>2020-09-16T09:50:59Z</time>
      </trkpt>
      <trkpt lat="43.24723" lon="5.65671">
        <ele>434</ele>
        <time>2020-09-16T09:51:05Z</time>
      </trkpt>
      <trkpt lat="43.2472" lon="5.65677">
        <ele>433</ele>
        <time>2020-09-16T09:51:11Z</time>
      </trkpt>
      <trkpt lat="43.24716" lon="5.65682">
        <ele>432</ele>
        <time>2020-09-16T09:51:17Z</time>
      </trkpt>
      <trkpt lat="43.24712" lon="5.65688">
        <ele>432</ele>
        <time>2020-09-16T09:51:23Z</time>
      </trkpt>
      <trkpt lat="43.24708" lon="5.65691">
        <ele>431</ele>
        <time>2020-09-16T09:51:29Z</time>
      </trkpt>
      <trkpt lat="43.24704" lon="5.65696">
        <ele>430</ele>
        <time>2020-09-16T09:51:35Z</time>
      </trkpt>
      <trkpt lat="43.247" lon="5.65699">
        <ele>430</ele>
        <time>2020-09-16T09:51:41Z</time>
      </trkpt>
      <trkpt lat="43.24695" lon="5.65702">
        <ele>430</ele>
        <time>2020-09-16T09:51:47Z</time>
      </trkpt>
      <trkpt lat="43.24691" lon="5.65707">
        <ele>429</ele>
        <time>2020-09-16T09:51:53Z</time>
      </trkpt>
      <trkpt lat="43.24686" lon="5.65712">
        <ele>429</ele>
        <time>2020-09-16T09:51:59Z</time>
      </trkpt>
      <trkpt lat="43.24681" lon="5.65715">
        <ele>429</ele>
        <time>2020-09-16T09:52:07Z</time>
      </trkpt>
      <trkpt lat="43.24679" lon="5.65722">
        <ele>428</ele>
        <time>2020-09-16T09:55:49Z</time>
      </trkpt>
      <trkpt lat="43.24675" lon="5.65726">
        <ele>428</ele>
        <time>2020-09-16T09:55:57Z</time>
      </trkpt>
      <trkpt lat="43.24671" lon="5.6573">
        <ele>427</ele>
        <time>2020-09-16T09:56:03Z</time>
      </trkpt>
      <trkpt lat="43.24666" lon="5.65735">
        <ele>421</ele>
        <time>2020-09-16T09:56:11Z</time>
      </trkpt>
      <trkpt lat="43.24662" lon="5.65739">
        <ele>421</ele>
        <time>2020-09-16T09:56:17Z</time>
      </trkpt>
      <trkpt lat="43.24657" lon="5.65742">
        <ele>421</ele>
        <time>2020-09-16T09:56:23Z</time>
      </trkpt>
      <trkpt lat="43.24652" lon="5.65744">
        <ele>420</ele>
        <time>2020-09-16T09:56:31Z</time>
      </trkpt>
      <trkpt lat="43.2465" lon="5.6575">
        <ele>420</ele>
        <time>2020-09-16T09:56:39Z</time>
      </trkpt>
      <trkpt lat="43.24648" lon="5.65757">
        <ele>416</ele>
        <time>2020-09-16T09:56:47Z</time>
      </trkpt>
      <trkpt lat="43.24646" lon="5.65763">
        <ele>415</ele>
        <time>2020-09-16T09:56:53Z</time>
      </trkpt>
      <trkpt lat="43.24642" lon="5.65768">
        <ele>413</ele>
        <time>2020-09-16T09:57:01Z</time>
      </trkpt>
      <trkpt lat="43.24639" lon="5.65773">
        <ele>412</ele>
        <time>2020-09-16T09:57:11Z</time>
      </trkpt>
      <trkpt lat="43.24636" lon="5.65779">
        <ele>411</ele>
        <time>2020-09-16T09:57:19Z</time>
      </trkpt>
      <trkpt lat="43.24634" lon="5.65785">
        <ele>410</ele>
        <time>2020-09-16T09:57:25Z</time>
      </trkpt>
      <trkpt lat="43.24632" lon="5.65791">
        <ele>409</ele>
        <time>2020-09-16T09:57:31Z</time>
      </trkpt>
      <trkpt lat="43.24629" lon="5.65796">
        <ele>409</ele>
        <time>2020-09-16T09:57:37Z</time>
      </trkpt>
      <trkpt lat="43.24626" lon="5.65801">
        <ele>408</ele>
        <time>2020-09-16T09:57:43Z</time>
      </trkpt>
      <trkpt lat="43.24622" lon="5.65806">
        <ele>408</ele>
        <time>2020-09-16T09:57:51Z</time>
      </trkpt>
      <trkpt lat="43.24619" lon="5.6581">
        <ele>407</ele>
        <time>2020-09-16T09:57:57Z</time>
      </trkpt>
      <trkpt lat="43.24614" lon="5.65815">
        <ele>406</ele>
        <time>2020-09-16T09:58:03Z</time>
      </trkpt>
      <trkpt lat="43.2461" lon="5.65818">
        <ele>406</ele>
        <time>2020-09-16T09:58:09Z</time>
      </trkpt>
      <trkpt lat="43.24606" lon="5.65823">
        <ele>405</ele>
        <time>2020-09-16T09:58:15Z</time>
      </trkpt>
      <trkpt lat="43.24602" lon="5.65827">
        <ele>404</ele>
        <time>2020-09-16T09:58:21Z</time>
      </trkpt>
      <trkpt lat="43.24598" lon="5.65832">
        <ele>403</ele>
        <time>2020-09-16T09:58:27Z</time>
      </trkpt>
      <trkpt lat="43.24595" lon="5.65836">
        <ele>397</ele>
        <time>2020-09-16T09:58:33Z</time>
      </trkpt>
      <trkpt lat="43.24591" lon="5.6584">
        <ele>397</ele>
        <time>2020-09-16T09:58:39Z</time>
      </trkpt>
      <trkpt lat="43.24586" lon="5.65843">
        <ele>397</ele>
        <time>2020-09-16T09:58:45Z</time>
      </trkpt>
      <trkpt lat="43.24581" lon="5.65846">
        <ele>391</ele>
        <time>2020-09-16T09:58:53Z</time>
      </trkpt>
      <trkpt lat="43.24577" lon="5.6585">
        <ele>390</ele>
        <time>2020-09-16T09:58:59Z</time>
      </trkpt>
      <trkpt lat="43.24574" lon="5.65854">
        <ele>388</ele>
        <time>2020-09-16T09:59:07Z</time>
      </trkpt>
      <trkpt lat="43.2457" lon="5.6586">
        <ele>387</ele>
        <time>2020-09-16T09:59:15Z</time>
      </trkpt>
      <trkpt lat="43.24566" lon="5.65865">
        <ele>386</ele>
        <time>2020-09-16T09:59:21Z</time>
      </trkpt>
      <trkpt lat="43.24562" lon="5.6587">
        <ele>385</ele>
        <time>2020-09-16T09:59:27Z</time>
      </trkpt>
      <trkpt lat="43.24558" lon="5.65874">
        <ele>384</ele>
        <time>2020-09-16T09:59:33Z</time>
      </trkpt>
      <trkpt lat="43.24555" lon="5.65878">
        <ele>383</ele>
        <time>2020-09-16T09:59:39Z</time>
      </trkpt>
      <trkpt lat="43.2455" lon="5.65882">
        <ele>383</ele>
        <time>2020-09-16T09:59:45Z</time>
      </trkpt>
      <trkpt lat="43.24546" lon="5.65886">
        <ele>382</ele>
        <time>2020-09-16T09:59:51Z</time>
      </trkpt>
      <trkpt lat="43.24542" lon="5.6589">
        <ele>382</ele>
        <time>2020-09-16T09:59:57Z</time>
      </trkpt>
      <trkpt lat="43.24538" lon="5.65894">
        <ele>381</ele>
        <time>2020-09-16T10:00:03Z</time>
      </trkpt>
      <trkpt lat="43.24533" lon="5.65898">
        <ele>381</ele>
        <time>2020-09-16T10:00:09Z</time>
      </trkpt>
      <trkpt lat="43.24529" lon="5.65904">
        <ele>380</ele>
        <time>2020-09-16T10:00:15Z</time>
      </trkpt>
      <trkpt lat="43.24524" lon="5.65909">
        <ele>379</ele>
        <time>2020-09-16T10:00:21Z</time>
      </trkpt>
      <trkpt lat="43.24519" lon="5.65915">
        <ele>379</ele>
        <time>2020-09-16T10:00:27Z</time>
      </trkpt>
      <trkpt lat="43.24515" lon="5.6592">
        <ele>374</ele>
        <time>2020-09-16T10:00:33Z</time>
      </trkpt>
      <trkpt lat="43.2451" lon="5.65926">
        <ele>374</ele>
        <time>2020-09-16T10:00:39Z</time>
      </trkpt>
      <trkpt lat="43.24506" lon="5.65929">
        <ele>374</ele>
        <time>2020-09-16T10:00:43Z</time>
      </trkpt>
      <trkpt lat="43.24501" lon="5.65933">
        <ele>374</ele>
        <time>2020-09-16T10:00:57Z</time>
      </trkpt>
      <trkpt lat="43.24498" lon="5.65938">
        <ele>370</ele>
        <time>2020-09-16T10:01:03Z</time>
      </trkpt>
      <trkpt lat="43.24493" lon="5.65941">
        <ele>370</ele>
        <time>2020-09-16T10:01:09Z</time>
      </trkpt>
      <trkpt lat="43.24489" lon="5.65946">
        <ele>369</ele>
        <time>2020-09-16T10:01:15Z</time>
      </trkpt>
      <trkpt lat="43.24484" lon="5.65951">
        <ele>368</ele>
        <time>2020-09-16T10:01:21Z</time>
      </trkpt>
      <trkpt lat="43.24479" lon="5.65957">
        <ele>367</ele>
        <time>2020-09-16T10:01:27Z</time>
      </trkpt>
      <trkpt lat="43.24475" lon="5.65962">
        <ele>367</ele>
        <time>2020-09-16T10:01:31Z</time>
      </trkpt>
      <trkpt lat="43.2447" lon="5.65967">
        <ele>366</ele>
        <time>2020-09-16T10:01:37Z</time>
      </trkpt>
      <trkpt lat="43.24464" lon="5.65972">
        <ele>366</ele>
        <time>2020-09-16T10:01:43Z</time>
      </trkpt>
      <trkpt lat="43.2446" lon="5.65975">
        <ele>366</ele>
        <time>2020-09-16T10:01:47Z</time>
      </trkpt>
      <trkpt lat="43.24455" lon="5.65979">
        <ele>365</ele>
        <time>2020-09-16T10:01:53Z</time>
      </trkpt>
      <trkpt lat="43.24449" lon="5.65984">
        <ele>365</ele>
        <time>2020-09-16T10:01:59Z</time>
      </trkpt>
      <trkpt lat="43.24447" lon="5.6599">
        <ele>364</ele>
        <time>2020-09-16T10:02:03Z</time>
      </trkpt>
      <trkpt lat="43.24443" lon="5.65996">
        <ele>364</ele>
        <time>2020-09-16T10:02:11Z</time>
      </trkpt>
      <trkpt lat="43.24438" lon="5.66001">
        <ele>359</ele>
        <time>2020-09-16T10:02:17Z</time>
      </trkpt>
      <trkpt lat="43.24434" lon="5.66007">
        <ele>359</ele>
        <time>2020-09-16T10:02:23Z</time>
      </trkpt>
      <trkpt lat="43.2443" lon="5.66011">
        <ele>359</ele>
        <time>2020-09-16T10:02:29Z</time>
      </trkpt>
      <trkpt lat="43.24425" lon="5.66015">
        <ele>359</ele>
        <time>2020-09-16T10:02:35Z</time>
      </trkpt>
      <trkpt lat="43.24421" lon="5.66019">
        <ele>358</ele>
        <time>2020-09-16T10:02:41Z</time>
      </trkpt>
      <trkpt lat="43.24415" lon="5.66024">
        <ele>357</ele>
        <time>2020-09-16T10:02:47Z</time>
      </trkpt>
      <trkpt lat="43.24411" lon="5.66028">
        <ele>357</ele>
        <time>2020-09-16T10:02:55Z</time>
      </trkpt>
      <trkpt lat="43.24407" lon="5.66031">
        <ele>357</ele>
        <time>2020-09-16T10:03:01Z</time>
      </trkpt>
      <trkpt lat="43.24403" lon="5.66034">
        <ele>357</ele>
        <time>2020-09-16T10:03:05Z</time>
      </trkpt>
      <trkpt lat="43.24399" lon="5.66038">
        <ele>357</ele>
        <time>2020-09-16T10:03:09Z</time>
      </trkpt>
      <trkpt lat="43.24395" lon="5.66046">
        <ele>356</ele>
        <time>2020-09-16T10:03:15Z</time>
      </trkpt>
      <trkpt lat="43.24392" lon="5.66052">
        <ele>356</ele>
        <time>2020-09-16T10:03:19Z</time>
      </trkpt>
      <trkpt lat="43.24389" lon="5.66058">
        <ele>356</ele>
        <time>2020-09-16T10:03:23Z</time>
      </trkpt>
      <trkpt lat="43.24386" lon="5.66062">
        <ele>356</ele>
        <time>2020-09-16T10:03:27Z</time>
      </trkpt>
      <trkpt lat="43.24382" lon="5.66066">
        <ele>356</ele>
        <time>2020-09-16T10:03:31Z</time>
      </trkpt>
      <trkpt lat="43.24376" lon="5.66069">
        <ele>356</ele>
        <time>2020-09-16T10:03:37Z</time>
      </trkpt>
      <trkpt lat="43.24371" lon="5.6607">
        <ele>356</ele>
        <time>2020-09-16T10:03:43Z</time>
      </trkpt>
      <trkpt lat="43.24366" lon="5.66072">
        <ele>356</ele>
        <time>2020-09-16T10:03:49Z</time>
      </trkpt>
      <trkpt lat="43.2436" lon="5.66073">
        <ele>356</ele>
        <time>2020-09-16T10:03:55Z</time>
      </trkpt>
      <trkpt lat="43.24353" lon="5.66073">
        <ele>356</ele>
        <time>2020-09-16T10:04:01Z</time>
      </trkpt>
      <trkpt lat="43.24349" lon="5.66075">
        <ele>356</ele>
        <time>2020-09-16T10:04:05Z</time>
      </trkpt>
      <trkpt lat="43.24344" lon="5.66076">
        <ele>356</ele>
        <time>2020-09-16T10:04:11Z</time>
      </trkpt>
      <trkpt lat="43.2434" lon="5.66079">
        <ele>355</ele>
        <time>2020-09-16T10:04:15Z</time>
      </trkpt>
      <trkpt lat="43.24335" lon="5.66083">
        <ele>355</ele>
        <time>2020-09-16T10:04:19Z</time>
      </trkpt>
      <trkpt lat="43.2433" lon="5.66089">
        <ele>356</ele>
        <time>2020-09-16T10:04:25Z</time>
      </trkpt>
      <trkpt lat="43.24324" lon="5.66088">
        <ele>356</ele>
        <time>2020-09-16T10:04:33Z</time>
      </trkpt>
      <trkpt lat="43.24322" lon="5.66082">
        <ele>356</ele>
        <time>2020-09-16T10:04:37Z</time>
      </trkpt>
      <trkpt lat="43.24318" lon="5.66076">
        <ele>357</ele>
        <time>2020-09-16T10:04:43Z</time>
      </trkpt>
      <trkpt lat="43.24315" lon="5.6607">
        <ele>357</ele>
        <time>2020-09-16T10:04:49Z</time>
      </trkpt>
      <trkpt lat="43.24312" lon="5.66065">
        <ele>357</ele>
        <time>2020-09-16T10:05:15Z</time>
      </trkpt>
      <trkpt lat="43.24313" lon="5.66071">
        <ele>357</ele>
        <time>2020-09-16T10:07:39Z</time>
      </trkpt>
      <trkpt lat="43.24314" lon="5.66065">
        <ele>357</ele>
        <time>2020-09-16T10:09:35Z</time>
      </trkpt>
      <trkpt lat="43.24316" lon="5.66071">
        <ele>357</ele>
        <time>2020-09-16T10:14:13Z</time>
      </trkpt>
      <trkpt lat="43.24314" lon="5.66065">
        <ele>357</ele>
        <time>2020-09-16T10:17:47Z</time>
      </trkpt>
      <trkpt lat="43.24309" lon="5.66066">
        <ele>357</ele>
        <time>2020-09-16T10:18:53Z</time>
      </trkpt>
      <trkpt lat="43.24314" lon="5.66064">
        <ele>357</ele>
        <time>2020-09-16T10:20:37Z</time>
      </trkpt>
      <trkpt lat="43.24315" lon="5.6607">
        <ele>357</ele>
        <time>2020-09-16T10:21:45Z</time>
      </trkpt>
      <trkpt lat="43.24315" lon="5.66077">
        <ele>357</ele>
        <time>2020-09-16T10:24:17Z</time>
      </trkpt>
      <trkpt lat="43.24314" lon="5.66084">
        <ele>357</ele>
        <time>2020-09-16T10:24:25Z</time>
      </trkpt>
      <trkpt lat="43.24313" lon="5.6609">
        <ele>357</ele>
        <time>2020-09-16T10:24:29Z</time>
      </trkpt>
      <trkpt lat="43.24314" lon="5.66098">
        <ele>357</ele>
        <time>2020-09-16T10:24:33Z</time>
      </trkpt>
      <trkpt lat="43.24317" lon="5.66105">
        <ele>357</ele>
        <time>2020-09-16T10:24:39Z</time>
      </trkpt>
      <trkpt lat="43.2432" lon="5.66109">
        <ele>357</ele>
        <time>2020-09-16T10:24:43Z</time>
      </trkpt>
      <trkpt lat="43.24317" lon="5.66117">
        <ele>357</ele>
        <time>2020-09-16T10:24:51Z</time>
      </trkpt>
      <trkpt lat="43.24314" lon="5.66122">
        <ele>358</ele>
        <time>2020-09-16T10:24:55Z</time>
      </trkpt>
      <trkpt lat="43.24314" lon="5.66129">
        <ele>358</ele>
        <time>2020-09-16T10:25:01Z</time>
      </trkpt>
      <trkpt lat="43.24311" lon="5.66136">
        <ele>358</ele>
        <time>2020-09-16T10:25:07Z</time>
      </trkpt>
      <trkpt lat="43.24307" lon="5.6614">
        <ele>358</ele>
        <time>2020-09-16T10:25:13Z</time>
      </trkpt>
      <trkpt lat="43.24303" lon="5.66142">
        <ele>358</ele>
        <time>2020-09-16T10:25:23Z</time>
      </trkpt>
      <trkpt lat="43.24299" lon="5.66139">
        <ele>359</ele>
        <time>2020-09-16T10:25:36Z</time>
      </trkpt>
      <trkpt lat="43.24293" lon="5.66138">
        <ele>359</ele>
        <time>2020-09-16T10:25:40Z</time>
      </trkpt>
      <trkpt lat="43.24289" lon="5.66135">
        <ele>359</ele>
        <time>2020-09-16T10:25:50Z</time>
      </trkpt>
      <trkpt lat="43.24283" lon="5.66131">
        <ele>359</ele>
        <time>2020-09-16T10:25:58Z</time>
      </trkpt>
      <trkpt lat="43.24278" lon="5.6613">
        <ele>360</ele>
        <time>2020-09-16T10:26:06Z</time>
      </trkpt>
      <trkpt lat="43.24278" lon="5.66137">
        <ele>360</ele>
        <time>2020-09-16T10:26:18Z</time>
      </trkpt>
      <trkpt lat="43.2428" lon="5.66143">
        <ele>360</ele>
        <time>2020-09-16T10:26:24Z</time>
      </trkpt>
      <trkpt lat="43.24282" lon="5.66149">
        <ele>360</ele>
        <time>2020-09-16T10:26:30Z</time>
      </trkpt>
      <trkpt lat="43.24285" lon="5.66155">
        <ele>360</ele>
        <time>2020-09-16T10:26:36Z</time>
      </trkpt>
      <trkpt lat="43.24286" lon="5.66161">
        <ele>360</ele>
        <time>2020-09-16T10:26:42Z</time>
      </trkpt>
      <trkpt lat="43.24288" lon="5.66168">
        <ele>368</ele>
        <time>2020-09-16T10:26:48Z</time>
      </trkpt>
      <trkpt lat="43.2429" lon="5.66173">
        <ele>368</ele>
        <time>2020-09-16T10:26:54Z</time>
      </trkpt>
      <trkpt lat="43.24294" lon="5.66178">
        <ele>367</ele>
        <time>2020-09-16T10:27:00Z</time>
      </trkpt>
      <trkpt lat="43.24299" lon="5.66184">
        <ele>367</ele>
        <time>2020-09-16T10:27:06Z</time>
      </trkpt>
      <trkpt lat="43.24303" lon="5.6619">
        <ele>367</ele>
        <time>2020-09-16T10:27:12Z</time>
      </trkpt>
      <trkpt lat="43.24305" lon="5.66196">
        <ele>368</ele>
        <time>2020-09-16T10:27:18Z</time>
      </trkpt>
      <trkpt lat="43.24309" lon="5.66201">
        <ele>368</ele>
        <time>2020-09-16T10:27:24Z</time>
      </trkpt>
      <trkpt lat="43.24312" lon="5.66206">
        <ele>368</ele>
        <time>2020-09-16T10:27:30Z</time>
      </trkpt>
      <trkpt lat="43.24315" lon="5.66212">
        <ele>368</ele>
        <time>2020-09-16T10:27:38Z</time>
      </trkpt>
      <trkpt lat="43.24319" lon="5.66216">
        <ele>368</ele>
        <time>2020-09-16T10:27:44Z</time>
      </trkpt>
      <trkpt lat="43.24322" lon="5.66221">
        <ele>369</ele>
        <time>2020-09-16T10:27:50Z</time>
      </trkpt>
      <trkpt lat="43.24325" lon="5.66227">
        <ele>369</ele>
        <time>2020-09-16T10:27:58Z</time>
      </trkpt>
      <trkpt lat="43.24329" lon="5.66232">
        <ele>369</ele>
        <time>2020-09-16T10:28:06Z</time>
      </trkpt>
      <trkpt lat="43.24334" lon="5.66236">
        <ele>362</ele>
        <time>2020-09-16T10:28:14Z</time>
      </trkpt>
      <trkpt lat="43.24338" lon="5.6624">
        <ele>363</ele>
        <time>2020-09-16T10:28:22Z</time>
      </trkpt>
      <trkpt lat="43.24342" lon="5.66245">
        <ele>363</ele>
        <time>2020-09-16T10:28:30Z</time>
      </trkpt>
      <trkpt lat="43.24346" lon="5.6625">
        <ele>369</ele>
        <time>2020-09-16T10:28:38Z</time>
      </trkpt>
      <trkpt lat="43.2435" lon="5.66256">
        <ele>370</ele>
        <time>2020-09-16T10:28:46Z</time>
      </trkpt>
      <trkpt lat="43.24354" lon="5.66259">
        <ele>370</ele>
        <time>2020-09-16T10:28:54Z</time>
      </trkpt>
      <trkpt lat="43.24359" lon="5.66263">
        <ele>370</ele>
        <time>2020-09-16T10:29:06Z</time>
      </trkpt>
      <trkpt lat="43.24363" lon="5.66267">
        <ele>371</ele>
        <time>2020-09-16T10:29:14Z</time>
      </trkpt>
      <trkpt lat="43.24367" lon="5.66271">
        <ele>371</ele>
        <time>2020-09-16T10:29:22Z</time>
      </trkpt>
      <trkpt lat="43.24371" lon="5.66276">
        <ele>371</ele>
        <time>2020-09-16T10:29:32Z</time>
      </trkpt>
      <trkpt lat="43.24374" lon="5.66281">
        <ele>372</ele>
        <time>2020-09-16T10:29:38Z</time>
      </trkpt>
      <trkpt lat="43.24377" lon="5.66285">
        <ele>372</ele>
        <time>2020-09-16T10:29:44Z</time>
      </trkpt>
      <trkpt lat="43.24382" lon="5.66288">
        <ele>372</ele>
        <time>2020-09-16T10:29:52Z</time>
      </trkpt>
      <trkpt lat="43.24387" lon="5.66293">
        <ele>372</ele>
        <time>2020-09-16T10:30:00Z</time>
      </trkpt>
      <trkpt lat="43.2439" lon="5.66297">
        <ele>372</ele>
        <time>2020-09-16T10:30:08Z</time>
      </trkpt>
      <trkpt lat="43.24394" lon="5.66302">
        <ele>373</ele>
        <time>2020-09-16T10:30:16Z</time>
      </trkpt>
      <trkpt lat="43.24397" lon="5.66307">
        <ele>373</ele>
        <time>2020-09-16T10:30:24Z</time>
      </trkpt>
      <trkpt lat="43.244" lon="5.66313">
        <ele>374</ele>
        <time>2020-09-16T10:30:32Z</time>
      </trkpt>
      <trkpt lat="43.24403" lon="5.66318">
        <ele>374</ele>
        <time>2020-09-16T10:30:38Z</time>
      </trkpt>
      <trkpt lat="43.24406" lon="5.66325">
        <ele>375</ele>
        <time>2020-09-16T10:30:46Z</time>
      </trkpt>
      <trkpt lat="43.24408" lon="5.66333">
        <ele>375</ele>
        <time>2020-09-16T10:30:54Z</time>
      </trkpt>
      <trkpt lat="43.24411" lon="5.66338">
        <ele>381</ele>
        <time>2020-09-16T10:31:00Z</time>
      </trkpt>
      <trkpt lat="43.24415" lon="5.66341">
        <ele>381</ele>
        <time>2020-09-16T10:31:44Z</time>
      </trkpt>
      <trkpt lat="43.24418" lon="5.66348">
        <ele>377</ele>
        <time>2020-09-16T10:31:52Z</time>
      </trkpt>
      <trkpt lat="43.24421" lon="5.66355">
        <ele>377</ele>
        <time>2020-09-16T10:32:00Z</time>
      </trkpt>
      <trkpt lat="43.24423" lon="5.6636">
        <ele>378</ele>
        <time>2020-09-16T10:32:06Z</time>
      </trkpt>
      <trkpt lat="43.24426" lon="5.66366">
        <ele>378</ele>
        <time>2020-09-16T10:32:12Z</time>
      </trkpt>
      <trkpt lat="43.24429" lon="5.66373">
        <ele>379</ele>
        <time>2020-09-16T10:32:20Z</time>
      </trkpt>
      <trkpt lat="43.24432" lon="5.66379">
        <ele>380</ele>
        <time>2020-09-16T10:32:26Z</time>
      </trkpt>
      <trkpt lat="43.24436" lon="5.66384">
        <ele>380</ele>
        <time>2020-09-16T10:32:32Z</time>
      </trkpt>
      <trkpt lat="43.24441" lon="5.6639">
        <ele>381</ele>
        <time>2020-09-16T10:32:38Z</time>
      </trkpt>
      <trkpt lat="43.24443" lon="5.66397">
        <ele>381</ele>
        <time>2020-09-16T10:32:44Z</time>
      </trkpt>
      <trkpt lat="43.24446" lon="5.66403">
        <ele>382</ele>
        <time>2020-09-16T10:32:50Z</time>
      </trkpt>
      <trkpt lat="43.2445" lon="5.66409">
        <ele>381</ele>
        <time>2020-09-16T10:32:56Z</time>
      </trkpt>
      <trkpt lat="43.24455" lon="5.66414">
        <ele>381</ele>
        <time>2020-09-16T10:33:02Z</time>
      </trkpt>
      <trkpt lat="43.24459" lon="5.66419">
        <ele>390</ele>
        <time>2020-09-16T10:33:08Z</time>
      </trkpt>
      <trkpt lat="43.24464" lon="5.66423">
        <ele>389</ele>
        <time>2020-09-16T10:33:14Z</time>
      </trkpt>
      <trkpt lat="43.24468" lon="5.66426">
        <ele>388</ele>
        <time>2020-09-16T10:33:18Z</time>
      </trkpt>
      <trkpt lat="43.24474" lon="5.6643">
        <ele>387</ele>
        <time>2020-09-16T10:33:24Z</time>
      </trkpt>
      <trkpt lat="43.24478" lon="5.66435">
        <ele>387</ele>
        <time>2020-09-16T10:33:30Z</time>
      </trkpt>
      <trkpt lat="43.24482" lon="5.6644">
        <ele>387</ele>
        <time>2020-09-16T10:33:36Z</time>
      </trkpt>
      <trkpt lat="43.24485" lon="5.66445">
        <ele>387</ele>
        <time>2020-09-16T10:33:42Z</time>
      </trkpt>
      <trkpt lat="43.24488" lon="5.66451">
        <ele>388</ele>
        <time>2020-09-16T10:33:48Z</time>
      </trkpt>
      <trkpt lat="43.24489" lon="5.66458">
        <ele>389</ele>
        <time>2020-09-16T10:33:54Z</time>
      </trkpt>
      <trkpt lat="43.24492" lon="5.66465">
        <ele>389</ele>
        <time>2020-09-16T10:34:00Z</time>
      </trkpt>
      <trkpt lat="43.24495" lon="5.66473">
        <ele>390</ele>
        <time>2020-09-16T10:34:06Z</time>
      </trkpt>
      <trkpt lat="43.24498" lon="5.6648">
        <ele>390</ele>
        <time>2020-09-16T10:34:12Z</time>
      </trkpt>
      <trkpt lat="43.24501" lon="5.66486">
        <ele>383</ele>
        <time>2020-09-16T10:34:18Z</time>
      </trkpt>
      <trkpt lat="43.245" lon="5.66493">
        <ele>385</ele>
        <time>2020-09-16T10:34:24Z</time>
      </trkpt>
      <trkpt lat="43.24502" lon="5.665">
        <ele>388</ele>
        <time>2020-09-16T10:34:30Z</time>
      </trkpt>
      <trkpt lat="43.24505" lon="5.66507">
        <ele>387</ele>
        <time>2020-09-16T10:34:36Z</time>
      </trkpt>
      <trkpt lat="43.24508" lon="5.66514">
        <ele>386</ele>
        <time>2020-09-16T10:34:42Z</time>
      </trkpt>
      <trkpt lat="43.2451" lon="5.66522">
        <ele>385</ele>
        <time>2020-09-16T10:34:48Z</time>
      </trkpt>
      <trkpt lat="43.24511" lon="5.6653">
        <ele>385</ele>
        <time>2020-09-16T10:34:54Z</time>
      </trkpt>
      <trkpt lat="43.24511" lon="5.66538">
        <ele>385</ele>
        <time>2020-09-16T10:35:00Z</time>
      </trkpt>
      <trkpt lat="43.24506" lon="5.66537">
        <ele>385</ele>
        <time>2020-09-16T10:35:12Z</time>
      </trkpt>
      <trkpt lat="43.24501" lon="5.66534">
        <ele>386</ele>
        <time>2020-09-16T10:35:20Z</time>
      </trkpt>
      <trkpt lat="43.24497" lon="5.66532">
        <ele>394</ele>
        <time>2020-09-16T10:37:02Z</time>
      </trkpt>
      <trkpt lat="43.24492" lon="5.6653">
        <ele>395</ele>
        <time>2020-09-16T10:37:08Z</time>
      </trkpt>
      <trkpt lat="43.24487" lon="5.66528">
        <ele>395</ele>
        <time>2020-09-16T10:37:14Z</time>
      </trkpt>
      <trkpt lat="43.24482" lon="5.66527">
        <ele>395</ele>
        <time>2020-09-16T10:37:20Z</time>
      </trkpt>
      <trkpt lat="43.24477" lon="5.66526">
        <ele>395</ele>
        <time>2020-09-16T10:37:26Z</time>
      </trkpt>
      <trkpt lat="43.24472" lon="5.66523">
        <ele>396</ele>
        <time>2020-09-16T10:37:34Z</time>
      </trkpt>
      <trkpt lat="43.24466" lon="5.66521">
        <ele>396</ele>
        <time>2020-09-16T10:37:42Z</time>
      </trkpt>
      <trkpt lat="43.24461" lon="5.66519">
        <ele>397</ele>
        <time>2020-09-16T10:37:48Z</time>
      </trkpt>
      <trkpt lat="43.24456" lon="5.66516">
        <ele>398</ele>
        <time>2020-09-16T10:37:56Z</time>
      </trkpt>
      <trkpt lat="43.24452" lon="5.66514">
        <ele>398</ele>
        <time>2020-09-16T10:38:02Z</time>
      </trkpt>
      <trkpt lat="43.24446" lon="5.66513">
        <ele>399</ele>
        <time>2020-09-16T10:38:10Z</time>
      </trkpt>
      <trkpt lat="43.24442" lon="5.66511">
        <ele>400</ele>
        <time>2020-09-16T10:38:16Z</time>
      </trkpt>
      <trkpt lat="43.24437" lon="5.6651">
        <ele>400</ele>
        <time>2020-09-16T10:38:22Z</time>
      </trkpt>
      <trkpt lat="43.24432" lon="5.66508">
        <ele>401</ele>
        <time>2020-09-16T10:38:28Z</time>
      </trkpt>
      <trkpt lat="43.24427" lon="5.66505">
        <ele>403</ele>
        <time>2020-09-16T10:38:36Z</time>
      </trkpt>
      <trkpt lat="43.24422" lon="5.66504">
        <ele>404</ele>
        <time>2020-09-16T10:38:42Z</time>
      </trkpt>
      <trkpt lat="43.24417" lon="5.66501">
        <ele>406</ele>
        <time>2020-09-16T10:38:50Z</time>
      </trkpt>
      <trkpt lat="43.24413" lon="5.66498">
        <ele>407</ele>
        <time>2020-09-16T10:38:58Z</time>
      </trkpt>
      <trkpt lat="43.24408" lon="5.66494">
        <ele>408</ele>
        <time>2020-09-16T10:39:06Z</time>
      </trkpt>
      <trkpt lat="43.24403" lon="5.66492">
        <ele>409</ele>
        <time>2020-09-16T10:39:14Z</time>
      </trkpt>
      <trkpt lat="43.24399" lon="5.6649">
        <ele>409</ele>
        <time>2020-09-16T10:39:24Z</time>
      </trkpt>
      <trkpt lat="43.24394" lon="5.66491">
        <ele>410</ele>
        <time>2020-09-16T10:40:10Z</time>
      </trkpt>
      <trkpt lat="43.24389" lon="5.66489">
        <ele>411</ele>
        <time>2020-09-16T10:40:24Z</time>
      </trkpt>
      <trkpt lat="43.24384" lon="5.66489">
        <ele>411</ele>
        <time>2020-09-16T10:40:34Z</time>
      </trkpt>
      <trkpt lat="43.24381" lon="5.66493">
        <ele>412</ele>
        <time>2020-09-16T10:40:48Z</time>
      </trkpt>
      <trkpt lat="43.24378" lon="5.66499">
        <ele>413</ele>
        <time>2020-09-16T10:40:58Z</time>
      </trkpt>
      <trkpt lat="43.24374" lon="5.66502">
        <ele>414</ele>
        <time>2020-09-16T10:41:08Z</time>
      </trkpt>
      <trkpt lat="43.24368" lon="5.66504">
        <ele>415</ele>
        <time>2020-09-16T10:41:16Z</time>
      </trkpt>
      <trkpt lat="43.24364" lon="5.66505">
        <ele>416</ele>
        <time>2020-09-16T10:41:22Z</time>
      </trkpt>
      <trkpt lat="43.24365" lon="5.66511">
        <ele>415</ele>
        <time>2020-09-16T10:41:30Z</time>
      </trkpt>
      <trkpt lat="43.24363" lon="5.66519">
        <ele>415</ele>
        <time>2020-09-16T10:41:36Z</time>
      </trkpt>
      <trkpt lat="43.24361" lon="5.66524">
        <ele>415</ele>
        <time>2020-09-16T10:41:44Z</time>
      </trkpt>
      <trkpt lat="43.24365" lon="5.6652">
        <ele>415</ele>
        <time>2020-09-16T10:42:18Z</time>
      </trkpt>
      <trkpt lat="43.24366" lon="5.66512">
        <ele>415</ele>
        <time>2020-09-16T10:42:24Z</time>
      </trkpt>
      <trkpt lat="43.24364" lon="5.66505">
        <ele>416</ele>
        <time>2020-09-16T10:42:32Z</time>
      </trkpt>
      <trkpt lat="43.24359" lon="5.66502">
        <ele>417</ele>
        <time>2020-09-16T10:42:40Z</time>
      </trkpt>
      <trkpt lat="43.24356" lon="5.66495">
        <ele>417</ele>
        <time>2020-09-16T10:42:46Z</time>
      </trkpt>
      <trkpt lat="43.24354" lon="5.66489">
        <ele>417</ele>
        <time>2020-09-16T10:42:52Z</time>
      </trkpt>
      <trkpt lat="43.24351" lon="5.66484">
        <ele>417</ele>
        <time>2020-09-16T10:42:58Z</time>
      </trkpt>
      <trkpt lat="43.24347" lon="5.66482">
        <ele>417</ele>
        <time>2020-09-16T10:43:06Z</time>
      </trkpt>
      <trkpt lat="43.24342" lon="5.66482">
        <ele>418</ele>
        <time>2020-09-16T10:43:14Z</time>
      </trkpt>
      <trkpt lat="43.24346" lon="5.66479">
        <ele>417</ele>
        <time>2020-09-16T10:44:00Z</time>
      </trkpt>
      <trkpt lat="43.24342" lon="5.66482">
        <ele>418</ele>
        <time>2020-09-16T10:44:58Z</time>
      </trkpt>
      <trkpt lat="43.24337" lon="5.66484">
        <ele>419</ele>
        <time>2020-09-16T10:46:04Z</time>
      </trkpt>
      <trkpt lat="43.24332" lon="5.66488">
        <ele>425</ele>
        <time>2020-09-16T10:46:10Z</time>
      </trkpt>
      <trkpt lat="43.24328" lon="5.66494">
        <ele>426</ele>
        <time>2020-09-16T10:46:16Z</time>
      </trkpt>
      <trkpt lat="43.24323" lon="5.66499">
        <ele>426</ele>
        <time>2020-09-16T10:46:22Z</time>
      </trkpt>
      <trkpt lat="43.24319" lon="5.66503">
        <ele>425</ele>
        <time>2020-09-16T10:46:28Z</time>
      </trkpt>
      <trkpt lat="43.24314" lon="5.66507">
        <ele>424</ele>
        <time>2020-09-16T10:46:34Z</time>
      </trkpt>
      <trkpt lat="43.24308" lon="5.66509">
        <ele>424</ele>
        <time>2020-09-16T10:46:40Z</time>
      </trkpt>
      <trkpt lat="43.24303" lon="5.66514">
        <ele>424</ele>
        <time>2020-09-16T10:46:46Z</time>
      </trkpt>
      <trkpt lat="43.24298" lon="5.66519">
        <ele>424</ele>
        <time>2020-09-16T10:46:52Z</time>
      </trkpt>
      <trkpt lat="43.24293" lon="5.66524">
        <ele>424</ele>
        <time>2020-09-16T10:46:58Z</time>
      </trkpt>
      <trkpt lat="43.24287" lon="5.66526">
        <ele>424</ele>
        <time>2020-09-16T10:47:04Z</time>
      </trkpt>
      <trkpt lat="43.24283" lon="5.66528">
        <ele>424</ele>
        <time>2020-09-16T10:47:08Z</time>
      </trkpt>
      <trkpt lat="43.24278" lon="5.66529">
        <ele>424</ele>
        <time>2020-09-16T10:47:12Z</time>
      </trkpt>
      <trkpt lat="43.24272" lon="5.66532">
        <ele>424</ele>
        <time>2020-09-16T10:47:18Z</time>
      </trkpt>
      <trkpt lat="43.24266" lon="5.66535">
        <ele>424</ele>
        <time>2020-09-16T10:47:24Z</time>
      </trkpt>
      <trkpt lat="43.24262" lon="5.66536">
        <ele>424</ele>
        <time>2020-09-16T10:47:28Z</time>
      </trkpt>
      <trkpt lat="43.24257" lon="5.66537">
        <ele>424</ele>
        <time>2020-09-16T10:47:32Z</time>
      </trkpt>
      <trkpt lat="43.24252" lon="5.66538">
        <ele>424</ele>
        <time>2020-09-16T10:47:36Z</time>
      </trkpt>
      <trkpt lat="43.24246" lon="5.6654">
        <ele>424</ele>
        <time>2020-09-16T10:47:42Z</time>
      </trkpt>
      <trkpt lat="43.2424" lon="5.66545">
        <ele>423</ele>
        <time>2020-09-16T10:47:48Z</time>
      </trkpt>
      <trkpt lat="43.24236" lon="5.66547">
        <ele>423</ele>
        <time>2020-09-16T10:47:52Z</time>
      </trkpt>
      <trkpt lat="43.2423" lon="5.66551">
        <ele>423</ele>
        <time>2020-09-16T10:47:58Z</time>
      </trkpt>
      <trkpt lat="43.24225" lon="5.66553">
        <ele>423</ele>
        <time>2020-09-16T10:48:02Z</time>
      </trkpt>
      <trkpt lat="43.24219" lon="5.66553">
        <ele>423</ele>
        <time>2020-09-16T10:48:08Z</time>
      </trkpt>
      <trkpt lat="43.24214" lon="5.66552">
        <ele>423</ele>
        <time>2020-09-16T10:48:14Z</time>
      </trkpt>
      <trkpt lat="43.24208" lon="5.66553">
        <ele>423</ele>
        <time>2020-09-16T10:48:20Z</time>
      </trkpt>
      <trkpt lat="43.24201" lon="5.66555">
        <ele>423</ele>
        <time>2020-09-16T10:48:26Z</time>
      </trkpt>
      <trkpt lat="43.24195" lon="5.66555">
        <ele>422</ele>
        <time>2020-09-16T10:48:32Z</time>
      </trkpt>
      <trkpt lat="43.24188" lon="5.66557">
        <ele>422</ele>
        <time>2020-09-16T10:48:38Z</time>
      </trkpt>
      <trkpt lat="43.24182" lon="5.66559">
        <ele>422</ele>
        <time>2020-09-16T10:48:44Z</time>
      </trkpt>
      <trkpt lat="43.24177" lon="5.6656">
        <ele>422</ele>
        <time>2020-09-16T10:48:48Z</time>
      </trkpt>
      <trkpt lat="43.24171" lon="5.66561">
        <ele>421</ele>
        <time>2020-09-16T10:48:54Z</time>
      </trkpt>
      <trkpt lat="43.24166" lon="5.66563">
        <ele>420</ele>
        <time>2020-09-16T10:49:00Z</time>
      </trkpt>
      <trkpt lat="43.2416" lon="5.66565">
        <ele>420</ele>
        <time>2020-09-16T10:49:06Z</time>
      </trkpt>
      <trkpt lat="43.24155" lon="5.66567">
        <ele>420</ele>
        <time>2020-09-16T10:49:12Z</time>
      </trkpt>
      <trkpt lat="43.24148" lon="5.6657">
        <ele>420</ele>
        <time>2020-09-16T10:49:18Z</time>
      </trkpt>
      <trkpt lat="43.24144" lon="5.66572">
        <ele>420</ele>
        <time>2020-09-16T10:49:22Z</time>
      </trkpt>
      <trkpt lat="43.24139" lon="5.66573">
        <ele>420</ele>
        <time>2020-09-16T10:49:28Z</time>
      </trkpt>
      <trkpt lat="43.24133" lon="5.66575">
        <ele>420</ele>
        <time>2020-09-16T10:49:34Z</time>
      </trkpt>
      <trkpt lat="43.24127" lon="5.66578">
        <ele>420</ele>
        <time>2020-09-16T10:49:40Z</time>
      </trkpt>
      <trkpt lat="43.24122" lon="5.66582">
        <ele>420</ele>
        <time>2020-09-16T10:49:46Z</time>
      </trkpt>
      <trkpt lat="43.24116" lon="5.66583">
        <ele>420</ele>
        <time>2020-09-16T10:49:52Z</time>
      </trkpt>
      <trkpt lat="43.2411" lon="5.66585">
        <ele>416</ele>
        <time>2020-09-16T10:49:58Z</time>
      </trkpt>
      <trkpt lat="43.24105" lon="5.66589">
        <ele>416</ele>
        <time>2020-09-16T10:50:04Z</time>
      </trkpt>
      <trkpt lat="43.241" lon="5.66594">
        <ele>416</ele>
        <time>2020-09-16T10:50:10Z</time>
      </trkpt>
      <trkpt lat="43.24094" lon="5.66597">
        <ele>416</ele>
        <time>2020-09-16T10:50:16Z</time>
      </trkpt>
      <trkpt lat="43.2409" lon="5.66601">
        <ele>416</ele>
        <time>2020-09-16T10:50:20Z</time>
      </trkpt>
      <trkpt lat="43.24086" lon="5.66604">
        <ele>416</ele>
        <time>2020-09-16T10:50:24Z</time>
      </trkpt>
      <trkpt lat="43.24081" lon="5.66607">
        <ele>418</ele>
        <time>2020-09-16T10:50:30Z</time>
      </trkpt>
      <trkpt lat="43.24077" lon="5.6661">
        <ele>418</ele>
        <time>2020-09-16T10:50:36Z</time>
      </trkpt>
      <trkpt lat="43.24071" lon="5.66614">
        <ele>418</ele>
        <time>2020-09-16T10:50:42Z</time>
      </trkpt>
      <trkpt lat="43.24066" lon="5.66619">
        <ele>418</ele>
        <time>2020-09-16T10:50:48Z</time>
      </trkpt>
      <trkpt lat="43.24062" lon="5.66625">
        <ele>418</ele>
        <time>2020-09-16T10:50:54Z</time>
      </trkpt>
      <trkpt lat="43.24059" lon="5.66632">
        <ele>418</ele>
        <time>2020-09-16T10:51:00Z</time>
      </trkpt>
      <trkpt lat="43.24055" lon="5.66639">
        <ele>418</ele>
        <time>2020-09-16T10:51:06Z</time>
      </trkpt>
      <trkpt lat="43.24053" lon="5.66647">
        <ele>418</ele>
        <time>2020-09-16T10:51:12Z</time>
      </trkpt>
      <trkpt lat="43.24051" lon="5.66654">
        <ele>418</ele>
        <time>2020-09-16T10:51:18Z</time>
      </trkpt>
      <trkpt lat="43.24051" lon="5.66662">
        <ele>417</ele>
        <time>2020-09-16T10:51:24Z</time>
      </trkpt>
      <trkpt lat="43.24051" lon="5.6667">
        <ele>417</ele>
        <time>2020-09-16T10:51:30Z</time>
      </trkpt>
      <trkpt lat="43.2405" lon="5.66679">
        <ele>417</ele>
        <time>2020-09-16T10:51:36Z</time>
      </trkpt>
      <trkpt lat="43.24048" lon="5.66684">
        <ele>417</ele>
        <time>2020-09-16T10:51:42Z</time>
      </trkpt>
      <trkpt lat="43.24045" lon="5.6669">
        <ele>417</ele>
        <time>2020-09-16T10:51:48Z</time>
      </trkpt>
      <trkpt lat="43.24041" lon="5.66695">
        <ele>417</ele>
        <time>2020-09-16T10:51:54Z</time>
      </trkpt>
      <trkpt lat="43.24037" lon="5.66699">
        <ele>417</ele>
        <time>2020-09-16T10:52:00Z</time>
      </trkpt>
      <trkpt lat="43.24031" lon="5.66701">
        <ele>417</ele>
        <time>2020-09-16T10:52:06Z</time>
      </trkpt>
      <trkpt lat="43.24027" lon="5.66702">
        <ele>417</ele>
        <time>2020-09-16T10:52:12Z</time>
      </trkpt>
      <trkpt lat="43.24022" lon="5.66706">
        <ele>418</ele>
        <time>2020-09-16T10:52:52Z</time>
      </trkpt>
      <trkpt lat="43.24016" lon="5.66709">
        <ele>418</ele>
        <time>2020-09-16T10:52:58Z</time>
      </trkpt>
      <trkpt lat="43.24012" lon="5.66713">
        <ele>418</ele>
        <time>2020-09-16T10:53:04Z</time>
      </trkpt>
      <trkpt lat="43.24009" lon="5.66719">
        <ele>418</ele>
        <time>2020-09-16T10:53:12Z</time>
      </trkpt>
      <trkpt lat="43.24005" lon="5.66725">
        <ele>418</ele>
        <time>2020-09-16T10:53:18Z</time>
      </trkpt>
      <trkpt lat="43.24002" lon="5.6673">
        <ele>418</ele>
        <time>2020-09-16T10:53:24Z</time>
      </trkpt>
      <trkpt lat="43.23998" lon="5.66735">
        <ele>419</ele>
        <time>2020-09-16T10:53:30Z</time>
      </trkpt>
      <trkpt lat="43.23993" lon="5.6674">
        <ele>419</ele>
        <time>2020-09-16T10:53:36Z</time>
      </trkpt>
      <trkpt lat="43.23989" lon="5.66743">
        <ele>419</ele>
        <time>2020-09-16T10:53:40Z</time>
      </trkpt>
      <trkpt lat="43.23985" lon="5.66746">
        <ele>419</ele>
        <time>2020-09-16T10:53:44Z</time>
      </trkpt>
      <trkpt lat="43.2398" lon="5.66749">
        <ele>418</ele>
        <time>2020-09-16T10:53:48Z</time>
      </trkpt>
      <trkpt lat="43.23976" lon="5.66753">
        <ele>419</ele>
        <time>2020-09-16T10:53:52Z</time>
      </trkpt>
      <trkpt lat="43.23972" lon="5.66757">
        <ele>419</ele>
        <time>2020-09-16T10:53:58Z</time>
      </trkpt>
      <trkpt lat="43.23967" lon="5.66763">
        <ele>419</ele>
        <time>2020-09-16T10:54:04Z</time>
      </trkpt>
      <trkpt lat="43.23965" lon="5.66771">
        <ele>419</ele>
        <time>2020-09-16T10:54:12Z</time>
      </trkpt>
      <trkpt lat="43.23965" lon="5.66777">
        <ele>419</ele>
        <time>2020-09-16T10:54:16Z</time>
      </trkpt>
      <trkpt lat="43.23965" lon="5.66786">
        <ele>419</ele>
        <time>2020-09-16T10:54:22Z</time>
      </trkpt>
      <trkpt lat="43.23967" lon="5.66792">
        <ele>419</ele>
        <time>2020-09-16T10:54:26Z</time>
      </trkpt>
      <trkpt lat="43.23969" lon="5.668">
        <ele>419</ele>
        <time>2020-09-16T10:54:32Z</time>
      </trkpt>
      <trkpt lat="43.23972" lon="5.66806">
        <ele>419</ele>
        <time>2020-09-16T10:54:36Z</time>
      </trkpt>
      <trkpt lat="43.23974" lon="5.66812">
        <ele>419</ele>
        <time>2020-09-16T10:54:40Z</time>
      </trkpt>
      <trkpt lat="43.23977" lon="5.66817">
        <ele>419</ele>
        <time>2020-09-16T10:54:44Z</time>
      </trkpt>
      <trkpt lat="43.2398" lon="5.66825">
        <ele>420</ele>
        <time>2020-09-16T10:54:50Z</time>
      </trkpt>
      <trkpt lat="43.23983" lon="5.66831">
        <ele>420</ele>
        <time>2020-09-16T10:54:54Z</time>
      </trkpt>
      <trkpt lat="43.23985" lon="5.66836">
        <ele>420</ele>
        <time>2020-09-16T10:54:58Z</time>
      </trkpt>
      <trkpt lat="43.23988" lon="5.66844">
        <ele>420</ele>
        <time>2020-09-16T10:55:04Z</time>
      </trkpt>
      <trkpt lat="43.2399" lon="5.66851">
        <ele>420</ele>
        <time>2020-09-16T10:55:10Z</time>
      </trkpt>
      <trkpt lat="43.23993" lon="5.66858">
        <ele>420</ele>
        <time>2020-09-16T10:55:16Z</time>
      </trkpt>
      <trkpt lat="43.23995" lon="5.66866">
        <ele>420</ele>
        <time>2020-09-16T10:55:22Z</time>
      </trkpt>
      <trkpt lat="43.23998" lon="5.66873">
        <ele>419</ele>
        <time>2020-09-16T10:55:28Z</time>
      </trkpt>
      <trkpt lat="43.24001" lon="5.66881">
        <ele>419</ele>
        <time>2020-09-16T10:55:34Z</time>
      </trkpt>
      <trkpt lat="43.24004" lon="5.66889">
        <ele>419</ele>
        <time>2020-09-16T10:55:40Z</time>
      </trkpt>
      <trkpt lat="43.24006" lon="5.66897">
        <ele>419</ele>
        <time>2020-09-16T10:55:46Z</time>
      </trkpt>
      <trkpt lat="43.24008" lon="5.66903">
        <ele>419</ele>
        <time>2020-09-16T10:55:50Z</time>
      </trkpt>
      <trkpt lat="43.24009" lon="5.66909">
        <ele>419</ele>
        <time>2020-09-16T10:55:54Z</time>
      </trkpt>
      <trkpt lat="43.24011" lon="5.66915">
        <ele>419</ele>
        <time>2020-09-16T10:55:58Z</time>
      </trkpt>
      <trkpt lat="43.24012" lon="5.66924">
        <ele>420</ele>
        <time>2020-09-16T10:56:04Z</time>
      </trkpt>
      <trkpt lat="43.24014" lon="5.66933">
        <ele>420</ele>
        <time>2020-09-16T10:56:10Z</time>
      </trkpt>
      <trkpt lat="43.24017" lon="5.66941">
        <ele>420</ele>
        <time>2020-09-16T10:56:16Z</time>
      </trkpt>
      <trkpt lat="43.2402" lon="5.66949">
        <ele>420</ele>
        <time>2020-09-16T10:56:22Z</time>
      </trkpt>
      <trkpt lat="43.24022" lon="5.66955">
        <ele>420</ele>
        <time>2020-09-16T10:56:26Z</time>
      </trkpt>
      <trkpt lat="43.24024" lon="5.66961">
        <ele>420</ele>
        <time>2020-09-16T10:56:30Z</time>
      </trkpt>
      <trkpt lat="43.24026" lon="5.66969">
        <ele>421</ele>
        <time>2020-09-16T10:56:36Z</time>
      </trkpt>
      <trkpt lat="43.24028" lon="5.66975">
        <ele>421</ele>
        <time>2020-09-16T10:56:40Z</time>
      </trkpt>
      <trkpt lat="43.2403" lon="5.66983">
        <ele>421</ele>
        <time>2020-09-16T10:56:46Z</time>
      </trkpt>
      <trkpt lat="43.24032" lon="5.66991">
        <ele>421</ele>
        <time>2020-09-16T10:56:52Z</time>
      </trkpt>
      <trkpt lat="43.24033" lon="5.66997">
        <ele>421</ele>
        <time>2020-09-16T10:56:56Z</time>
      </trkpt>
      <trkpt lat="43.24035" lon="5.67003">
        <ele>423</ele>
        <time>2020-09-16T10:57:00Z</time>
      </trkpt>
      <trkpt lat="43.24037" lon="5.67011">
        <ele>423</ele>
        <time>2020-09-16T10:57:06Z</time>
      </trkpt>
      <trkpt lat="43.24038" lon="5.67017">
        <ele>424</ele>
        <time>2020-09-16T10:57:10Z</time>
      </trkpt>
      <trkpt lat="43.2404" lon="5.67023">
        <ele>424</ele>
        <time>2020-09-16T10:57:14Z</time>
      </trkpt>
      <trkpt lat="43.24041" lon="5.67029">
        <ele>424</ele>
        <time>2020-09-16T10:57:18Z</time>
      </trkpt>
      <trkpt lat="43.24044" lon="5.67037">
        <ele>424</ele>
        <time>2020-09-16T10:57:24Z</time>
      </trkpt>
      <trkpt lat="43.24047" lon="5.67046">
        <ele>424</ele>
        <time>2020-09-16T10:57:30Z</time>
      </trkpt>
      <trkpt lat="43.24049" lon="5.67051">
        <ele>424</ele>
        <time>2020-09-16T10:57:34Z</time>
      </trkpt>
      <trkpt lat="43.24053" lon="5.67059">
        <ele>424</ele>
        <time>2020-09-16T10:57:40Z</time>
      </trkpt>
      <trkpt lat="43.24056" lon="5.67066">
        <ele>425</ele>
        <time>2020-09-16T10:57:46Z</time>
      </trkpt>
      <trkpt lat="43.24059" lon="5.67075">
        <ele>425</ele>
        <time>2020-09-16T10:57:52Z</time>
      </trkpt>
      <trkpt lat="43.24061" lon="5.67081">
        <ele>425</ele>
        <time>2020-09-16T10:57:57Z</time>
      </trkpt>
      <trkpt lat="43.24066" lon="5.67089">
        <ele>426</ele>
        <time>2020-09-16T10:58:02Z</time>
      </trkpt>
      <trkpt lat="43.2407" lon="5.67095">
        <ele>426</ele>
        <time>2020-09-16T10:58:06Z</time>
      </trkpt>
      <trkpt lat="43.24073" lon="5.671">
        <ele>426</ele>
        <time>2020-09-16T10:58:10Z</time>
      </trkpt>
      <trkpt lat="43.24076" lon="5.67107">
        <ele>426</ele>
        <time>2020-09-16T10:58:16Z</time>
      </trkpt>
      <trkpt lat="43.24079" lon="5.67114">
        <ele>426</ele>
        <time>2020-09-16T10:58:22Z</time>
      </trkpt>
      <trkpt lat="43.24083" lon="5.6712">
        <ele>426</ele>
        <time>2020-09-16T10:58:28Z</time>
      </trkpt>
      <trkpt lat="43.24086" lon="5.67128">
        <ele>423</ele>
        <time>2020-09-16T10:58:34Z</time>
      </trkpt>
      <trkpt lat="43.24089" lon="5.67135">
        <ele>423</ele>
        <time>2020-09-16T10:58:40Z</time>
      </trkpt>
      <trkpt lat="43.24093" lon="5.6714">
        <ele>423</ele>
        <time>2020-09-16T10:58:44Z</time>
      </trkpt>
      <trkpt lat="43.24096" lon="5.67147">
        <ele>423</ele>
        <time>2020-09-16T10:58:50Z</time>
      </trkpt>
      <trkpt lat="43.24099" lon="5.67156">
        <ele>423</ele>
        <time>2020-09-16T10:58:56Z</time>
      </trkpt>
      <trkpt lat="43.241" lon="5.67162">
        <ele>424</ele>
        <time>2020-09-16T10:59:00Z</time>
      </trkpt>
      <trkpt lat="43.24102" lon="5.67168">
        <ele>425</ele>
        <time>2020-09-16T10:59:04Z</time>
      </trkpt>
      <trkpt lat="43.24104" lon="5.67174">
        <ele>424</ele>
        <time>2020-09-16T10:59:08Z</time>
      </trkpt>
      <trkpt lat="43.24106" lon="5.67183">
        <ele>424</ele>
        <time>2020-09-16T10:59:14Z</time>
      </trkpt>
      <trkpt lat="43.24109" lon="5.67191">
        <ele>424</ele>
        <time>2020-09-16T10:59:20Z</time>
      </trkpt>
      <trkpt lat="43.2411" lon="5.67197">
        <ele>424</ele>
        <time>2020-09-16T10:59:24Z</time>
      </trkpt>
      <trkpt lat="43.24111" lon="5.67205">
        <ele>424</ele>
        <time>2020-09-16T10:59:30Z</time>
      </trkpt>
      <trkpt lat="43.24113" lon="5.67212">
        <ele>424</ele>
        <time>2020-09-16T10:59:34Z</time>
      </trkpt>
      <trkpt lat="43.24114" lon="5.67218">
        <ele>424</ele>
        <time>2020-09-16T10:59:38Z</time>
      </trkpt>
      <trkpt lat="43.24116" lon="5.67224">
        <ele>424</ele>
        <time>2020-09-16T10:59:42Z</time>
      </trkpt>
      <trkpt lat="43.24118" lon="5.67231">
        <ele>424</ele>
        <time>2020-09-16T10:59:46Z</time>
      </trkpt>
      <trkpt lat="43.24121" lon="5.67237">
        <ele>424</ele>
        <time>2020-09-16T10:59:50Z</time>
      </trkpt>
      <trkpt lat="43.24123" lon="5.67245">
        <ele>424</ele>
        <time>2020-09-16T10:59:56Z</time>
      </trkpt>
      <trkpt lat="43.24126" lon="5.67252">
        <ele>425</ele>
        <time>2020-09-16T11:00:02Z</time>
      </trkpt>
      <trkpt lat="43.24129" lon="5.67258">
        <ele>425</ele>
        <time>2020-09-16T11:00:06Z</time>
      </trkpt>
      <trkpt lat="43.24131" lon="5.67264">
        <ele>425</ele>
        <time>2020-09-16T11:00:10Z</time>
      </trkpt>
      <trkpt lat="43.24132" lon="5.67271">
        <ele>425</ele>
        <time>2020-09-16T11:00:14Z</time>
      </trkpt>
      <trkpt lat="43.24134" lon="5.67279">
        <ele>425</ele>
        <time>2020-09-16T11:00:20Z</time>
      </trkpt>
      <trkpt lat="43.24135" lon="5.67286">
        <ele>426</ele>
        <time>2020-09-16T11:00:24Z</time>
      </trkpt>
      <trkpt lat="43.24136" lon="5.67292">
        <ele>426</ele>
        <time>2020-09-16T11:00:28Z</time>
      </trkpt>
      <trkpt lat="43.24137" lon="5.67299">
        <ele>426</ele>
        <time>2020-09-16T11:00:32Z</time>
      </trkpt>
      <trkpt lat="43.24138" lon="5.67305">
        <ele>426</ele>
        <time>2020-09-16T11:00:36Z</time>
      </trkpt>
      <trkpt lat="43.24139" lon="5.67312">
        <ele>426</ele>
        <time>2020-09-16T11:00:40Z</time>
      </trkpt>
      <trkpt lat="43.24139" lon="5.67321">
        <ele>426</ele>
        <time>2020-09-16T11:00:46Z</time>
      </trkpt>
      <trkpt lat="43.2414" lon="5.67327">
        <ele>426</ele>
        <time>2020-09-16T11:00:50Z</time>
      </trkpt>
      <trkpt lat="43.2414" lon="5.67334">
        <ele>428</ele>
        <time>2020-09-16T11:00:54Z</time>
      </trkpt>
      <trkpt lat="43.2414" lon="5.67344">
        <ele>428</ele>
        <time>2020-09-16T11:01:00Z</time>
      </trkpt>
      <trkpt lat="43.24139" lon="5.67351">
        <ele>428</ele>
        <time>2020-09-16T11:01:04Z</time>
      </trkpt>
      <trkpt lat="43.24139" lon="5.67358">
        <ele>428</ele>
        <time>2020-09-16T11:01:08Z</time>
      </trkpt>
      <trkpt lat="43.24139" lon="5.67364">
        <ele>428</ele>
        <time>2020-09-16T11:01:12Z</time>
      </trkpt>
      <trkpt lat="43.24139" lon="5.6737">
        <ele>428</ele>
        <time>2020-09-16T11:01:16Z</time>
      </trkpt>
      <trkpt lat="43.24139" lon="5.67379">
        <ele>428</ele>
        <time>2020-09-16T11:01:22Z</time>
      </trkpt>
      <trkpt lat="43.24141" lon="5.67388">
        <ele>428</ele>
        <time>2020-09-16T11:01:28Z</time>
      </trkpt>
      <trkpt lat="43.24142" lon="5.67394">
        <ele>428</ele>
        <time>2020-09-16T11:01:32Z</time>
      </trkpt>
      <trkpt lat="43.24144" lon="5.67401">
        <ele>428</ele>
        <time>2020-09-16T11:01:36Z</time>
      </trkpt>
      <trkpt lat="43.24144" lon="5.67408">
        <ele>429</ele>
        <time>2020-09-16T11:01:40Z</time>
      </trkpt>
      <trkpt lat="43.24145" lon="5.67414">
        <ele>429</ele>
        <time>2020-09-16T11:01:44Z</time>
      </trkpt>
      <trkpt lat="43.24147" lon="5.67423">
        <ele>430</ele>
        <time>2020-09-16T11:01:50Z</time>
      </trkpt>
      <trkpt lat="43.24149" lon="5.67431">
        <ele>430</ele>
        <time>2020-09-16T11:01:56Z</time>
      </trkpt>
      <trkpt lat="43.2415" lon="5.67437">
        <ele>430</ele>
        <time>2020-09-16T11:02:00Z</time>
      </trkpt>
      <trkpt lat="43.24151" lon="5.67446">
        <ele>430</ele>
        <time>2020-09-16T11:02:06Z</time>
      </trkpt>
      <trkpt lat="43.24152" lon="5.67454">
        <ele>430</ele>
        <time>2020-09-16T11:02:12Z</time>
      </trkpt>
      <trkpt lat="43.24154" lon="5.67462">
        <ele>430</ele>
        <time>2020-09-16T11:02:18Z</time>
      </trkpt>
      <trkpt lat="43.24155" lon="5.67468">
        <ele>430</ele>
        <time>2020-09-16T11:02:22Z</time>
      </trkpt>
      <trkpt lat="43.24156" lon="5.67475">
        <ele>430</ele>
        <time>2020-09-16T11:02:26Z</time>
      </trkpt>
      <trkpt lat="43.24157" lon="5.67481">
        <ele>430</ele>
        <time>2020-09-16T11:02:30Z</time>
      </trkpt>
      <trkpt lat="43.24159" lon="5.67487">
        <ele>431</ele>
        <time>2020-09-16T11:02:34Z</time>
      </trkpt>
      <trkpt lat="43.24161" lon="5.67493">
        <ele>431</ele>
        <time>2020-09-16T11:02:38Z</time>
      </trkpt>
      <trkpt lat="43.24163" lon="5.67498">
        <ele>431</ele>
        <time>2020-09-16T11:02:42Z</time>
      </trkpt>
      <trkpt lat="43.24166" lon="5.67506">
        <ele>431</ele>
        <time>2020-09-16T11:02:48Z</time>
      </trkpt>
      <trkpt lat="43.24167" lon="5.67513">
        <ele>431</ele>
        <time>2020-09-16T11:02:54Z</time>
      </trkpt>
      <trkpt lat="43.24169" lon="5.67519">
        <ele>431</ele>
        <time>2020-09-16T11:03:00Z</time>
      </trkpt>
      <trkpt lat="43.24171" lon="5.67525">
        <ele>431</ele>
        <time>2020-09-16T11:03:08Z</time>
      </trkpt>
      <trkpt lat="43.24177" lon="5.67527">
        <ele>431</ele>
        <time>2020-09-16T11:06:12Z</time>
      </trkpt>
      <trkpt lat="43.2418" lon="5.67534">
        <ele>431</ele>
        <time>2020-09-16T11:06:18Z</time>
      </trkpt>
      <trkpt lat="43.24185" lon="5.67539">
        <ele>431</ele>
        <time>2020-09-16T11:06:24Z</time>
      </trkpt>
      <trkpt lat="43.2419" lon="5.67544">
        <ele>431</ele>
        <time>2020-09-16T11:06:30Z</time>
      </trkpt>
      <trkpt lat="43.24194" lon="5.67548">
        <ele>431</ele>
        <time>2020-09-16T11:06:34Z</time>
      </trkpt>
      <trkpt lat="43.24198" lon="5.67551">
        <ele>431</ele>
        <time>2020-09-16T11:06:38Z</time>
      </trkpt>
      <trkpt lat="43.24203" lon="5.67554">
        <ele>431</ele>
        <time>2020-09-16T11:06:42Z</time>
      </trkpt>
      <trkpt lat="43.24209" lon="5.67557">
        <ele>432</ele>
        <time>2020-09-16T11:06:48Z</time>
      </trkpt>
      <trkpt lat="43.24215" lon="5.6756">
        <ele>432</ele>
        <time>2020-09-16T11:06:54Z</time>
      </trkpt>
      <trkpt lat="43.2422" lon="5.67562">
        <ele>432</ele>
        <time>2020-09-16T11:07:00Z</time>
      </trkpt>
      <trkpt lat="43.24226" lon="5.67563">
        <ele>432</ele>
        <time>2020-09-16T11:07:04Z</time>
      </trkpt>
      <trkpt lat="43.24231" lon="5.67563">
        <ele>432</ele>
        <time>2020-09-16T11:07:08Z</time>
      </trkpt>
      <trkpt lat="43.24237" lon="5.67563">
        <ele>432</ele>
        <time>2020-09-16T11:07:14Z</time>
      </trkpt>
      <trkpt lat="43.24243" lon="5.67563">
        <ele>433</ele>
        <time>2020-09-16T11:07:18Z</time>
      </trkpt>
      <trkpt lat="43.24249" lon="5.67562">
        <ele>433</ele>
        <time>2020-09-16T11:07:24Z</time>
      </trkpt>
      <trkpt lat="43.24253" lon="5.67562">
        <ele>435</ele>
        <time>2020-09-16T11:07:28Z</time>
      </trkpt>
      <trkpt lat="43.24258" lon="5.6756">
        <ele>435</ele>
        <time>2020-09-16T11:07:34Z</time>
      </trkpt>
      <trkpt lat="43.24264" lon="5.67557">
        <ele>435</ele>
        <time>2020-09-16T11:07:40Z</time>
      </trkpt>
      <trkpt lat="43.24271" lon="5.67553">
        <ele>435</ele>
        <time>2020-09-16T11:07:46Z</time>
      </trkpt>
      <trkpt lat="43.24275" lon="5.6755">
        <ele>435</ele>
        <time>2020-09-16T11:07:50Z</time>
      </trkpt>
      <trkpt lat="43.24279" lon="5.67547">
        <ele>435</ele>
        <time>2020-09-16T11:07:54Z</time>
      </trkpt>
      <trkpt lat="43.24285" lon="5.67544">
        <ele>435</ele>
        <time>2020-09-16T11:08:00Z</time>
      </trkpt>
      <trkpt lat="43.24291" lon="5.6754">
        <ele>436</ele>
        <time>2020-09-16T11:08:06Z</time>
      </trkpt>
      <trkpt lat="43.24295" lon="5.67537">
        <ele>436</ele>
        <time>2020-09-16T11:08:10Z</time>
      </trkpt>
      <trkpt lat="43.24301" lon="5.67531">
        <ele>436</ele>
        <time>2020-09-16T11:08:16Z</time>
      </trkpt>
      <trkpt lat="43.24305" lon="5.67526">
        <ele>436</ele>
        <time>2020-09-16T11:08:22Z</time>
      </trkpt>
      <trkpt lat="43.24309" lon="5.6752">
        <ele>436</ele>
        <time>2020-09-16T11:08:28Z</time>
      </trkpt>
      <trkpt lat="43.24313" lon="5.67515">
        <ele>436</ele>
        <time>2020-09-16T11:08:32Z</time>
      </trkpt>
      <trkpt lat="43.24318" lon="5.67509">
        <ele>436</ele>
        <time>2020-09-16T11:08:38Z</time>
      </trkpt>
      <trkpt lat="43.24321" lon="5.67504">
        <ele>436</ele>
        <time>2020-09-16T11:08:42Z</time>
      </trkpt>
      <trkpt lat="43.24325" lon="5.67498">
        <ele>435</ele>
        <time>2020-09-16T11:08:48Z</time>
      </trkpt>
      <trkpt lat="43.2433" lon="5.67492">
        <ele>435</ele>
        <time>2020-09-16T11:08:54Z</time>
      </trkpt>
      <trkpt lat="43.24334" lon="5.67486">
        <ele>437</ele>
        <time>2020-09-16T11:09:00Z</time>
      </trkpt>
      <trkpt lat="43.24337" lon="5.67479">
        <ele>437</ele>
        <time>2020-09-16T11:09:06Z</time>
      </trkpt>
      <trkpt lat="43.24342" lon="5.67474">
        <ele>437</ele>
        <time>2020-09-16T11:09:12Z</time>
      </trkpt>
      <trkpt lat="43.24345" lon="5.67467">
        <ele>437</ele>
        <time>2020-09-16T11:09:18Z</time>
      </trkpt>
      <trkpt lat="43.2435" lon="5.67462">
        <ele>437</ele>
        <time>2020-09-16T11:09:24Z</time>
      </trkpt>
      <trkpt lat="43.24355" lon="5.67455">
        <ele>437</ele>
        <time>2020-09-16T11:09:30Z</time>
      </trkpt>
      <trkpt lat="43.24358" lon="5.67451">
        <ele>437</ele>
        <time>2020-09-16T11:09:34Z</time>
      </trkpt>
      <trkpt lat="43.24364" lon="5.67447">
        <ele>437</ele>
        <time>2020-09-16T11:09:40Z</time>
      </trkpt>
      <trkpt lat="43.24368" lon="5.67442">
        <ele>437</ele>
        <time>2020-09-16T11:09:46Z</time>
      </trkpt>
      <trkpt lat="43.24373" lon="5.67436">
        <ele>437</ele>
        <time>2020-09-16T11:09:52Z</time>
      </trkpt>
      <trkpt lat="43.24378" lon="5.67431">
        <ele>437</ele>
        <time>2020-09-16T11:09:58Z</time>
      </trkpt>
      <trkpt lat="43.24383" lon="5.67427">
        <ele>438</ele>
        <time>2020-09-16T11:10:04Z</time>
      </trkpt>
      <trkpt lat="43.24388" lon="5.67422">
        <ele>438</ele>
        <time>2020-09-16T11:10:10Z</time>
      </trkpt>
      <trkpt lat="43.24393" lon="5.67416">
        <ele>434</ele>
        <time>2020-09-16T11:10:16Z</time>
      </trkpt>
      <trkpt lat="43.24398" lon="5.67411">
        <ele>435</ele>
        <time>2020-09-16T11:10:22Z</time>
      </trkpt>
      <trkpt lat="43.24404" lon="5.67407">
        <ele>436</ele>
        <time>2020-09-16T11:10:28Z</time>
      </trkpt>
      <trkpt lat="43.24408" lon="5.67404">
        <ele>436</ele>
        <time>2020-09-16T11:10:32Z</time>
      </trkpt>
      <trkpt lat="43.24413" lon="5.67399">
        <ele>435</ele>
        <time>2020-09-16T11:10:38Z</time>
      </trkpt>
      <trkpt lat="43.24417" lon="5.67394">
        <ele>435</ele>
        <time>2020-09-16T11:10:42Z</time>
      </trkpt>
      <trkpt lat="43.2442" lon="5.6739">
        <ele>437</ele>
        <time>2020-09-16T11:10:46Z</time>
      </trkpt>
      <trkpt lat="43.24426" lon="5.67385">
        <ele>436</ele>
        <time>2020-09-16T11:10:52Z</time>
      </trkpt>
      <trkpt lat="43.2443" lon="5.67384">
        <ele>436</ele>
        <time>2020-09-16T11:10:56Z</time>
      </trkpt>
      <trkpt lat="43.24436" lon="5.67385">
        <ele>436</ele>
        <time>2020-09-16T11:11:00Z</time>
      </trkpt>
      <trkpt lat="43.24441" lon="5.67386">
        <ele>436</ele>
        <time>2020-09-16T11:11:04Z</time>
      </trkpt>
      <trkpt lat="43.24446" lon="5.67388">
        <ele>436</ele>
        <time>2020-09-16T11:11:08Z</time>
      </trkpt>
      <trkpt lat="43.2445" lon="5.67394">
        <ele>436</ele>
        <time>2020-09-16T11:11:14Z</time>
      </trkpt>
      <trkpt lat="43.24454" lon="5.67401">
        <ele>436</ele>
        <time>2020-09-16T11:11:20Z</time>
      </trkpt>
      <trkpt lat="43.24458" lon="5.67407">
        <ele>436</ele>
        <time>2020-09-16T11:11:26Z</time>
      </trkpt>
      <trkpt lat="43.24462" lon="5.67414">
        <ele>437</ele>
        <time>2020-09-16T11:11:32Z</time>
      </trkpt>
      <trkpt lat="43.24465" lon="5.67422">
        <ele>439</ele>
        <time>2020-09-16T11:11:38Z</time>
      </trkpt>
      <trkpt lat="43.24467" lon="5.6743">
        <ele>439</ele>
        <time>2020-09-16T11:11:44Z</time>
      </trkpt>
      <trkpt lat="43.24469" lon="5.67436">
        <ele>439</ele>
        <time>2020-09-16T11:11:48Z</time>
      </trkpt>
      <trkpt lat="43.24469" lon="5.67445">
        <ele>439</ele>
        <time>2020-09-16T11:11:54Z</time>
      </trkpt>
      <trkpt lat="43.24466" lon="5.67452">
        <ele>439</ele>
        <time>2020-09-16T11:12:00Z</time>
      </trkpt>
      <trkpt lat="43.24464" lon="5.67457">
        <ele>439</ele>
        <time>2020-09-16T11:12:04Z</time>
      </trkpt>
      <trkpt lat="43.2446" lon="5.67463">
        <ele>440</ele>
        <time>2020-09-16T11:12:10Z</time>
      </trkpt>
      <trkpt lat="43.24455" lon="5.6747">
        <ele>440</ele>
        <time>2020-09-16T11:12:16Z</time>
      </trkpt>
      <trkpt lat="43.24453" lon="5.67475">
        <ele>440</ele>
        <time>2020-09-16T11:12:20Z</time>
      </trkpt>
      <trkpt lat="43.2445" lon="5.67483">
        <ele>440</ele>
        <time>2020-09-16T11:12:26Z</time>
      </trkpt>
      <trkpt lat="43.24447" lon="5.6749">
        <ele>441</ele>
        <time>2020-09-16T11:12:32Z</time>
      </trkpt>
      <trkpt lat="43.24446" lon="5.67497">
        <ele>441</ele>
        <time>2020-09-16T11:12:36Z</time>
      </trkpt>
      <trkpt lat="43.24446" lon="5.67504">
        <ele>443</ele>
        <time>2020-09-16T11:12:40Z</time>
      </trkpt>
      <trkpt lat="43.24445" lon="5.67512">
        <ele>443</ele>
        <time>2020-09-16T11:12:46Z</time>
      </trkpt>
      <trkpt lat="43.24446" lon="5.67521">
        <ele>443</ele>
        <time>2020-09-16T11:12:54Z</time>
      </trkpt>
      <trkpt lat="43.24447" lon="5.67527">
        <ele>443</ele>
        <time>2020-09-16T11:12:58Z</time>
      </trkpt>
      <trkpt lat="43.24448" lon="5.67534">
        <ele>443</ele>
        <time>2020-09-16T11:13:02Z</time>
      </trkpt>
      <trkpt lat="43.24449" lon="5.6754">
        <ele>443</ele>
        <time>2020-09-16T11:13:06Z</time>
      </trkpt>
      <trkpt lat="43.2445" lon="5.67547">
        <ele>443</ele>
        <time>2020-09-16T11:13:10Z</time>
      </trkpt>
      <trkpt lat="43.24451" lon="5.67553">
        <ele>443</ele>
        <time>2020-09-16T11:13:14Z</time>
      </trkpt>
      <trkpt lat="43.24453" lon="5.67559">
        <ele>443</ele>
        <time>2020-09-16T11:13:18Z</time>
      </trkpt>
      <trkpt lat="43.24454" lon="5.67568">
        <ele>443</ele>
        <time>2020-09-16T11:13:24Z</time>
      </trkpt>
      <trkpt lat="43.24455" lon="5.67576">
        <ele>443</ele>
        <time>2020-09-16T11:13:30Z</time>
      </trkpt>
      <trkpt lat="43.24457" lon="5.67583">
        <ele>443</ele>
        <time>2020-09-16T11:13:34Z</time>
      </trkpt>
      <trkpt lat="43.24458" lon="5.67589">
        <ele>445</ele>
        <time>2020-09-16T11:13:38Z</time>
      </trkpt>
      <trkpt lat="43.24459" lon="5.67595">
        <ele>445</ele>
        <time>2020-09-16T11:13:42Z</time>
      </trkpt>
      <trkpt lat="43.24462" lon="5.67603">
        <ele>445</ele>
        <time>2020-09-16T11:13:48Z</time>
      </trkpt>
      <trkpt lat="43.24463" lon="5.67609">
        <ele>445</ele>
        <time>2020-09-16T11:13:52Z</time>
      </trkpt>
      <trkpt lat="43.24464" lon="5.67615">
        <ele>445</ele>
        <time>2020-09-16T11:13:56Z</time>
      </trkpt>
      <trkpt lat="43.24466" lon="5.67621">
        <ele>445</ele>
        <time>2020-09-16T11:14:00Z</time>
      </trkpt>
      <trkpt lat="43.24467" lon="5.67629">
        <ele>445</ele>
        <time>2020-09-16T11:14:06Z</time>
      </trkpt>
      <trkpt lat="43.24468" lon="5.67637">
        <ele>445</ele>
        <time>2020-09-16T11:14:12Z</time>
      </trkpt>
      <trkpt lat="43.24469" lon="5.67646">
        <ele>446</ele>
        <time>2020-09-16T11:14:18Z</time>
      </trkpt>
      <trkpt lat="43.2447" lon="5.67653">
        <ele>446</ele>
        <time>2020-09-16T11:14:24Z</time>
      </trkpt>
      <trkpt lat="43.2447" lon="5.67659">
        <ele>446</ele>
        <time>2020-09-16T11:14:30Z</time>
      </trkpt>
      <trkpt lat="43.2447" lon="5.67668">
        <ele>447</ele>
        <time>2020-09-16T11:14:36Z</time>
      </trkpt>
      <trkpt lat="43.2447" lon="5.67674">
        <ele>448</ele>
        <time>2020-09-16T11:14:40Z</time>
      </trkpt>
      <trkpt lat="43.2447" lon="5.67684">
        <ele>448</ele>
        <time>2020-09-16T11:14:46Z</time>
      </trkpt>
      <trkpt lat="43.24471" lon="5.67692">
        <ele>448</ele>
        <time>2020-09-16T11:14:52Z</time>
      </trkpt>
      <trkpt lat="43.24472" lon="5.677">
        <ele>448</ele>
        <time>2020-09-16T11:14:58Z</time>
      </trkpt>
      <trkpt lat="43.24473" lon="5.67708">
        <ele>448</ele>
        <time>2020-09-16T11:15:04Z</time>
      </trkpt>
      <trkpt lat="43.24474" lon="5.67716">
        <ele>448</ele>
        <time>2020-09-16T11:15:10Z</time>
      </trkpt>
      <trkpt lat="43.24474" lon="5.67725">
        <ele>448</ele>
        <time>2020-09-16T11:15:16Z</time>
      </trkpt>
      <trkpt lat="43.24474" lon="5.67734">
        <ele>448</ele>
        <time>2020-09-16T11:15:22Z</time>
      </trkpt>
      <trkpt lat="43.24474" lon="5.67742">
        <ele>448</ele>
        <time>2020-09-16T11:15:28Z</time>
      </trkpt>
      <trkpt lat="43.24474" lon="5.6775">
        <ele>448</ele>
        <time>2020-09-16T11:15:34Z</time>
      </trkpt>
      <trkpt lat="43.24474" lon="5.67759">
        <ele>450</ele>
        <time>2020-09-16T11:15:40Z</time>
      </trkpt>
      <trkpt lat="43.24474" lon="5.67766">
        <ele>450</ele>
        <time>2020-09-16T11:15:44Z</time>
      </trkpt>
      <trkpt lat="43.24474" lon="5.67774">
        <ele>450</ele>
        <time>2020-09-16T11:15:50Z</time>
      </trkpt>
      <trkpt lat="43.24475" lon="5.67783">
        <ele>450</ele>
        <time>2020-09-16T11:15:56Z</time>
      </trkpt>
      <trkpt lat="43.24475" lon="5.67792">
        <ele>450</ele>
        <time>2020-09-16T11:16:02Z</time>
      </trkpt>
      <trkpt lat="43.24476" lon="5.678">
        <ele>450</ele>
        <time>2020-09-16T11:16:08Z</time>
      </trkpt>
      <trkpt lat="43.24476" lon="5.67808">
        <ele>450</ele>
        <time>2020-09-16T11:16:14Z</time>
      </trkpt>
      <trkpt lat="43.24476" lon="5.67817">
        <ele>450</ele>
        <time>2020-09-16T11:16:20Z</time>
      </trkpt>
      <trkpt lat="43.24476" lon="5.67823">
        <ele>450</ele>
        <time>2020-09-16T11:16:24Z</time>
      </trkpt>
      <trkpt lat="43.24476" lon="5.6783">
        <ele>450</ele>
        <time>2020-09-16T11:16:28Z</time>
      </trkpt>
      <trkpt lat="43.24475" lon="5.67838">
        <ele>451</ele>
        <time>2020-09-16T11:16:34Z</time>
      </trkpt>
      <trkpt lat="43.24476" lon="5.67847">
        <ele>451</ele>
        <time>2020-09-16T11:16:40Z</time>
      </trkpt>
      <trkpt lat="43.24476" lon="5.67853">
        <ele>451</ele>
        <time>2020-09-16T11:16:46Z</time>
      </trkpt>
      <trkpt lat="43.24476" lon="5.6786">
        <ele>451</ele>
        <time>2020-09-16T11:16:52Z</time>
      </trkpt>
      <trkpt lat="43.24476" lon="5.67867">
        <ele>451</ele>
        <time>2020-09-16T11:16:58Z</time>
      </trkpt>
      <trkpt lat="43.24477" lon="5.67875">
        <ele>451</ele>
        <time>2020-09-16T11:17:04Z</time>
      </trkpt>
      <trkpt lat="43.24477" lon="5.67883">
        <ele>451</ele>
        <time>2020-09-16T11:17:10Z</time>
      </trkpt>
      <trkpt lat="43.24478" lon="5.67891">
        <ele>451</ele>
        <time>2020-09-16T11:17:14Z</time>
      </trkpt>
      <trkpt lat="43.24478" lon="5.67898">
        <ele>451</ele>
        <time>2020-09-16T11:17:18Z</time>
      </trkpt>
      <trkpt lat="43.24479" lon="5.67904">
        <ele>451</ele>
        <time>2020-09-16T11:17:22Z</time>
      </trkpt>
      <trkpt lat="43.2448" lon="5.67911">
        <ele>451</ele>
        <time>2020-09-16T11:17:28Z</time>
      </trkpt>
      <trkpt lat="43.24481" lon="5.67918">
        <ele>452</ele>
        <time>2020-09-16T11:17:34Z</time>
      </trkpt>
      <trkpt lat="43.24482" lon="5.67924">
        <ele>452</ele>
        <time>2020-09-16T11:17:38Z</time>
      </trkpt>
      <trkpt lat="43.24483" lon="5.67931">
        <ele>453</ele>
        <time>2020-09-16T11:17:44Z</time>
      </trkpt>
      <trkpt lat="43.24485" lon="5.6794">
        <ele>453</ele>
        <time>2020-09-16T11:17:50Z</time>
      </trkpt>
      <trkpt lat="43.24487" lon="5.67949">
        <ele>453</ele>
        <time>2020-09-16T11:17:54Z</time>
      </trkpt>
      <trkpt lat="43.24488" lon="5.67956">
        <ele>454</ele>
        <time>2020-09-16T11:17:58Z</time>
      </trkpt>
      <trkpt lat="43.24489" lon="5.67963">
        <ele>454</ele>
        <time>2020-09-16T11:18:02Z</time>
      </trkpt>
      <trkpt lat="43.24492" lon="5.6797">
        <ele>454</ele>
        <time>2020-09-16T11:18:06Z</time>
      </trkpt>
      <trkpt lat="43.24495" lon="5.67977">
        <ele>454</ele>
        <time>2020-09-16T11:18:12Z</time>
      </trkpt>
      <trkpt lat="43.24498" lon="5.67983">
        <ele>455</ele>
        <time>2020-09-16T11:18:18Z</time>
      </trkpt>
      <trkpt lat="43.24501" lon="5.67988">
        <ele>451</ele>
        <time>2020-09-16T11:18:22Z</time>
      </trkpt>
      <trkpt lat="43.24506" lon="5.67994">
        <ele>452</ele>
        <time>2020-09-16T11:18:28Z</time>
      </trkpt>
      <trkpt lat="43.24511" lon="5.68001">
        <ele>453</ele>
        <time>2020-09-16T11:18:34Z</time>
      </trkpt>
      <trkpt lat="43.24515" lon="5.68006">
        <ele>452</ele>
        <time>2020-09-16T11:18:40Z</time>
      </trkpt>
      <trkpt lat="43.24519" lon="5.68013">
        <ele>451</ele>
        <time>2020-09-16T11:18:46Z</time>
      </trkpt>
      <trkpt lat="43.24523" lon="5.6802">
        <ele>450</ele>
        <time>2020-09-16T11:18:52Z</time>
      </trkpt>
      <trkpt lat="43.24527" lon="5.68026">
        <ele>450</ele>
        <time>2020-09-16T11:18:58Z</time>
      </trkpt>
      <trkpt lat="43.24529" lon="5.68031">
        <ele>449</ele>
        <time>2020-09-16T11:19:02Z</time>
      </trkpt>
      <trkpt lat="43.24531" lon="5.68037">
        <ele>449</ele>
        <time>2020-09-16T11:19:06Z</time>
      </trkpt>
      <trkpt lat="43.24532" lon="5.68045">
        <ele>449</ele>
        <time>2020-09-16T11:19:12Z</time>
      </trkpt>
      <trkpt lat="43.24534" lon="5.68053">
        <ele>449</ele>
        <time>2020-09-16T11:19:18Z</time>
      </trkpt>
      <trkpt lat="43.24537" lon="5.68062">
        <ele>450</ele>
        <time>2020-09-16T11:19:24Z</time>
      </trkpt>
      <trkpt lat="43.24539" lon="5.68069">
        <ele>450</ele>
        <time>2020-09-16T11:19:30Z</time>
      </trkpt>
      <trkpt lat="43.2454" lon="5.68077">
        <ele>450</ele>
        <time>2020-09-16T11:19:38Z</time>
      </trkpt>
      <trkpt lat="43.24541" lon="5.68083">
        <ele>450</ele>
        <time>2020-09-16T11:19:44Z</time>
      </trkpt>
      <trkpt lat="43.24538" lon="5.68088">
        <ele>450</ele>
        <time>2020-09-16T11:20:44Z</time>
      </trkpt>
      <trkpt lat="43.24536" lon="5.68095">
        <ele>450</ele>
        <time>2020-09-16T11:23:14Z</time>
      </trkpt>
      <trkpt lat="43.24534" lon="5.68102">
        <ele>450</ele>
        <time>2020-09-16T11:23:22Z</time>
      </trkpt>
      <trkpt lat="43.24531" lon="5.68109">
        <ele>450</ele>
        <time>2020-09-16T11:23:28Z</time>
      </trkpt>
      <trkpt lat="43.24528" lon="5.68114">
        <ele>450</ele>
        <time>2020-09-16T11:23:32Z</time>
      </trkpt>
      <trkpt lat="43.24525" lon="5.68118">
        <ele>450</ele>
        <time>2020-09-16T11:23:36Z</time>
      </trkpt>
      <trkpt lat="43.24519" lon="5.68122">
        <ele>450</ele>
        <time>2020-09-16T11:23:42Z</time>
      </trkpt>
      <trkpt lat="43.24514" lon="5.68126">
        <ele>450</ele>
        <time>2020-09-16T11:23:46Z</time>
      </trkpt>
      <trkpt lat="43.24511" lon="5.68131">
        <ele>450</ele>
        <time>2020-09-16T11:23:50Z</time>
      </trkpt>
      <trkpt lat="43.24508" lon="5.68136">
        <ele>450</ele>
        <time>2020-09-16T11:23:54Z</time>
      </trkpt>
      <trkpt lat="43.24504" lon="5.6814">
        <ele>450</ele>
        <time>2020-09-16T11:23:58Z</time>
      </trkpt>
      <trkpt lat="43.245" lon="5.68144">
        <ele>452</ele>
        <time>2020-09-16T11:24:02Z</time>
      </trkpt>
      <trkpt lat="43.24496" lon="5.68148">
        <ele>452</ele>
        <time>2020-09-16T11:24:06Z</time>
      </trkpt>
      <trkpt lat="43.24491" lon="5.68152">
        <ele>451</ele>
        <time>2020-09-16T11:24:12Z</time>
      </trkpt>
      <trkpt lat="43.24485" lon="5.68155">
        <ele>452</ele>
        <time>2020-09-16T11:24:18Z</time>
      </trkpt>
      <trkpt lat="43.2448" lon="5.68158">
        <ele>452</ele>
        <time>2020-09-16T11:24:24Z</time>
      </trkpt>
      <trkpt lat="43.24476" lon="5.68162">
        <ele>452</ele>
        <time>2020-09-16T11:24:28Z</time>
      </trkpt>
      <trkpt lat="43.24472" lon="5.68166">
        <ele>452</ele>
        <time>2020-09-16T11:24:32Z</time>
      </trkpt>
      <trkpt lat="43.24467" lon="5.6817">
        <ele>449</ele>
        <time>2020-09-16T11:24:38Z</time>
      </trkpt>
      <trkpt lat="43.24463" lon="5.68174">
        <ele>449</ele>
        <time>2020-09-16T11:24:46Z</time>
      </trkpt>
      <trkpt lat="43.24459" lon="5.68179">
        <ele>449</ele>
        <time>2020-09-16T11:24:52Z</time>
      </trkpt>
      <trkpt lat="43.24454" lon="5.68185">
        <ele>449</ele>
        <time>2020-09-16T11:24:58Z</time>
      </trkpt>
      <trkpt lat="43.2445" lon="5.68189">
        <ele>449</ele>
        <time>2020-09-16T11:25:02Z</time>
      </trkpt>
      <trkpt lat="43.24447" lon="5.68196">
        <ele>449</ele>
        <time>2020-09-16T11:25:08Z</time>
      </trkpt>
      <trkpt lat="43.24445" lon="5.68201">
        <ele>448</ele>
        <time>2020-09-16T11:25:12Z</time>
      </trkpt>
      <trkpt lat="43.24443" lon="5.68207">
        <ele>448</ele>
        <time>2020-09-16T11:25:16Z</time>
      </trkpt>
      <trkpt lat="43.24441" lon="5.68212">
        <ele>448</ele>
        <time>2020-09-16T11:25:20Z</time>
      </trkpt>
      <trkpt lat="43.24439" lon="5.68218">
        <ele>448</ele>
        <time>2020-09-16T11:25:24Z</time>
      </trkpt>
      <trkpt lat="43.24436" lon="5.68225">
        <ele>448</ele>
        <time>2020-09-16T11:25:28Z</time>
      </trkpt>
      <trkpt lat="43.24434" lon="5.68233">
        <ele>448</ele>
        <time>2020-09-16T11:25:32Z</time>
      </trkpt>
      <trkpt lat="43.24431" lon="5.68241">
        <ele>448</ele>
        <time>2020-09-16T11:25:36Z</time>
      </trkpt>
      <trkpt lat="43.24429" lon="5.68247">
        <ele>448</ele>
        <time>2020-09-16T11:25:40Z</time>
      </trkpt>
      <trkpt lat="43.24425" lon="5.68255">
        <ele>446</ele>
        <time>2020-09-16T11:25:46Z</time>
      </trkpt>
      <trkpt lat="43.24422" lon="5.68261">
        <ele>446</ele>
        <time>2020-09-16T11:25:52Z</time>
      </trkpt>
      <trkpt lat="43.24418" lon="5.68268">
        <ele>445</ele>
        <time>2020-09-16T11:25:58Z</time>
      </trkpt>
      <trkpt lat="43.24415" lon="5.68273">
        <ele>448</ele>
        <time>2020-09-16T11:26:02Z</time>
      </trkpt>
      <trkpt lat="43.24413" lon="5.68279">
        <ele>448</ele>
        <time>2020-09-16T11:26:06Z</time>
      </trkpt>
      <trkpt lat="43.24409" lon="5.68284">
        <ele>448</ele>
        <time>2020-09-16T11:26:10Z</time>
      </trkpt>
      <trkpt lat="43.24406" lon="5.6829">
        <ele>447</ele>
        <time>2020-09-16T11:26:14Z</time>
      </trkpt>
      <trkpt lat="43.24403" lon="5.68296">
        <ele>447</ele>
        <time>2020-09-16T11:26:18Z</time>
      </trkpt>
      <trkpt lat="43.24401" lon="5.68303">
        <ele>447</ele>
        <time>2020-09-16T11:26:22Z</time>
      </trkpt>
      <trkpt lat="43.24399" lon="5.6831">
        <ele>447</ele>
        <time>2020-09-16T11:26:26Z</time>
      </trkpt>
      <trkpt lat="43.24398" lon="5.68317">
        <ele>447</ele>
        <time>2020-09-16T11:26:30Z</time>
      </trkpt>
      <trkpt lat="43.24398" lon="5.68324">
        <ele>446</ele>
        <time>2020-09-16T11:26:34Z</time>
      </trkpt>
      <trkpt lat="43.24399" lon="5.68331">
        <ele>446</ele>
        <time>2020-09-16T11:26:38Z</time>
      </trkpt>
      <trkpt lat="43.244" lon="5.6834">
        <ele>445</ele>
        <time>2020-09-16T11:26:44Z</time>
      </trkpt>
      <trkpt lat="43.24401" lon="5.68346">
        <ele>445</ele>
        <time>2020-09-16T11:26:48Z</time>
      </trkpt>
      <trkpt lat="43.24403" lon="5.68355">
        <ele>445</ele>
        <time>2020-09-16T11:26:54Z</time>
      </trkpt>
      <trkpt lat="43.24405" lon="5.68361">
        <ele>444</ele>
        <time>2020-09-16T11:26:58Z</time>
      </trkpt>
      <trkpt lat="43.24407" lon="5.6837">
        <ele>444</ele>
        <time>2020-09-16T11:27:04Z</time>
      </trkpt>
      <trkpt lat="43.24409" lon="5.68378">
        <ele>444</ele>
        <time>2020-09-16T11:27:10Z</time>
      </trkpt>
      <trkpt lat="43.2441" lon="5.68384">
        <ele>444</ele>
        <time>2020-09-16T11:27:14Z</time>
      </trkpt>
      <trkpt lat="43.24412" lon="5.6839">
        <ele>443</ele>
        <time>2020-09-16T11:27:18Z</time>
      </trkpt>
      <trkpt lat="43.24414" lon="5.68398">
        <ele>443</ele>
        <time>2020-09-16T11:27:24Z</time>
      </trkpt>
      <trkpt lat="43.24415" lon="5.68406">
        <ele>442</ele>
        <time>2020-09-16T11:27:30Z</time>
      </trkpt>
      <trkpt lat="43.24416" lon="5.68414">
        <ele>441</ele>
        <time>2020-09-16T11:27:36Z</time>
      </trkpt>
      <trkpt lat="43.24417" lon="5.6842">
        <ele>440</ele>
        <time>2020-09-16T11:27:40Z</time>
      </trkpt>
      <trkpt lat="43.24418" lon="5.68427">
        <ele>438</ele>
        <time>2020-09-16T11:27:44Z</time>
      </trkpt>
      <trkpt lat="43.24418" lon="5.68433">
        <ele>437</ele>
        <time>2020-09-16T11:27:48Z</time>
      </trkpt>
      <trkpt lat="43.24418" lon="5.68441">
        <ele>436</ele>
        <time>2020-09-16T11:27:54Z</time>
      </trkpt>
      <trkpt lat="43.24418" lon="5.68451">
        <ele>435</ele>
        <time>2020-09-16T11:28:00Z</time>
      </trkpt>
      <trkpt lat="43.24418" lon="5.68457">
        <ele>435</ele>
        <time>2020-09-16T11:28:04Z</time>
      </trkpt>
      <trkpt lat="43.24417" lon="5.68464">
        <ele>435</ele>
        <time>2020-09-16T11:28:08Z</time>
      </trkpt>
      <trkpt lat="43.24417" lon="5.68472">
        <ele>441</ele>
        <time>2020-09-16T11:28:14Z</time>
      </trkpt>
      <trkpt lat="43.24415" lon="5.68481">
        <ele>440</ele>
        <time>2020-09-16T11:28:20Z</time>
      </trkpt>
      <trkpt lat="43.24415" lon="5.68489">
        <ele>440</ele>
        <time>2020-09-16T11:28:26Z</time>
      </trkpt>
      <trkpt lat="43.24412" lon="5.68497">
        <ele>439</ele>
        <time>2020-09-16T11:28:32Z</time>
      </trkpt>
      <trkpt lat="43.2441" lon="5.68505">
        <ele>438</ele>
        <time>2020-09-16T11:28:38Z</time>
      </trkpt>
      <trkpt lat="43.24408" lon="5.68513">
        <ele>438</ele>
        <time>2020-09-16T11:28:44Z</time>
      </trkpt>
      <trkpt lat="43.24406" lon="5.68521">
        <ele>437</ele>
        <time>2020-09-16T11:28:50Z</time>
      </trkpt>
      <trkpt lat="43.24403" lon="5.68529">
        <ele>437</ele>
        <time>2020-09-16T11:28:56Z</time>
      </trkpt>
      <trkpt lat="43.24401" lon="5.68537">
        <ele>436</ele>
        <time>2020-09-16T11:29:02Z</time>
      </trkpt>
      <trkpt lat="43.24398" lon="5.68546">
        <ele>436</ele>
        <time>2020-09-16T11:29:08Z</time>
      </trkpt>
      <trkpt lat="43.24396" lon="5.68553">
        <ele>435</ele>
        <time>2020-09-16T11:29:14Z</time>
      </trkpt>
      <trkpt lat="43.24395" lon="5.68559">
        <ele>435</ele>
        <time>2020-09-16T11:29:20Z</time>
      </trkpt>
      <trkpt lat="43.24392" lon="5.68566">
        <ele>435</ele>
        <time>2020-09-16T11:29:26Z</time>
      </trkpt>
      <trkpt lat="43.24389" lon="5.68574">
        <ele>434</ele>
        <time>2020-09-16T11:29:32Z</time>
      </trkpt>
      <trkpt lat="43.24387" lon="5.68581">
        <ele>434</ele>
        <time>2020-09-16T11:29:38Z</time>
      </trkpt>
      <trkpt lat="43.24384" lon="5.68588">
        <ele>429</ele>
        <time>2020-09-16T11:29:44Z</time>
      </trkpt>
      <trkpt lat="43.24382" lon="5.68596">
        <ele>429</ele>
        <time>2020-09-16T11:29:50Z</time>
      </trkpt>
      <trkpt lat="43.24379" lon="5.68603">
        <ele>428</ele>
        <time>2020-09-16T11:29:56Z</time>
      </trkpt>
      <trkpt lat="43.24376" lon="5.6861">
        <ele>428</ele>
        <time>2020-09-16T11:30:02Z</time>
      </trkpt>
      <trkpt lat="43.24373" lon="5.68617">
        <ele>428</ele>
        <time>2020-09-16T11:30:08Z</time>
      </trkpt>
      <trkpt lat="43.24369" lon="5.68623">
        <ele>427</ele>
        <time>2020-09-16T11:30:14Z</time>
      </trkpt>
      <trkpt lat="43.24366" lon="5.68629">
        <ele>427</ele>
        <time>2020-09-16T11:30:20Z</time>
      </trkpt>
      <trkpt lat="43.24362" lon="5.68634">
        <ele>427</ele>
        <time>2020-09-16T11:30:26Z</time>
      </trkpt>
      <trkpt lat="43.24359" lon="5.6864">
        <ele>426</ele>
        <time>2020-09-16T11:30:32Z</time>
      </trkpt>
      <trkpt lat="43.24355" lon="5.68646">
        <ele>426</ele>
        <time>2020-09-16T11:30:38Z</time>
      </trkpt>
      <trkpt lat="43.24353" lon="5.68652">
        <ele>426</ele>
        <time>2020-09-16T11:30:44Z</time>
      </trkpt>
      <trkpt lat="43.2435" lon="5.6866">
        <ele>425</ele>
        <time>2020-09-16T11:30:50Z</time>
      </trkpt>
      <trkpt lat="43.24347" lon="5.68667">
        <ele>421</ele>
        <time>2020-09-16T11:30:56Z</time>
      </trkpt>
      <trkpt lat="43.24345" lon="5.68674">
        <ele>421</ele>
        <time>2020-09-16T11:31:02Z</time>
      </trkpt>
      <trkpt lat="43.24342" lon="5.68681">
        <ele>421</ele>
        <time>2020-09-16T11:31:08Z</time>
      </trkpt>
      <trkpt lat="43.24339" lon="5.68688">
        <ele>420</ele>
        <time>2020-09-16T11:31:14Z</time>
      </trkpt>
      <trkpt lat="43.24337" lon="5.68695">
        <ele>419</ele>
        <time>2020-09-16T11:31:20Z</time>
      </trkpt>
      <trkpt lat="43.24335" lon="5.68702">
        <ele>418</ele>
        <time>2020-09-16T11:31:26Z</time>
      </trkpt>
      <trkpt lat="43.24333" lon="5.68709">
        <ele>420</ele>
        <time>2020-09-16T11:31:32Z</time>
      </trkpt>
      <trkpt lat="43.24331" lon="5.68715">
        <ele>419</ele>
        <time>2020-09-16T11:31:38Z</time>
      </trkpt>
      <trkpt lat="43.24329" lon="5.68722">
        <ele>419</ele>
        <time>2020-09-16T11:31:44Z</time>
      </trkpt>
      <trkpt lat="43.24326" lon="5.68729">
        <ele>418</ele>
        <time>2020-09-16T11:31:50Z</time>
      </trkpt>
      <trkpt lat="43.24323" lon="5.68736">
        <ele>418</ele>
        <time>2020-09-16T11:31:56Z</time>
      </trkpt>
      <trkpt lat="43.2432" lon="5.68741">
        <ele>417</ele>
        <time>2020-09-16T11:32:02Z</time>
      </trkpt>
      <trkpt lat="43.24316" lon="5.68747">
        <ele>417</ele>
        <time>2020-09-16T11:32:08Z</time>
      </trkpt>
      <trkpt lat="43.24313" lon="5.68755">
        <ele>413</ele>
        <time>2020-09-16T11:32:14Z</time>
      </trkpt>
      <trkpt lat="43.24309" lon="5.68761">
        <ele>412</ele>
        <time>2020-09-16T11:32:20Z</time>
      </trkpt>
      <trkpt lat="43.24308" lon="5.68768">
        <ele>412</ele>
        <time>2020-09-16T11:32:28Z</time>
      </trkpt>
      <trkpt lat="43.24308" lon="5.68774">
        <ele>411</ele>
        <time>2020-09-16T11:32:38Z</time>
      </trkpt>
      <trkpt lat="43.24305" lon="5.6878">
        <ele>411</ele>
        <time>2020-09-16T11:32:58Z</time>
      </trkpt>
      <trkpt lat="43.24304" lon="5.68787">
        <ele>411</ele>
        <time>2020-09-16T11:33:04Z</time>
      </trkpt>
      <trkpt lat="43.24302" lon="5.68795">
        <ele>410</ele>
        <time>2020-09-16T11:33:10Z</time>
      </trkpt>
      <trkpt lat="43.24301" lon="5.68801">
        <ele>410</ele>
        <time>2020-09-16T11:33:16Z</time>
      </trkpt>
      <trkpt lat="43.24302" lon="5.68808">
        <ele>409</ele>
        <time>2020-09-16T11:33:22Z</time>
      </trkpt>
      <trkpt lat="43.24305" lon="5.68815">
        <ele>409</ele>
        <time>2020-09-16T11:33:28Z</time>
      </trkpt>
      <trkpt lat="43.24309" lon="5.6882">
        <ele>408</ele>
        <time>2020-09-16T11:33:34Z</time>
      </trkpt>
      <trkpt lat="43.24313" lon="5.68824">
        <ele>408</ele>
        <time>2020-09-16T11:33:40Z</time>
      </trkpt>
      <trkpt lat="43.24318" lon="5.68825">
        <ele>407</ele>
        <time>2020-09-16T11:33:46Z</time>
      </trkpt>
      <trkpt lat="43.24322" lon="5.6883">
        <ele>407</ele>
        <time>2020-09-16T11:33:52Z</time>
      </trkpt>
      <trkpt lat="43.24325" lon="5.68835">
        <ele>404</ele>
        <time>2020-09-16T11:33:58Z</time>
      </trkpt>
      <trkpt lat="43.2433" lon="5.6884">
        <ele>404</ele>
        <time>2020-09-16T11:34:04Z</time>
      </trkpt>
      <trkpt lat="43.24334" lon="5.68845">
        <ele>402</ele>
        <time>2020-09-16T11:34:10Z</time>
      </trkpt>
      <trkpt lat="43.24337" lon="5.68849">
        <ele>402</ele>
        <time>2020-09-16T11:34:16Z</time>
      </trkpt>
      <trkpt lat="43.24342" lon="5.68853">
        <ele>401</ele>
        <time>2020-09-16T11:34:22Z</time>
      </trkpt>
      <trkpt lat="43.24347" lon="5.68856">
        <ele>401</ele>
        <time>2020-09-16T11:34:28Z</time>
      </trkpt>
      <trkpt lat="43.24351" lon="5.6886">
        <ele>400</ele>
        <time>2020-09-16T11:34:34Z</time>
      </trkpt>
      <trkpt lat="43.24355" lon="5.68864">
        <ele>400</ele>
        <time>2020-09-16T11:34:40Z</time>
      </trkpt>
      <trkpt lat="43.2436" lon="5.68869">
        <ele>400</ele>
        <time>2020-09-16T11:34:48Z</time>
      </trkpt>
      <trkpt lat="43.24361" lon="5.68875">
        <ele>400</ele>
        <time>2020-09-16T11:34:54Z</time>
      </trkpt>
      <trkpt lat="43.24359" lon="5.68881">
        <ele>399</ele>
        <time>2020-09-16T11:35:00Z</time>
      </trkpt>
      <trkpt lat="43.24355" lon="5.68885">
        <ele>399</ele>
        <time>2020-09-16T11:35:06Z</time>
      </trkpt>
      <trkpt lat="43.2435" lon="5.6889">
        <ele>399</ele>
        <time>2020-09-16T11:35:12Z</time>
      </trkpt>
      <trkpt lat="43.24346" lon="5.68896">
        <ele>399</ele>
        <time>2020-09-16T11:35:18Z</time>
      </trkpt>
      <trkpt lat="43.24342" lon="5.68902">
        <ele>399</ele>
        <time>2020-09-16T11:35:24Z</time>
      </trkpt>
      <trkpt lat="43.24338" lon="5.68907">
        <ele>398</ele>
        <time>2020-09-16T11:35:30Z</time>
      </trkpt>
      <trkpt lat="43.24335" lon="5.6891">
        <ele>398</ele>
        <time>2020-09-16T11:35:36Z</time>
      </trkpt>
      <trkpt lat="43.24334" lon="5.68918">
        <ele>398</ele>
        <time>2020-09-16T11:35:44Z</time>
      </trkpt>
      <trkpt lat="43.24332" lon="5.68924">
        <ele>399</ele>
        <time>2020-09-16T11:35:50Z</time>
      </trkpt>
      <trkpt lat="43.24327" lon="5.68926">
        <ele>400</ele>
        <time>2020-09-16T11:35:58Z</time>
      </trkpt>
      <trkpt lat="43.24323" lon="5.6893">
        <ele>401</ele>
        <time>2020-09-16T11:36:06Z</time>
      </trkpt>
      <trkpt lat="43.24318" lon="5.68927">
        <ele>401</ele>
        <time>2020-09-16T11:36:12Z</time>
      </trkpt>
      <trkpt lat="43.24314" lon="5.68924">
        <ele>401</ele>
        <time>2020-09-16T11:36:18Z</time>
      </trkpt>
      <trkpt lat="43.24311" lon="5.68919">
        <ele>401</ele>
        <time>2020-09-16T11:36:36Z</time>
      </trkpt>
      <trkpt lat="43.24307" lon="5.68915">
        <ele>402</ele>
        <time>2020-09-16T11:37:00Z</time>
      </trkpt>
      <trkpt lat="43.24302" lon="5.68911">
        <ele>403</ele>
        <time>2020-09-16T11:37:08Z</time>
      </trkpt>
      <trkpt lat="43.24298" lon="5.68908">
        <ele>403</ele>
        <time>2020-09-16T11:37:14Z</time>
      </trkpt>
      <trkpt lat="43.24292" lon="5.68908">
        <ele>403</ele>
        <time>2020-09-16T11:37:20Z</time>
      </trkpt>
      <trkpt lat="43.24288" lon="5.68904">
        <ele>404</ele>
        <time>2020-09-16T11:37:32Z</time>
      </trkpt>
      <trkpt lat="43.24283" lon="5.68903">
        <ele>404</ele>
        <time>2020-09-16T11:37:40Z</time>
      </trkpt>
      <trkpt lat="43.2428" lon="5.68899">
        <ele>404</ele>
        <time>2020-09-16T11:38:02Z</time>
      </trkpt>
      <trkpt lat="43.24274" lon="5.689">
        <ele>404</ele>
        <time>2020-09-16T11:38:10Z</time>
      </trkpt>
      <trkpt lat="43.24268" lon="5.68899">
        <ele>405</ele>
        <time>2020-09-16T11:38:16Z</time>
      </trkpt>
      <trkpt lat="43.24262" lon="5.68898">
        <ele>405</ele>
        <time>2020-09-16T11:38:22Z</time>
      </trkpt>
      <trkpt lat="43.24258" lon="5.68897">
        <ele>405</ele>
        <time>2020-09-16T11:38:28Z</time>
      </trkpt>
      <trkpt lat="43.24252" lon="5.68897">
        <ele>405</ele>
        <time>2020-09-16T11:38:34Z</time>
      </trkpt>
      <trkpt lat="43.24247" lon="5.68895">
        <ele>408</ele>
        <time>2020-09-16T11:38:40Z</time>
      </trkpt>
      <trkpt lat="43.24242" lon="5.68893">
        <ele>408</ele>
        <time>2020-09-16T11:38:46Z</time>
      </trkpt>
      <trkpt lat="43.24237" lon="5.68892">
        <ele>409</ele>
        <time>2020-09-16T11:38:52Z</time>
      </trkpt>
      <trkpt lat="43.24232" lon="5.6889">
        <ele>409</ele>
        <time>2020-09-16T11:39:00Z</time>
      </trkpt>
      <trkpt lat="43.24226" lon="5.6889">
        <ele>409</ele>
        <time>2020-09-16T11:39:06Z</time>
      </trkpt>
      <trkpt lat="43.24221" lon="5.68889">
        <ele>409</ele>
        <time>2020-09-16T11:39:12Z</time>
      </trkpt>
      <trkpt lat="43.24217" lon="5.68888">
        <ele>410</ele>
        <time>2020-09-16T11:39:16Z</time>
      </trkpt>
      <trkpt lat="43.24211" lon="5.68889">
        <ele>410</ele>
        <time>2020-09-16T11:39:22Z</time>
      </trkpt>
      <trkpt lat="43.24205" lon="5.68888">
        <ele>410</ele>
        <time>2020-09-16T11:39:30Z</time>
      </trkpt>
      <trkpt lat="43.24199" lon="5.68888">
        <ele>410</ele>
        <time>2020-09-16T11:39:36Z</time>
      </trkpt>
      <trkpt lat="43.24193" lon="5.68887">
        <ele>410</ele>
        <time>2020-09-16T11:39:42Z</time>
      </trkpt>
      <trkpt lat="43.24189" lon="5.68887">
        <ele>411</ele>
        <time>2020-09-16T11:39:48Z</time>
      </trkpt>
      <trkpt lat="43.24184" lon="5.68887">
        <ele>411</ele>
        <time>2020-09-16T11:39:54Z</time>
      </trkpt>
      <trkpt lat="43.24179" lon="5.68886">
        <ele>411</ele>
        <time>2020-09-16T11:40:00Z</time>
      </trkpt>
      <trkpt lat="43.24173" lon="5.68884">
        <ele>411</ele>
        <time>2020-09-16T11:40:06Z</time>
      </trkpt>
      <trkpt lat="43.24169" lon="5.68882">
        <ele>411</ele>
        <time>2020-09-16T11:40:12Z</time>
      </trkpt>
      <trkpt lat="43.24164" lon="5.6888">
        <ele>413</ele>
        <time>2020-09-16T11:40:18Z</time>
      </trkpt>
      <trkpt lat="43.24159" lon="5.68881">
        <ele>413</ele>
        <time>2020-09-16T11:40:24Z</time>
      </trkpt>
      <trkpt lat="43.24154" lon="5.68882">
        <ele>413</ele>
        <time>2020-09-16T11:40:32Z</time>
      </trkpt>
      <trkpt lat="43.24148" lon="5.68882">
        <ele>413</ele>
        <time>2020-09-16T11:40:40Z</time>
      </trkpt>
      <trkpt lat="43.24144" lon="5.68882">
        <ele>413</ele>
        <time>2020-09-16T11:40:46Z</time>
      </trkpt>
      <trkpt lat="43.24138" lon="5.68883">
        <ele>413</ele>
        <time>2020-09-16T11:40:52Z</time>
      </trkpt>
      <trkpt lat="43.24133" lon="5.68885">
        <ele>413</ele>
        <time>2020-09-16T11:40:58Z</time>
      </trkpt>
      <trkpt lat="43.24127" lon="5.68887">
        <ele>413</ele>
        <time>2020-09-16T11:41:04Z</time>
      </trkpt>
      <trkpt lat="43.24123" lon="5.68887">
        <ele>413</ele>
        <time>2020-09-16T11:41:10Z</time>
      </trkpt>
      <trkpt lat="43.24117" lon="5.68888">
        <ele>413</ele>
        <time>2020-09-16T11:41:16Z</time>
      </trkpt>
      <trkpt lat="43.24112" lon="5.68889">
        <ele>413</ele>
        <time>2020-09-16T11:41:22Z</time>
      </trkpt>
      <trkpt lat="43.24106" lon="5.6889">
        <ele>413</ele>
        <time>2020-09-16T11:41:28Z</time>
      </trkpt>
      <trkpt lat="43.24101" lon="5.68891">
        <ele>413</ele>
        <time>2020-09-16T11:41:34Z</time>
      </trkpt>
      <trkpt lat="43.24096" lon="5.68892">
        <ele>413</ele>
        <time>2020-09-16T11:41:40Z</time>
      </trkpt>
      <trkpt lat="43.2409" lon="5.68892">
        <ele>413</ele>
        <time>2020-09-16T11:41:48Z</time>
      </trkpt>
      <trkpt lat="43.24086" lon="5.68893">
        <ele>413</ele>
        <time>2020-09-16T11:41:54Z</time>
      </trkpt>
      <trkpt lat="43.2408" lon="5.68894">
        <ele>415</ele>
        <time>2020-09-16T11:42:00Z</time>
      </trkpt>
      <trkpt lat="43.24076" lon="5.68896">
        <ele>415</ele>
        <time>2020-09-16T11:42:06Z</time>
      </trkpt>
      <trkpt lat="43.24071" lon="5.68899">
        <ele>415</ele>
        <time>2020-09-16T11:42:12Z</time>
      </trkpt>
      <trkpt lat="43.24067" lon="5.68902">
        <ele>415</ele>
        <time>2020-09-16T11:42:20Z</time>
      </trkpt>
      <trkpt lat="43.24068" lon="5.68908">
        <ele>415</ele>
        <time>2020-09-16T11:42:52Z</time>
      </trkpt>
      <trkpt lat="43.24069" lon="5.68914">
        <ele>415</ele>
        <time>2020-09-16T11:44:04Z</time>
      </trkpt>
      <trkpt lat="43.24071" lon="5.68921">
        <ele>415</ele>
        <time>2020-09-16T11:44:20Z</time>
      </trkpt>
      <trkpt lat="43.24073" lon="5.68929">
        <ele>415</ele>
        <time>2020-09-16T11:44:26Z</time>
      </trkpt>
      <trkpt lat="43.24075" lon="5.68937">
        <ele>416</ele>
        <time>2020-09-16T11:44:32Z</time>
      </trkpt>
      <trkpt lat="43.24076" lon="5.68945">
        <ele>416</ele>
        <time>2020-09-16T11:44:38Z</time>
      </trkpt>
      <trkpt lat="43.24078" lon="5.68953">
        <ele>417</ele>
        <time>2020-09-16T11:44:44Z</time>
      </trkpt>
      <trkpt lat="43.24079" lon="5.6896">
        <ele>417</ele>
        <time>2020-09-16T11:44:50Z</time>
      </trkpt>
      <trkpt lat="43.2408" lon="5.68968">
        <ele>417</ele>
        <time>2020-09-16T11:44:56Z</time>
      </trkpt>
      <trkpt lat="43.24082" lon="5.68976">
        <ele>417</ele>
        <time>2020-09-16T11:45:02Z</time>
      </trkpt>
      <trkpt lat="43.24083" lon="5.68983">
        <ele>418</ele>
        <time>2020-09-16T11:45:06Z</time>
      </trkpt>
      <trkpt lat="43.24083" lon="5.6899">
        <ele>418</ele>
        <time>2020-09-16T11:45:12Z</time>
      </trkpt>
      <trkpt lat="43.24085" lon="5.68998">
        <ele>418</ele>
        <time>2020-09-16T11:45:18Z</time>
      </trkpt>
      <trkpt lat="43.24084" lon="5.69006">
        <ele>419</ele>
        <time>2020-09-16T11:45:24Z</time>
      </trkpt>
      <trkpt lat="43.24082" lon="5.69014">
        <ele>419</ele>
        <time>2020-09-16T11:45:30Z</time>
      </trkpt>
      <trkpt lat="43.2408" lon="5.6902">
        <ele>420</ele>
        <time>2020-09-16T11:45:36Z</time>
      </trkpt>
      <trkpt lat="43.24079" lon="5.69029">
        <ele>420</ele>
        <time>2020-09-16T11:45:42Z</time>
      </trkpt>
      <trkpt lat="43.2408" lon="5.69037">
        <ele>421</ele>
        <time>2020-09-16T11:45:48Z</time>
      </trkpt>
      <trkpt lat="43.24083" lon="5.69043">
        <ele>421</ele>
        <time>2020-09-16T11:45:54Z</time>
      </trkpt>
      <trkpt lat="43.24087" lon="5.6905">
        <ele>421</ele>
        <time>2020-09-16T11:46:00Z</time>
      </trkpt>
      <trkpt lat="43.2409" lon="5.69055">
        <ele>422</ele>
        <time>2020-09-16T11:46:06Z</time>
      </trkpt>
      <trkpt lat="43.24093" lon="5.69063">
        <ele>422</ele>
        <time>2020-09-16T11:46:12Z</time>
      </trkpt>
      <trkpt lat="43.24095" lon="5.6907">
        <ele>422</ele>
        <time>2020-09-16T11:46:18Z</time>
      </trkpt>
      <trkpt lat="43.24098" lon="5.69078">
        <ele>423</ele>
        <time>2020-09-16T11:46:24Z</time>
      </trkpt>
      <trkpt lat="43.241" lon="5.69086">
        <ele>424</ele>
        <time>2020-09-16T11:46:30Z</time>
      </trkpt>
      <trkpt lat="43.24102" lon="5.69094">
        <ele>425</ele>
        <time>2020-09-16T11:46:36Z</time>
      </trkpt>
      <trkpt lat="43.24105" lon="5.69103">
        <ele>425</ele>
        <time>2020-09-16T11:46:42Z</time>
      </trkpt>
      <trkpt lat="43.24106" lon="5.69109">
        <ele>425</ele>
        <time>2020-09-16T11:46:46Z</time>
      </trkpt>
      <trkpt lat="43.24108" lon="5.69115">
        <ele>425</ele>
        <time>2020-09-16T11:46:50Z</time>
      </trkpt>
      <trkpt lat="43.2411" lon="5.69122">
        <ele>425</ele>
        <time>2020-09-16T11:46:56Z</time>
      </trkpt>
      <trkpt lat="43.24111" lon="5.69131">
        <ele>425</ele>
        <time>2020-09-16T11:47:02Z</time>
      </trkpt>
      <trkpt lat="43.24113" lon="5.69139">
        <ele>425</ele>
        <time>2020-09-16T11:47:08Z</time>
      </trkpt>
      <trkpt lat="43.24114" lon="5.69148">
        <ele>425</ele>
        <time>2020-09-16T11:47:14Z</time>
      </trkpt>
      <trkpt lat="43.24116" lon="5.69155">
        <ele>425</ele>
        <time>2020-09-16T11:47:20Z</time>
      </trkpt>
      <trkpt lat="43.24117" lon="5.69162">
        <ele>425</ele>
        <time>2020-09-16T11:47:26Z</time>
      </trkpt>
      <trkpt lat="43.24118" lon="5.69169">
        <ele>426</ele>
        <time>2020-09-16T11:47:32Z</time>
      </trkpt>
      <trkpt lat="43.24119" lon="5.69177">
        <ele>426</ele>
        <time>2020-09-16T11:47:38Z</time>
      </trkpt>
      <trkpt lat="43.2412" lon="5.69185">
        <ele>426</ele>
        <time>2020-09-16T11:47:44Z</time>
      </trkpt>
      <trkpt lat="43.24123" lon="5.69192">
        <ele>426</ele>
        <time>2020-09-16T11:47:48Z</time>
      </trkpt>
      <trkpt lat="43.24125" lon="5.69199">
        <ele>426</ele>
        <time>2020-09-16T11:47:52Z</time>
      </trkpt>
      <trkpt lat="43.24128" lon="5.69206">
        <ele>427</ele>
        <time>2020-09-16T11:47:58Z</time>
      </trkpt>
      <trkpt lat="43.2413" lon="5.69214">
        <ele>427</ele>
        <time>2020-09-16T11:48:04Z</time>
      </trkpt>
      <trkpt lat="43.24131" lon="5.69223">
        <ele>427</ele>
        <time>2020-09-16T11:48:10Z</time>
      </trkpt>
      <trkpt lat="43.24134" lon="5.69229">
        <ele>427</ele>
        <time>2020-09-16T11:48:16Z</time>
      </trkpt>
      <trkpt lat="43.24138" lon="5.69235">
        <ele>427</ele>
        <time>2020-09-16T11:48:20Z</time>
      </trkpt>
      <trkpt lat="43.24141" lon="5.69241">
        <ele>427</ele>
        <time>2020-09-16T11:48:24Z</time>
      </trkpt>
      <trkpt lat="43.24145" lon="5.69247">
        <ele>427</ele>
        <time>2020-09-16T11:48:30Z</time>
      </trkpt>
      <trkpt lat="43.24148" lon="5.69254">
        <ele>428</ele>
        <time>2020-09-16T11:48:36Z</time>
      </trkpt>
      <trkpt lat="43.2415" lon="5.6926">
        <ele>428</ele>
        <time>2020-09-16T11:48:40Z</time>
      </trkpt>
      <trkpt lat="43.24152" lon="5.69266">
        <ele>428</ele>
        <time>2020-09-16T11:48:44Z</time>
      </trkpt>
      <trkpt lat="43.24154" lon="5.69273">
        <ele>428</ele>
        <time>2020-09-16T11:48:48Z</time>
      </trkpt>
      <trkpt lat="43.24156" lon="5.6928">
        <ele>429</ele>
        <time>2020-09-16T11:48:52Z</time>
      </trkpt>
      <trkpt lat="43.2416" lon="5.69286">
        <ele>429</ele>
        <time>2020-09-16T11:48:56Z</time>
      </trkpt>
      <trkpt lat="43.24163" lon="5.69292">
        <ele>429</ele>
        <time>2020-09-16T11:49:00Z</time>
      </trkpt>
      <trkpt lat="43.24166" lon="5.69298">
        <ele>429</ele>
        <time>2020-09-16T11:49:04Z</time>
      </trkpt>
      <trkpt lat="43.24169" lon="5.69303">
        <ele>431</ele>
        <time>2020-09-16T11:49:08Z</time>
      </trkpt>
      <trkpt lat="43.24172" lon="5.69308">
        <ele>431</ele>
        <time>2020-09-16T11:49:12Z</time>
      </trkpt>
      <trkpt lat="43.24174" lon="5.69314">
        <ele>431</ele>
        <time>2020-09-16T11:49:16Z</time>
      </trkpt>
      <trkpt lat="43.24177" lon="5.6932">
        <ele>431</ele>
        <time>2020-09-16T11:49:20Z</time>
      </trkpt>
      <trkpt lat="43.24178" lon="5.69327">
        <ele>431</ele>
        <time>2020-09-16T11:49:26Z</time>
      </trkpt>
      <trkpt lat="43.24179" lon="5.69335">
        <ele>432</ele>
        <time>2020-09-16T11:49:32Z</time>
      </trkpt>
      <trkpt lat="43.24182" lon="5.69341">
        <ele>432</ele>
        <time>2020-09-16T11:49:38Z</time>
      </trkpt>
      <trkpt lat="43.24185" lon="5.69348">
        <ele>432</ele>
        <time>2020-09-16T11:49:44Z</time>
      </trkpt>
      <trkpt lat="43.24186" lon="5.69355">
        <ele>432</ele>
        <time>2020-09-16T11:49:48Z</time>
      </trkpt>
      <trkpt lat="43.24187" lon="5.69361">
        <ele>432</ele>
        <time>2020-09-16T11:49:52Z</time>
      </trkpt>
      <trkpt lat="43.24188" lon="5.69367">
        <ele>433</ele>
        <time>2020-09-16T11:49:56Z</time>
      </trkpt>
      <trkpt lat="43.24188" lon="5.69373">
        <ele>433</ele>
        <time>2020-09-16T11:50:00Z</time>
      </trkpt>
      <trkpt lat="43.24188" lon="5.6938">
        <ele>433</ele>
        <time>2020-09-16T11:50:04Z</time>
      </trkpt>
      <trkpt lat="43.24188" lon="5.69386">
        <ele>433</ele>
        <time>2020-09-16T11:50:10Z</time>
      </trkpt>
      <trkpt lat="43.2419" lon="5.69394">
        <ele>432</ele>
        <time>2020-09-16T11:50:16Z</time>
      </trkpt>
      <trkpt lat="43.24192" lon="5.69402">
        <ele>432</ele>
        <time>2020-09-16T11:50:22Z</time>
      </trkpt>
      <trkpt lat="43.24193" lon="5.69409">
        <ele>432</ele>
        <time>2020-09-16T11:50:26Z</time>
      </trkpt>
      <trkpt lat="43.24194" lon="5.69416">
        <ele>432</ele>
        <time>2020-09-16T11:50:30Z</time>
      </trkpt>
      <trkpt lat="43.24196" lon="5.69424">
        <ele>432</ele>
        <time>2020-09-16T11:50:36Z</time>
      </trkpt>
      <trkpt lat="43.24198" lon="5.69432">
        <ele>432</ele>
        <time>2020-09-16T11:50:42Z</time>
      </trkpt>
      <trkpt lat="43.24199" lon="5.6944">
        <ele>432</ele>
        <time>2020-09-16T11:50:48Z</time>
      </trkpt>
      <trkpt lat="43.24198" lon="5.69448">
        <ele>432</ele>
        <time>2020-09-16T11:50:54Z</time>
      </trkpt>
      <trkpt lat="43.24197" lon="5.69457">
        <ele>432</ele>
        <time>2020-09-16T11:51:00Z</time>
      </trkpt>
      <trkpt lat="43.24198" lon="5.69463">
        <ele>432</ele>
        <time>2020-09-16T11:51:04Z</time>
      </trkpt>
      <trkpt lat="43.24196" lon="5.69471">
        <ele>432</ele>
        <time>2020-09-16T11:51:10Z</time>
      </trkpt>
      <trkpt lat="43.24195" lon="5.69477">
        <ele>431</ele>
        <time>2020-09-16T11:51:14Z</time>
      </trkpt>
      <trkpt lat="43.24194" lon="5.69485">
        <ele>431</ele>
        <time>2020-09-16T11:51:20Z</time>
      </trkpt>
      <trkpt lat="43.24192" lon="5.69493">
        <ele>431</ele>
        <time>2020-09-16T11:51:26Z</time>
      </trkpt>
      <trkpt lat="43.24192" lon="5.69499">
        <ele>431</ele>
        <time>2020-09-16T11:51:30Z</time>
      </trkpt>
      <trkpt lat="43.24192" lon="5.69505">
        <ele>429</ele>
        <time>2020-09-16T11:51:34Z</time>
      </trkpt>
      <trkpt lat="43.24191" lon="5.69514">
        <ele>429</ele>
        <time>2020-09-16T11:51:38Z</time>
      </trkpt>
      <trkpt lat="43.24191" lon="5.69521">
        <ele>429</ele>
        <time>2020-09-16T11:51:42Z</time>
      </trkpt>
      <trkpt lat="43.2419" lon="5.69529">
        <ele>429</ele>
        <time>2020-09-16T11:51:48Z</time>
      </trkpt>
      <trkpt lat="43.24189" lon="5.69536">
        <ele>429</ele>
        <time>2020-09-16T11:51:54Z</time>
      </trkpt>
      <trkpt lat="43.24189" lon="5.69543">
        <ele>428</ele>
        <time>2020-09-16T11:51:58Z</time>
      </trkpt>
      <trkpt lat="43.2419" lon="5.69549">
        <ele>428</ele>
        <time>2020-09-16T11:52:02Z</time>
      </trkpt>
      <trkpt lat="43.24191" lon="5.69556">
        <ele>428</ele>
        <time>2020-09-16T11:52:06Z</time>
      </trkpt>
      <trkpt lat="43.24192" lon="5.69564">
        <ele>428</ele>
        <time>2020-09-16T11:52:12Z</time>
      </trkpt>
      <trkpt lat="43.24192" lon="5.6957">
        <ele>428</ele>
        <time>2020-09-16T11:52:18Z</time>
      </trkpt>
      <trkpt lat="43.2419" lon="5.69577">
        <ele>428</ele>
        <time>2020-09-16T11:52:54Z</time>
      </trkpt>
      <trkpt lat="43.2419" lon="5.69583">
        <ele>425</ele>
        <time>2020-09-16T11:52:58Z</time>
      </trkpt>
      <trkpt lat="43.2419" lon="5.69592">
        <ele>425</ele>
        <time>2020-09-16T11:53:04Z</time>
      </trkpt>
      <trkpt lat="43.24188" lon="5.69601">
        <ele>425</ele>
        <time>2020-09-16T11:53:10Z</time>
      </trkpt>
      <trkpt lat="43.24188" lon="5.69608">
        <ele>425</ele>
        <time>2020-09-16T11:53:14Z</time>
      </trkpt>
      <trkpt lat="43.24187" lon="5.69616">
        <ele>425</ele>
        <time>2020-09-16T11:53:20Z</time>
      </trkpt>
      <trkpt lat="43.24187" lon="5.69623">
        <ele>424</ele>
        <time>2020-09-16T11:53:26Z</time>
      </trkpt>
      <trkpt lat="43.24186" lon="5.69632">
        <ele>424</ele>
        <time>2020-09-16T11:53:32Z</time>
      </trkpt>
      <trkpt lat="43.24185" lon="5.69639">
        <ele>424</ele>
        <time>2020-09-16T11:53:38Z</time>
      </trkpt>
      <trkpt lat="43.24185" lon="5.69647">
        <ele>424</ele>
        <time>2020-09-16T11:53:44Z</time>
      </trkpt>
      <trkpt lat="43.24185" lon="5.69656">
        <ele>423</ele>
        <time>2020-09-16T11:53:50Z</time>
      </trkpt>
      <trkpt lat="43.24185" lon="5.69665">
        <ele>423</ele>
        <time>2020-09-16T11:53:56Z</time>
      </trkpt>
      <trkpt lat="43.24184" lon="5.69674">
        <ele>422</ele>
        <time>2020-09-16T11:54:02Z</time>
      </trkpt>
      <trkpt lat="43.24184" lon="5.69681">
        <ele>421</ele>
        <time>2020-09-16T11:54:06Z</time>
      </trkpt>
      <trkpt lat="43.24185" lon="5.6969">
        <ele>421</ele>
        <time>2020-09-16T11:54:12Z</time>
      </trkpt>
      <trkpt lat="43.24186" lon="5.69698">
        <ele>421</ele>
        <time>2020-09-16T11:54:18Z</time>
      </trkpt>
      <trkpt lat="43.24186" lon="5.69706">
        <ele>421</ele>
        <time>2020-09-16T11:54:24Z</time>
      </trkpt>
      <trkpt lat="43.24186" lon="5.69715">
        <ele>421</ele>
        <time>2020-09-16T11:54:30Z</time>
      </trkpt>
      <trkpt lat="43.24185" lon="5.69723">
        <ele>421</ele>
        <time>2020-09-16T11:54:36Z</time>
      </trkpt>
      <trkpt lat="43.24185" lon="5.6973">
        <ele>421</ele>
        <time>2020-09-16T11:54:40Z</time>
      </trkpt>
      <trkpt lat="43.24185" lon="5.69736">
        <ele>421</ele>
        <time>2020-09-16T11:54:44Z</time>
      </trkpt>
      <trkpt lat="43.24184" lon="5.69743">
        <ele>420</ele>
        <time>2020-09-16T11:54:48Z</time>
      </trkpt>
      <trkpt lat="43.24184" lon="5.69751">
        <ele>419</ele>
        <time>2020-09-16T11:54:52Z</time>
      </trkpt>
      <trkpt lat="43.24183" lon="5.69757">
        <ele>419</ele>
        <time>2020-09-16T11:54:56Z</time>
      </trkpt>
      <trkpt lat="43.24183" lon="5.69765">
        <ele>419</ele>
        <time>2020-09-16T11:55:02Z</time>
      </trkpt>
      <trkpt lat="43.24184" lon="5.69774">
        <ele>419</ele>
        <time>2020-09-16T11:55:08Z</time>
      </trkpt>
      <trkpt lat="43.24185" lon="5.69781">
        <ele>419</ele>
        <time>2020-09-16T11:55:12Z</time>
      </trkpt>
      <trkpt lat="43.24185" lon="5.69789">
        <ele>418</ele>
        <time>2020-09-16T11:55:18Z</time>
      </trkpt>
      <trkpt lat="43.24186" lon="5.69798">
        <ele>418</ele>
        <time>2020-09-16T11:55:24Z</time>
      </trkpt>
      <trkpt lat="43.24185" lon="5.69804">
        <ele>418</ele>
        <time>2020-09-16T11:55:28Z</time>
      </trkpt>
      <trkpt lat="43.24185" lon="5.69813">
        <ele>418</ele>
        <time>2020-09-16T11:55:34Z</time>
      </trkpt>
      <trkpt lat="43.24186" lon="5.6982">
        <ele>418</ele>
        <time>2020-09-16T11:55:38Z</time>
      </trkpt>
      <trkpt lat="43.24187" lon="5.69828">
        <ele>418</ele>
        <time>2020-09-16T11:55:44Z</time>
      </trkpt>
      <trkpt lat="43.24187" lon="5.69838">
        <ele>417</ele>
        <time>2020-09-16T11:55:50Z</time>
      </trkpt>
      <trkpt lat="43.24188" lon="5.69844">
        <ele>417</ele>
        <time>2020-09-16T11:55:54Z</time>
      </trkpt>
      <trkpt lat="43.24188" lon="5.69851">
        <ele>417</ele>
        <time>2020-09-16T11:56:00Z</time>
      </trkpt>
      <trkpt lat="43.24188" lon="5.69859">
        <ele>416</ele>
        <time>2020-09-16T11:56:08Z</time>
      </trkpt>
      <trkpt lat="43.24188" lon="5.69868">
        <ele>416</ele>
        <time>2020-09-16T11:56:14Z</time>
      </trkpt>
      <trkpt lat="43.24188" lon="5.69876">
        <ele>416</ele>
        <time>2020-09-16T11:56:20Z</time>
      </trkpt>
      <trkpt lat="43.2419" lon="5.69883">
        <ele>416</ele>
        <time>2020-09-16T11:56:26Z</time>
      </trkpt>
      <trkpt lat="43.24191" lon="5.6989">
        <ele>416</ele>
        <time>2020-09-16T11:56:30Z</time>
      </trkpt>
      <trkpt lat="43.24193" lon="5.69897">
        <ele>416</ele>
        <time>2020-09-16T11:56:56Z</time>
      </trkpt>
      <trkpt lat="43.24193" lon="5.69903">
        <ele>416</ele>
        <time>2020-09-16T11:57:00Z</time>
      </trkpt>
      <trkpt lat="43.24193" lon="5.69912">
        <ele>416</ele>
        <time>2020-09-16T11:57:06Z</time>
      </trkpt>
      <trkpt lat="43.24192" lon="5.6992">
        <ele>415</ele>
        <time>2020-09-16T11:57:12Z</time>
      </trkpt>
      <trkpt lat="43.24193" lon="5.69928">
        <ele>415</ele>
        <time>2020-09-16T11:57:16Z</time>
      </trkpt>
      <trkpt lat="43.24194" lon="5.69938">
        <ele>414</ele>
        <time>2020-09-16T11:57:20Z</time>
      </trkpt>
      <trkpt lat="43.24196" lon="5.69944">
        <ele>414</ele>
        <time>2020-09-16T11:57:26Z</time>
      </trkpt>
      <trkpt lat="43.24196" lon="5.69952">
        <ele>414</ele>
        <time>2020-09-16T11:57:32Z</time>
      </trkpt>
      <trkpt lat="43.24196" lon="5.69961">
        <ele>414</ele>
        <time>2020-09-16T11:57:38Z</time>
      </trkpt>
      <trkpt lat="43.24197" lon="5.69967">
        <ele>414</ele>
        <time>2020-09-16T11:57:42Z</time>
      </trkpt>
      <trkpt lat="43.24199" lon="5.69973">
        <ele>414</ele>
        <time>2020-09-16T11:57:46Z</time>
      </trkpt>
      <trkpt lat="43.242" lon="5.69982">
        <ele>414</ele>
        <time>2020-09-16T11:57:52Z</time>
      </trkpt>
      <trkpt lat="43.24201" lon="5.69988">
        <ele>414</ele>
        <time>2020-09-16T11:57:56Z</time>
      </trkpt>
      <trkpt lat="43.24202" lon="5.69996">
        <ele>414</ele>
        <time>2020-09-16T11:58:02Z</time>
      </trkpt>
      <trkpt lat="43.24202" lon="5.70005">
        <ele>413</ele>
        <time>2020-09-16T11:58:08Z</time>
      </trkpt>
      <trkpt lat="43.24201" lon="5.70013">
        <ele>413</ele>
        <time>2020-09-16T11:58:14Z</time>
      </trkpt>
      <trkpt lat="43.242" lon="5.70019">
        <ele>414</ele>
        <time>2020-09-16T11:58:18Z</time>
      </trkpt>
      <trkpt lat="43.24199" lon="5.70027">
        <ele>414</ele>
        <time>2020-09-16T11:58:24Z</time>
      </trkpt>
      <trkpt lat="43.24199" lon="5.70034">
        <ele>414</ele>
        <time>2020-09-16T11:58:28Z</time>
      </trkpt>
      <trkpt lat="43.24199" lon="5.70042">
        <ele>414</ele>
        <time>2020-09-16T11:58:34Z</time>
      </trkpt>
      <trkpt lat="43.24198" lon="5.7005">
        <ele>414</ele>
        <time>2020-09-16T11:58:40Z</time>
      </trkpt>
      <trkpt lat="43.24198" lon="5.70059">
        <ele>414</ele>
        <time>2020-09-16T11:58:46Z</time>
      </trkpt>
      <trkpt lat="43.24197" lon="5.70065">
        <ele>414</ele>
        <time>2020-09-16T11:58:50Z</time>
      </trkpt>
      <trkpt lat="43.24197" lon="5.70074">
        <ele>414</ele>
        <time>2020-09-16T11:58:56Z</time>
      </trkpt>
      <trkpt lat="43.24196" lon="5.70081">
        <ele>414</ele>
        <time>2020-09-16T11:59:00Z</time>
      </trkpt>
      <trkpt lat="43.24197" lon="5.70088">
        <ele>414</ele>
        <time>2020-09-16T11:59:06Z</time>
      </trkpt>
      <trkpt lat="43.24197" lon="5.70096">
        <ele>414</ele>
        <time>2020-09-16T11:59:12Z</time>
      </trkpt>
      <trkpt lat="43.24197" lon="5.70105">
        <ele>414</ele>
        <time>2020-09-16T11:59:18Z</time>
      </trkpt>
      <trkpt lat="43.24196" lon="5.70114">
        <ele>414</ele>
        <time>2020-09-16T11:59:24Z</time>
      </trkpt>
      <trkpt lat="43.24196" lon="5.70121">
        <ele>414</ele>
        <time>2020-09-16T11:59:30Z</time>
      </trkpt>
      <trkpt lat="43.24196" lon="5.70129">
        <ele>414</ele>
        <time>2020-09-16T11:59:36Z</time>
      </trkpt>
      <trkpt lat="43.24197" lon="5.70137">
        <ele>414</ele>
        <time>2020-09-16T11:59:42Z</time>
      </trkpt>
      <trkpt lat="43.24198" lon="5.70145">
        <ele>414</ele>
        <time>2020-09-16T11:59:48Z</time>
      </trkpt>
      <trkpt lat="43.24197" lon="5.70151">
        <ele>414</ele>
        <time>2020-09-16T11:59:54Z</time>
      </trkpt>
      <trkpt lat="43.24199" lon="5.70158">
        <ele>414</ele>
        <time>2020-09-16T12:00:00Z</time>
      </trkpt>
      <trkpt lat="43.24198" lon="5.70167">
        <ele>414</ele>
        <time>2020-09-16T12:00:04Z</time>
      </trkpt>
      <trkpt lat="43.24197" lon="5.70174">
        <ele>414</ele>
        <time>2020-09-16T12:00:08Z</time>
      </trkpt>
      <trkpt lat="43.24197" lon="5.7018">
        <ele>414</ele>
        <time>2020-09-16T12:00:12Z</time>
      </trkpt>
      <trkpt lat="43.24196" lon="5.70186">
        <ele>414</ele>
        <time>2020-09-16T12:00:18Z</time>
      </trkpt>
      <trkpt lat="43.24193" lon="5.70192">
        <ele>414</ele>
        <time>2020-09-16T12:00:22Z</time>
      </trkpt>
      <trkpt lat="43.24191" lon="5.70199">
        <ele>414</ele>
        <time>2020-09-16T12:00:26Z</time>
      </trkpt>
      <trkpt lat="43.24188" lon="5.70206">
        <ele>414</ele>
        <time>2020-09-16T12:00:30Z</time>
      </trkpt>
      <trkpt lat="43.24186" lon="5.70214">
        <ele>414</ele>
        <time>2020-09-16T12:00:36Z</time>
      </trkpt>
      <trkpt lat="43.24184" lon="5.70222">
        <ele>414</ele>
        <time>2020-09-16T12:00:44Z</time>
      </trkpt>
      <trkpt lat="43.24183" lon="5.70228">
        <ele>414</ele>
        <time>2020-09-16T12:00:52Z</time>
      </trkpt>
      <trkpt lat="43.24183" lon="5.70235">
        <ele>414</ele>
        <time>2020-09-16T12:01:00Z</time>
      </trkpt>
      <trkpt lat="43.24182" lon="5.70242">
        <ele>415</ele>
        <time>2020-09-16T12:01:08Z</time>
      </trkpt>
      <trkpt lat="43.24183" lon="5.70249">
        <ele>415</ele>
        <time>2020-09-16T12:01:26Z</time>
      </trkpt>
      <trkpt lat="43.24181" lon="5.70256">
        <ele>415</ele>
        <time>2020-09-16T12:01:32Z</time>
      </trkpt>
      <trkpt lat="43.24181" lon="5.70266">
        <ele>415</ele>
        <time>2020-09-16T12:01:38Z</time>
      </trkpt>
      <trkpt lat="43.24182" lon="5.70272">
        <ele>415</ele>
        <time>2020-09-16T12:01:44Z</time>
      </trkpt>
      <trkpt lat="43.24183" lon="5.7028">
        <ele>415</ele>
        <time>2020-09-16T12:01:50Z</time>
      </trkpt>
      <trkpt lat="43.24178" lon="5.70283">
        <ele>415</ele>
        <time>2020-09-16T12:02:36Z</time>
      </trkpt>
      <trkpt lat="43.24173" lon="5.70283">
        <ele>415</ele>
        <time>2020-09-16T12:02:42Z</time>
      </trkpt>
      <trkpt lat="43.24169" lon="5.70285">
        <ele>415</ele>
        <time>2020-09-16T12:02:48Z</time>
      </trkpt>
      <trkpt lat="43.24167" lon="5.70293">
        <ele>415</ele>
        <time>2020-09-16T12:02:56Z</time>
      </trkpt>
      <trkpt lat="43.24167" lon="5.70303">
        <ele>415</ele>
        <time>2020-09-16T12:03:04Z</time>
      </trkpt>
      <trkpt lat="43.24167" lon="5.70311">
        <ele>415</ele>
        <time>2020-09-16T12:03:10Z</time>
      </trkpt>
      <trkpt lat="43.24168" lon="5.7032">
        <ele>415</ele>
        <time>2020-09-16T12:03:16Z</time>
      </trkpt>
      <trkpt lat="43.24167" lon="5.70328">
        <ele>415</ele>
        <time>2020-09-16T12:03:22Z</time>
      </trkpt>
      <trkpt lat="43.24165" lon="5.70335">
        <ele>415</ele>
        <time>2020-09-16T12:03:28Z</time>
      </trkpt>
      <trkpt lat="43.24164" lon="5.70341">
        <ele>415</ele>
        <time>2020-09-16T12:03:32Z</time>
      </trkpt>
      <trkpt lat="43.24164" lon="5.7035">
        <ele>415</ele>
        <time>2020-09-16T12:03:38Z</time>
      </trkpt>
      <trkpt lat="43.24164" lon="5.70356">
        <ele>416</ele>
        <time>2020-09-16T12:03:42Z</time>
      </trkpt>
      <trkpt lat="43.24165" lon="5.70363">
        <ele>416</ele>
        <time>2020-09-16T12:03:46Z</time>
      </trkpt>
      <trkpt lat="43.24165" lon="5.7037">
        <ele>416</ele>
        <time>2020-09-16T12:03:52Z</time>
      </trkpt>
      <trkpt lat="43.24166" lon="5.70376">
        <ele>416</ele>
        <time>2020-09-16T12:03:56Z</time>
      </trkpt>
      <trkpt lat="43.24167" lon="5.70383">
        <ele>416</ele>
        <time>2020-09-16T12:04:00Z</time>
      </trkpt>
      <trkpt lat="43.24168" lon="5.70389">
        <ele>416</ele>
        <time>2020-09-16T12:04:04Z</time>
      </trkpt>
      <trkpt lat="43.24168" lon="5.70397">
        <ele>417</ele>
        <time>2020-09-16T12:04:10Z</time>
      </trkpt>
      <trkpt lat="43.24168" lon="5.70405">
        <ele>417</ele>
        <time>2020-09-16T12:04:16Z</time>
      </trkpt>
      <trkpt lat="43.24168" lon="5.70412">
        <ele>417</ele>
        <time>2020-09-16T12:04:22Z</time>
      </trkpt>
      <trkpt lat="43.24167" lon="5.70419">
        <ele>417</ele>
        <time>2020-09-16T12:04:28Z</time>
      </trkpt>
      <trkpt lat="43.24168" lon="5.70427">
        <ele>417</ele>
        <time>2020-09-16T12:04:34Z</time>
      </trkpt>
      <trkpt lat="43.24169" lon="5.70435">
        <ele>418</ele>
        <time>2020-09-16T12:04:40Z</time>
      </trkpt>
      <trkpt lat="43.2417" lon="5.70443">
        <ele>418</ele>
        <time>2020-09-16T12:04:46Z</time>
      </trkpt>
      <trkpt lat="43.24169" lon="5.70449">
        <ele>418</ele>
        <time>2020-09-16T12:04:52Z</time>
      </trkpt>
      <trkpt lat="43.24168" lon="5.70456">
        <ele>418</ele>
        <time>2020-09-16T12:05:00Z</time>
      </trkpt>
      <trkpt lat="43.24174" lon="5.70461">
        <ele>418</ele>
        <time>2020-09-16T12:05:08Z</time>
      </trkpt>
      <trkpt lat="43.24178" lon="5.70464">
        <ele>418</ele>
        <time>2020-09-16T12:05:12Z</time>
      </trkpt>
      <trkpt lat="43.24183" lon="5.70468">
        <ele>419</ele>
        <time>2020-09-16T12:05:18Z</time>
      </trkpt>
      <trkpt lat="43.2419" lon="5.70471">
        <ele>419</ele>
        <time>2020-09-16T12:05:24Z</time>
      </trkpt>
      <trkpt lat="43.24194" lon="5.70474">
        <ele>419</ele>
        <time>2020-09-16T12:05:28Z</time>
      </trkpt>
      <trkpt lat="43.242" lon="5.70478">
        <ele>419</ele>
        <time>2020-09-16T12:05:34Z</time>
      </trkpt>
      <trkpt lat="43.24204" lon="5.70482">
        <ele>419</ele>
        <time>2020-09-16T12:05:40Z</time>
      </trkpt>
      <trkpt lat="43.24207" lon="5.70488">
        <ele>419</ele>
        <time>2020-09-16T12:05:48Z</time>
      </trkpt>
      <trkpt lat="43.2421" lon="5.70495">
        <ele>419</ele>
        <time>2020-09-16T12:05:54Z</time>
      </trkpt>
      <trkpt lat="43.24213" lon="5.70501">
        <ele>421</ele>
        <time>2020-09-16T12:06:00Z</time>
      </trkpt>
      <trkpt lat="43.24215" lon="5.70507">
        <ele>421</ele>
        <time>2020-09-16T12:06:06Z</time>
      </trkpt>
      <trkpt lat="43.24215" lon="5.70514">
        <ele>421</ele>
        <time>2020-09-16T12:06:14Z</time>
      </trkpt>
      <trkpt lat="43.24212" lon="5.7052">
        <ele>421</ele>
        <time>2020-09-16T12:06:22Z</time>
      </trkpt>
      <trkpt lat="43.24211" lon="5.70526">
        <ele>421</ele>
        <time>2020-09-16T12:06:30Z</time>
      </trkpt>
      <trkpt lat="43.24209" lon="5.70533">
        <ele>421</ele>
        <time>2020-09-16T12:06:40Z</time>
      </trkpt>
      <trkpt lat="43.24206" lon="5.70538">
        <ele>421</ele>
        <time>2020-09-16T12:07:04Z</time>
      </trkpt>
      <trkpt lat="43.24211" lon="5.70537">
        <ele>421</ele>
        <time>2020-09-16T12:07:48Z</time>
      </trkpt>
      <trkpt lat="43.24215" lon="5.7054">
        <ele>421</ele>
        <time>2020-09-16T12:07:56Z</time>
      </trkpt>
      <trkpt lat="43.2421" lon="5.7054">
        <ele>421</ele>
        <time>2020-09-16T12:08:56Z</time>
      </trkpt>
      <trkpt lat="43.24205" lon="5.70539">
        <ele>421</ele>
        <time>2020-09-16T12:09:08Z</time>
      </trkpt>
      <trkpt lat="43.24204" lon="5.70533">
        <ele>421</ele>
        <time>2020-09-16T13:17:30Z</time>
      </trkpt>
      <trkpt lat="43.24209" lon="5.70534">
        <ele>421</ele>
        <time>2020-09-16T13:18:42Z</time>
      </trkpt>
      <trkpt lat="43.24203" lon="5.70533">
        <ele>421</ele>
        <time>2020-09-16T13:21:14Z</time>
      </trkpt>
      <trkpt lat="43.24199" lon="5.70529">
        <ele>420</ele>
        <time>2020-09-16T13:21:18Z</time>
      </trkpt>
      <trkpt lat="43.24196" lon="5.70524">
        <ele>420</ele>
        <time>2020-09-16T13:21:24Z</time>
      </trkpt>
      <trkpt lat="43.24195" lon="5.70515">
        <ele>420</ele>
        <time>2020-09-16T13:21:32Z</time>
      </trkpt>
      <trkpt lat="43.24193" lon="5.70508">
        <ele>420</ele>
        <time>2020-09-16T13:21:38Z</time>
      </trkpt>
      <trkpt lat="43.2419" lon="5.70501">
        <ele>420</ele>
        <time>2020-09-16T13:21:44Z</time>
      </trkpt>
      <trkpt lat="43.24188" lon="5.70495">
        <ele>419</ele>
        <time>2020-09-16T13:21:50Z</time>
      </trkpt>
      <trkpt lat="43.24184" lon="5.70488">
        <ele>419</ele>
        <time>2020-09-16T13:21:58Z</time>
      </trkpt>
      <trkpt lat="43.24182" lon="5.70481">
        <ele>419</ele>
        <time>2020-09-16T13:22:06Z</time>
      </trkpt>
      <trkpt lat="43.2418" lon="5.70475">
        <ele>419</ele>
        <time>2020-09-16T13:22:12Z</time>
      </trkpt>
      <trkpt lat="43.24177" lon="5.7047">
        <ele>419</ele>
        <time>2020-09-16T13:22:18Z</time>
      </trkpt>
      <trkpt lat="43.24172" lon="5.70466">
        <ele>418</ele>
        <time>2020-09-16T13:22:22Z</time>
      </trkpt>
      <trkpt lat="43.2417" lon="5.70461">
        <ele>418</ele>
        <time>2020-09-16T13:22:28Z</time>
      </trkpt>
      <trkpt lat="43.24171" lon="5.70453">
        <ele>418</ele>
        <time>2020-09-16T13:22:34Z</time>
      </trkpt>
      <trkpt lat="43.24171" lon="5.70446">
        <ele>418</ele>
        <time>2020-09-16T13:22:40Z</time>
      </trkpt>
      <trkpt lat="43.24171" lon="5.70438">
        <ele>418</ele>
        <time>2020-09-16T13:22:46Z</time>
      </trkpt>
      <trkpt lat="43.2417" lon="5.70431">
        <ele>418</ele>
        <time>2020-09-16T13:22:52Z</time>
      </trkpt>
      <trkpt lat="43.24169" lon="5.70423">
        <ele>417</ele>
        <time>2020-09-16T13:22:58Z</time>
      </trkpt>
      <trkpt lat="43.24169" lon="5.70417">
        <ele>417</ele>
        <time>2020-09-16T13:23:04Z</time>
      </trkpt>
      <trkpt lat="43.2417" lon="5.7041">
        <ele>417</ele>
        <time>2020-09-16T13:23:10Z</time>
      </trkpt>
      <trkpt lat="43.24169" lon="5.70403">
        <ele>417</ele>
        <time>2020-09-16T13:23:16Z</time>
      </trkpt>
      <trkpt lat="43.24169" lon="5.70396">
        <ele>417</ele>
        <time>2020-09-16T13:23:24Z</time>
      </trkpt>
      <trkpt lat="43.24167" lon="5.70387">
        <ele>416</ele>
        <time>2020-09-16T13:23:34Z</time>
      </trkpt>
      <trkpt lat="43.24169" lon="5.7038">
        <ele>416</ele>
        <time>2020-09-16T13:23:40Z</time>
      </trkpt>
      <trkpt lat="43.24167" lon="5.70372">
        <ele>416</ele>
        <time>2020-09-16T13:23:46Z</time>
      </trkpt>
      <trkpt lat="43.24168" lon="5.70365">
        <ele>416</ele>
        <time>2020-09-16T13:23:50Z</time>
      </trkpt>
      <trkpt lat="43.24168" lon="5.70358">
        <ele>416</ele>
        <time>2020-09-16T13:23:54Z</time>
      </trkpt>
      <trkpt lat="43.24168" lon="5.70351">
        <ele>416</ele>
        <time>2020-09-16T13:23:58Z</time>
      </trkpt>
      <trkpt lat="43.24168" lon="5.70345">
        <ele>415</ele>
        <time>2020-09-16T13:24:02Z</time>
      </trkpt>
      <trkpt lat="43.24167" lon="5.70338">
        <ele>415</ele>
        <time>2020-09-16T13:24:06Z</time>
      </trkpt>
      <trkpt lat="43.24168" lon="5.70329">
        <ele>415</ele>
        <time>2020-09-16T13:24:12Z</time>
      </trkpt>
      <trkpt lat="43.24169" lon="5.70321">
        <ele>415</ele>
        <time>2020-09-16T13:24:18Z</time>
      </trkpt>
      <trkpt lat="43.24169" lon="5.70313">
        <ele>415</ele>
        <time>2020-09-16T13:24:26Z</time>
      </trkpt>
      <trkpt lat="43.24169" lon="5.70306">
        <ele>415</ele>
        <time>2020-09-16T13:24:32Z</time>
      </trkpt>
      <trkpt lat="43.24169" lon="5.70299">
        <ele>415</ele>
        <time>2020-09-16T13:24:38Z</time>
      </trkpt>
      <trkpt lat="43.24166" lon="5.70293">
        <ele>415</ele>
        <time>2020-09-16T13:24:44Z</time>
      </trkpt>
      <trkpt lat="43.24163" lon="5.70286">
        <ele>415</ele>
        <time>2020-09-16T13:24:50Z</time>
      </trkpt>
      <trkpt lat="43.24162" lon="5.70279">
        <ele>415</ele>
        <time>2020-09-16T13:24:56Z</time>
      </trkpt>
      <trkpt lat="43.24162" lon="5.70273">
        <ele>415</ele>
        <time>2020-09-16T13:25:10Z</time>
      </trkpt>
      <trkpt lat="43.24159" lon="5.70268">
        <ele>415</ele>
        <time>2020-09-16T13:25:16Z</time>
      </trkpt>
      <trkpt lat="43.24157" lon="5.70259">
        <ele>415</ele>
        <time>2020-09-16T13:25:22Z</time>
      </trkpt>
      <trkpt lat="43.24155" lon="5.7025">
        <ele>415</ele>
        <time>2020-09-16T13:25:28Z</time>
      </trkpt>
      <trkpt lat="43.24154" lon="5.70244">
        <ele>416</ele>
        <time>2020-09-16T13:25:34Z</time>
      </trkpt>
      <trkpt lat="43.24154" lon="5.70237">
        <ele>416</ele>
        <time>2020-09-16T13:25:42Z</time>
      </trkpt>
      <trkpt lat="43.24154" lon="5.70228">
        <ele>416</ele>
        <time>2020-09-16T13:25:48Z</time>
      </trkpt>
      <trkpt lat="43.24153" lon="5.70221">
        <ele>416</ele>
        <time>2020-09-16T13:25:56Z</time>
      </trkpt>
      <trkpt lat="43.24153" lon="5.70214">
        <ele>416</ele>
        <time>2020-09-16T13:26:02Z</time>
      </trkpt>
      <trkpt lat="43.24152" lon="5.70206">
        <ele>416</ele>
        <time>2020-09-16T13:26:08Z</time>
      </trkpt>
      <trkpt lat="43.24148" lon="5.70202">
        <ele>416</ele>
        <time>2020-09-16T13:26:16Z</time>
      </trkpt>
      <trkpt lat="43.24143" lon="5.702">
        <ele>416</ele>
        <time>2020-09-16T13:26:22Z</time>
      </trkpt>
      <trkpt lat="43.24139" lon="5.70195">
        <ele>416</ele>
        <time>2020-09-16T13:26:28Z</time>
      </trkpt>
      <trkpt lat="43.24137" lon="5.70187">
        <ele>416</ele>
        <time>2020-09-16T13:26:36Z</time>
      </trkpt>
      <trkpt lat="43.24136" lon="5.7018">
        <ele>416</ele>
        <time>2020-09-16T13:26:46Z</time>
      </trkpt>
      <trkpt lat="43.24132" lon="5.70176">
        <ele>416</ele>
        <time>2020-09-16T13:26:52Z</time>
      </trkpt>
      <trkpt lat="43.24126" lon="5.70175">
        <ele>416</ele>
        <time>2020-09-16T13:26:58Z</time>
      </trkpt>
      <trkpt lat="43.24124" lon="5.70169">
        <ele>416</ele>
        <time>2020-09-16T13:27:12Z</time>
      </trkpt>
      <trkpt lat="43.24122" lon="5.70162">
        <ele>417</ele>
        <time>2020-09-16T13:27:16Z</time>
      </trkpt>
      <trkpt lat="43.24121" lon="5.70155">
        <ele>417</ele>
        <time>2020-09-16T13:27:22Z</time>
      </trkpt>
      <trkpt lat="43.24119" lon="5.70148">
        <ele>417</ele>
        <time>2020-09-16T13:27:28Z</time>
      </trkpt>
      <trkpt lat="43.24118" lon="5.70142">
        <ele>417</ele>
        <time>2020-09-16T13:27:32Z</time>
      </trkpt>
      <trkpt lat="43.24116" lon="5.70135">
        <ele>417</ele>
        <time>2020-09-16T13:27:38Z</time>
      </trkpt>
      <trkpt lat="43.24113" lon="5.70126">
        <ele>417</ele>
        <time>2020-09-16T13:27:44Z</time>
      </trkpt>
      <trkpt lat="43.24109" lon="5.70117">
        <ele>417</ele>
        <time>2020-09-16T13:27:48Z</time>
      </trkpt>
      <trkpt lat="43.24107" lon="5.70111">
        <ele>417</ele>
        <time>2020-09-16T13:27:52Z</time>
      </trkpt>
      <trkpt lat="43.24105" lon="5.70103">
        <ele>417</ele>
        <time>2020-09-16T13:27:58Z</time>
      </trkpt>
      <trkpt lat="43.24102" lon="5.70097">
        <ele>417</ele>
        <time>2020-09-16T13:28:02Z</time>
      </trkpt>
      <trkpt lat="43.24102" lon="5.70091">
        <ele>417</ele>
        <time>2020-09-16T13:28:08Z</time>
      </trkpt>
      <trkpt lat="43.241" lon="5.70083">
        <ele>417</ele>
        <time>2020-09-16T13:28:16Z</time>
      </trkpt>
      <trkpt lat="43.24098" lon="5.70075">
        <ele>416</ele>
        <time>2020-09-16T13:28:24Z</time>
      </trkpt>
      <trkpt lat="43.24097" lon="5.70067">
        <ele>416</ele>
        <time>2020-09-16T13:28:32Z</time>
      </trkpt>
      <trkpt lat="43.24096" lon="5.70059">
        <ele>416</ele>
        <time>2020-09-16T13:28:38Z</time>
      </trkpt>
      <trkpt lat="43.24095" lon="5.70051">
        <ele>416</ele>
        <time>2020-09-16T13:28:44Z</time>
      </trkpt>
      <trkpt lat="43.24093" lon="5.70043">
        <ele>416</ele>
        <time>2020-09-16T13:28:50Z</time>
      </trkpt>
      <trkpt lat="43.24095" lon="5.70036">
        <ele>416</ele>
        <time>2020-09-16T13:28:58Z</time>
      </trkpt>
      <trkpt lat="43.24095" lon="5.70027">
        <ele>416</ele>
        <time>2020-09-16T13:29:06Z</time>
      </trkpt>
      <trkpt lat="43.24094" lon="5.70019">
        <ele>416</ele>
        <time>2020-09-16T13:29:12Z</time>
      </trkpt>
      <trkpt lat="43.24092" lon="5.70011">
        <ele>416</ele>
        <time>2020-09-16T13:29:18Z</time>
      </trkpt>
      <trkpt lat="43.2409" lon="5.70004">
        <ele>416</ele>
        <time>2020-09-16T13:29:24Z</time>
      </trkpt>
      <trkpt lat="43.24088" lon="5.69996">
        <ele>416</ele>
        <time>2020-09-16T13:29:30Z</time>
      </trkpt>
      <trkpt lat="43.24089" lon="5.69989">
        <ele>416</ele>
        <time>2020-09-16T13:29:36Z</time>
      </trkpt>
      <trkpt lat="43.24087" lon="5.69981">
        <ele>416</ele>
        <time>2020-09-16T13:29:42Z</time>
      </trkpt>
      <trkpt lat="43.24085" lon="5.69974">
        <ele>416</ele>
        <time>2020-09-16T13:29:48Z</time>
      </trkpt>
      <trkpt lat="43.24084" lon="5.69968">
        <ele>416</ele>
        <time>2020-09-16T13:29:52Z</time>
      </trkpt>
      <trkpt lat="43.24083" lon="5.69962">
        <ele>419</ele>
        <time>2020-09-16T13:29:56Z</time>
      </trkpt>
      <trkpt lat="43.2408" lon="5.69955">
        <ele>419</ele>
        <time>2020-09-16T13:30:02Z</time>
      </trkpt>
      <trkpt lat="43.24079" lon="5.69948">
        <ele>419</ele>
        <time>2020-09-16T13:30:08Z</time>
      </trkpt>
      <trkpt lat="43.24079" lon="5.69939">
        <ele>419</ele>
        <time>2020-09-16T13:30:14Z</time>
      </trkpt>
      <trkpt lat="43.24079" lon="5.69932">
        <ele>419</ele>
        <time>2020-09-16T13:30:20Z</time>
      </trkpt>
      <trkpt lat="43.24079" lon="5.69924">
        <ele>419</ele>
        <time>2020-09-16T13:30:26Z</time>
      </trkpt>
      <trkpt lat="43.24079" lon="5.69915">
        <ele>419</ele>
        <time>2020-09-16T13:30:32Z</time>
      </trkpt>
      <trkpt lat="43.24078" lon="5.69909">
        <ele>419</ele>
        <time>2020-09-16T13:30:36Z</time>
      </trkpt>
      <trkpt lat="43.24078" lon="5.69903">
        <ele>420</ele>
        <time>2020-09-16T13:30:42Z</time>
      </trkpt>
      <trkpt lat="43.24078" lon="5.69896">
        <ele>420</ele>
        <time>2020-09-16T13:30:48Z</time>
      </trkpt>
      <trkpt lat="43.24078" lon="5.69889">
        <ele>420</ele>
        <time>2020-09-16T13:30:54Z</time>
      </trkpt>
      <trkpt lat="43.24078" lon="5.69881">
        <ele>420</ele>
        <time>2020-09-16T13:31:02Z</time>
      </trkpt>
      <trkpt lat="43.24076" lon="5.69874">
        <ele>420</ele>
        <time>2020-09-16T13:31:08Z</time>
      </trkpt>
      <trkpt lat="43.24073" lon="5.69865">
        <ele>420</ele>
        <time>2020-09-16T13:31:14Z</time>
      </trkpt>
      <trkpt lat="43.24071" lon="5.69858">
        <ele>420</ele>
        <time>2020-09-16T13:31:20Z</time>
      </trkpt>
      <trkpt lat="43.2407" lon="5.6985">
        <ele>420</ele>
        <time>2020-09-16T13:31:26Z</time>
      </trkpt>
      <trkpt lat="43.24068" lon="5.69844">
        <ele>420</ele>
        <time>2020-09-16T13:31:30Z</time>
      </trkpt>
      <trkpt lat="43.24067" lon="5.69838">
        <ele>420</ele>
        <time>2020-09-16T13:31:38Z</time>
      </trkpt>
      <trkpt lat="43.24065" lon="5.69832">
        <ele>420</ele>
        <time>2020-09-16T13:31:44Z</time>
      </trkpt>
      <trkpt lat="43.24063" lon="5.69825">
        <ele>420</ele>
        <time>2020-09-16T13:31:52Z</time>
      </trkpt>
      <trkpt lat="43.2406" lon="5.69819">
        <ele>420</ele>
        <time>2020-09-16T13:32:00Z</time>
      </trkpt>
      <trkpt lat="43.24063" lon="5.69814">
        <ele>420</ele>
        <time>2020-09-16T13:32:54Z</time>
      </trkpt>
      <trkpt lat="43.24064" lon="5.69807">
        <ele>420</ele>
        <time>2020-09-16T13:37:48Z</time>
      </trkpt>
      <trkpt lat="43.24059" lon="5.69804">
        <ele>420</ele>
        <time>2020-09-16T13:39:20Z</time>
      </trkpt>
      <trkpt lat="43.24056" lon="5.69798">
        <ele>420</ele>
        <time>2020-09-16T13:39:28Z</time>
      </trkpt>
      <trkpt lat="43.24056" lon="5.6979">
        <ele>420</ele>
        <time>2020-09-16T13:39:38Z</time>
      </trkpt>
      <trkpt lat="43.24056" lon="5.69782">
        <ele>420</ele>
        <time>2020-09-16T13:39:46Z</time>
      </trkpt>
      <trkpt lat="43.24056" lon="5.69774">
        <ele>420</ele>
        <time>2020-09-16T13:39:52Z</time>
      </trkpt>
      <trkpt lat="43.24057" lon="5.69766">
        <ele>420</ele>
        <time>2020-09-16T13:39:58Z</time>
      </trkpt>
      <trkpt lat="43.24057" lon="5.6976">
        <ele>420</ele>
        <time>2020-09-16T13:40:06Z</time>
      </trkpt>
      <trkpt lat="43.24056" lon="5.69753">
        <ele>420</ele>
        <time>2020-09-16T13:40:14Z</time>
      </trkpt>
      <trkpt lat="43.24056" lon="5.69745">
        <ele>421</ele>
        <time>2020-09-16T13:40:22Z</time>
      </trkpt>
      <trkpt lat="43.24056" lon="5.69737">
        <ele>421</ele>
        <time>2020-09-16T13:40:28Z</time>
      </trkpt>
      <trkpt lat="43.24055" lon="5.6973">
        <ele>422</ele>
        <time>2020-09-16T13:40:34Z</time>
      </trkpt>
      <trkpt lat="43.24055" lon="5.69723">
        <ele>422</ele>
        <time>2020-09-16T13:40:40Z</time>
      </trkpt>
      <trkpt lat="43.24054" lon="5.69715">
        <ele>422</ele>
        <time>2020-09-16T13:40:46Z</time>
      </trkpt>
      <trkpt lat="43.24054" lon="5.69709">
        <ele>422</ele>
        <time>2020-09-16T13:40:50Z</time>
      </trkpt>
      <trkpt lat="43.24053" lon="5.69701">
        <ele>422</ele>
        <time>2020-09-16T13:40:56Z</time>
      </trkpt>
      <trkpt lat="43.24053" lon="5.69694">
        <ele>422</ele>
        <time>2020-09-16T13:41:02Z</time>
      </trkpt>
      <trkpt lat="43.24055" lon="5.69687">
        <ele>422</ele>
        <time>2020-09-16T13:41:08Z</time>
      </trkpt>
      <trkpt lat="43.24057" lon="5.69681">
        <ele>422</ele>
        <time>2020-09-16T13:41:14Z</time>
      </trkpt>
      <trkpt lat="43.24059" lon="5.69673">
        <ele>422</ele>
        <time>2020-09-16T13:41:20Z</time>
      </trkpt>
      <trkpt lat="43.24059" lon="5.69666">
        <ele>423</ele>
        <time>2020-09-16T13:41:26Z</time>
      </trkpt>
      <trkpt lat="43.24062" lon="5.6966">
        <ele>423</ele>
        <time>2020-09-16T13:41:38Z</time>
      </trkpt>
      <trkpt lat="43.24063" lon="5.69653">
        <ele>423</ele>
        <time>2020-09-16T13:41:44Z</time>
      </trkpt>
      <trkpt lat="43.24064" lon="5.69647">
        <ele>424</ele>
        <time>2020-09-16T13:41:50Z</time>
      </trkpt>
      <trkpt lat="43.24064" lon="5.69639">
        <ele>424</ele>
        <time>2020-09-16T13:41:58Z</time>
      </trkpt>
      <trkpt lat="43.24063" lon="5.69631">
        <ele>424</ele>
        <time>2020-09-16T13:42:06Z</time>
      </trkpt>
      <trkpt lat="43.24064" lon="5.69623">
        <ele>424</ele>
        <time>2020-09-16T13:42:12Z</time>
      </trkpt>
      <trkpt lat="43.24064" lon="5.69617">
        <ele>424</ele>
        <time>2020-09-16T13:42:16Z</time>
      </trkpt>
      <trkpt lat="43.24065" lon="5.69609">
        <ele>424</ele>
        <time>2020-09-16T13:42:24Z</time>
      </trkpt>
      <trkpt lat="43.24066" lon="5.69603">
        <ele>424</ele>
        <time>2020-09-16T13:42:28Z</time>
      </trkpt>
      <trkpt lat="43.24067" lon="5.69596">
        <ele>424</ele>
        <time>2020-09-16T13:42:32Z</time>
      </trkpt>
      <trkpt lat="43.24067" lon="5.69587">
        <ele>424</ele>
        <time>2020-09-16T13:42:38Z</time>
      </trkpt>
      <trkpt lat="43.24068" lon="5.6958">
        <ele>425</ele>
        <time>2020-09-16T13:42:46Z</time>
      </trkpt>
      <trkpt lat="43.24067" lon="5.69571">
        <ele>425</ele>
        <time>2020-09-16T13:42:54Z</time>
      </trkpt>
      <trkpt lat="43.24066" lon="5.69563">
        <ele>425</ele>
        <time>2020-09-16T13:43:00Z</time>
      </trkpt>
      <trkpt lat="43.24065" lon="5.69555">
        <ele>425</ele>
        <time>2020-09-16T13:43:04Z</time>
      </trkpt>
      <trkpt lat="43.24064" lon="5.69549">
        <ele>426</ele>
        <time>2020-09-16T13:43:08Z</time>
      </trkpt>
      <trkpt lat="43.24064" lon="5.69542">
        <ele>426</ele>
        <time>2020-09-16T13:43:14Z</time>
      </trkpt>
      <trkpt lat="43.24063" lon="5.69535">
        <ele>426</ele>
        <time>2020-09-16T13:43:20Z</time>
      </trkpt>
      <trkpt lat="43.24063" lon="5.69529">
        <ele>426</ele>
        <time>2020-09-16T13:43:26Z</time>
      </trkpt>
      <trkpt lat="43.24063" lon="5.69522">
        <ele>426</ele>
        <time>2020-09-16T13:43:32Z</time>
      </trkpt>
      <trkpt lat="43.24063" lon="5.69515">
        <ele>426</ele>
        <time>2020-09-16T13:43:38Z</time>
      </trkpt>
      <trkpt lat="43.24062" lon="5.69507">
        <ele>426</ele>
        <time>2020-09-16T13:43:44Z</time>
      </trkpt>
      <trkpt lat="43.24063" lon="5.695">
        <ele>426</ele>
        <time>2020-09-16T13:43:52Z</time>
      </trkpt>
      <trkpt lat="43.24065" lon="5.69493">
        <ele>426</ele>
        <time>2020-09-16T13:44:00Z</time>
      </trkpt>
      <trkpt lat="43.24065" lon="5.69486">
        <ele>426</ele>
        <time>2020-09-16T13:44:08Z</time>
      </trkpt>
      <trkpt lat="43.24065" lon="5.69479">
        <ele>426</ele>
        <time>2020-09-16T13:44:14Z</time>
      </trkpt>
      <trkpt lat="43.24065" lon="5.69473">
        <ele>426</ele>
        <time>2020-09-16T13:44:18Z</time>
      </trkpt>
      <trkpt lat="43.24064" lon="5.69466">
        <ele>426</ele>
        <time>2020-09-16T13:44:22Z</time>
      </trkpt>
      <trkpt lat="43.24063" lon="5.69459">
        <ele>426</ele>
        <time>2020-09-16T13:44:28Z</time>
      </trkpt>
      <trkpt lat="43.24063" lon="5.69452">
        <ele>426</ele>
        <time>2020-09-16T13:44:34Z</time>
      </trkpt>
      <trkpt lat="43.24061" lon="5.69444">
        <ele>426</ele>
        <time>2020-09-16T13:44:40Z</time>
      </trkpt>
      <trkpt lat="43.2406" lon="5.69438">
        <ele>426</ele>
        <time>2020-09-16T13:44:44Z</time>
      </trkpt>
      <trkpt lat="43.24059" lon="5.69431">
        <ele>426</ele>
        <time>2020-09-16T13:44:48Z</time>
      </trkpt>
      <trkpt lat="43.2406" lon="5.69423">
        <ele>426</ele>
        <time>2020-09-16T13:44:54Z</time>
      </trkpt>
      <trkpt lat="43.24058" lon="5.69414">
        <ele>426</ele>
        <time>2020-09-16T13:45:00Z</time>
      </trkpt>
      <trkpt lat="43.24057" lon="5.69407">
        <ele>426</ele>
        <time>2020-09-16T13:45:04Z</time>
      </trkpt>
      <trkpt lat="43.24055" lon="5.694">
        <ele>426</ele>
        <time>2020-09-16T13:45:12Z</time>
      </trkpt>
      <trkpt lat="43.24052" lon="5.69394">
        <ele>426</ele>
        <time>2020-09-16T13:45:20Z</time>
      </trkpt>
      <trkpt lat="43.2405" lon="5.69388">
        <ele>426</ele>
        <time>2020-09-16T13:45:26Z</time>
      </trkpt>
      <trkpt lat="43.24047" lon="5.6938">
        <ele>426</ele>
        <time>2020-09-16T13:45:32Z</time>
      </trkpt>
      <trkpt lat="43.24045" lon="5.69372">
        <ele>426</ele>
        <time>2020-09-16T13:45:36Z</time>
      </trkpt>
      <trkpt lat="43.24042" lon="5.69367">
        <ele>426</ele>
        <time>2020-09-16T13:45:40Z</time>
      </trkpt>
      <trkpt lat="43.24039" lon="5.69361">
        <ele>425</ele>
        <time>2020-09-16T13:45:46Z</time>
      </trkpt>
      <trkpt lat="43.24037" lon="5.69355">
        <ele>425</ele>
        <time>2020-09-16T13:45:52Z</time>
      </trkpt>
      <trkpt lat="43.24034" lon="5.69348">
        <ele>425</ele>
        <time>2020-09-16T13:45:58Z</time>
      </trkpt>
      <trkpt lat="43.24033" lon="5.69342">
        <ele>425</ele>
        <time>2020-09-16T13:46:02Z</time>
      </trkpt>
      <trkpt lat="43.2403" lon="5.69334">
        <ele>425</ele>
        <time>2020-09-16T13:46:08Z</time>
      </trkpt>
      <trkpt lat="43.24028" lon="5.69326">
        <ele>425</ele>
        <time>2020-09-16T13:46:14Z</time>
      </trkpt>
      <trkpt lat="43.24025" lon="5.69319">
        <ele>425</ele>
        <time>2020-09-16T13:46:20Z</time>
      </trkpt>
      <trkpt lat="43.24023" lon="5.69313">
        <ele>425</ele>
        <time>2020-09-16T13:46:26Z</time>
      </trkpt>
      <trkpt lat="43.24021" lon="5.69306">
        <ele>425</ele>
        <time>2020-09-16T13:46:32Z</time>
      </trkpt>
      <trkpt lat="43.2402" lon="5.69298">
        <ele>425</ele>
        <time>2020-09-16T13:46:38Z</time>
      </trkpt>
      <trkpt lat="43.24019" lon="5.6929">
        <ele>425</ele>
        <time>2020-09-16T13:46:44Z</time>
      </trkpt>
      <trkpt lat="43.24017" lon="5.69282">
        <ele>425</ele>
        <time>2020-09-16T13:46:50Z</time>
      </trkpt>
      <trkpt lat="43.24015" lon="5.69276">
        <ele>425</ele>
        <time>2020-09-16T13:46:54Z</time>
      </trkpt>
      <trkpt lat="43.24014" lon="5.69269">
        <ele>425</ele>
        <time>2020-09-16T13:47:00Z</time>
      </trkpt>
      <trkpt lat="43.24015" lon="5.69261">
        <ele>425</ele>
        <time>2020-09-16T13:47:08Z</time>
      </trkpt>
      <trkpt lat="43.24014" lon="5.69255">
        <ele>425</ele>
        <time>2020-09-16T13:47:14Z</time>
      </trkpt>
      <trkpt lat="43.24012" lon="5.69246">
        <ele>425</ele>
        <time>2020-09-16T13:47:20Z</time>
      </trkpt>
      <trkpt lat="43.2401" lon="5.69239">
        <ele>425</ele>
        <time>2020-09-16T13:47:24Z</time>
      </trkpt>
      <trkpt lat="43.24009" lon="5.69233">
        <ele>425</ele>
        <time>2020-09-16T13:47:28Z</time>
      </trkpt>
      <trkpt lat="43.24008" lon="5.69226">
        <ele>425</ele>
        <time>2020-09-16T13:47:34Z</time>
      </trkpt>
      <trkpt lat="43.24007" lon="5.69219">
        <ele>424</ele>
        <time>2020-09-16T13:47:40Z</time>
      </trkpt>
      <trkpt lat="43.24006" lon="5.69212">
        <ele>424</ele>
        <time>2020-09-16T13:47:46Z</time>
      </trkpt>
      <trkpt lat="43.24005" lon="5.69205">
        <ele>424</ele>
        <time>2020-09-16T13:47:52Z</time>
      </trkpt>
      <trkpt lat="43.24004" lon="5.69197">
        <ele>424</ele>
        <time>2020-09-16T13:47:58Z</time>
      </trkpt>
      <trkpt lat="43.24004" lon="5.69189">
        <ele>424</ele>
        <time>2020-09-16T13:48:04Z</time>
      </trkpt>
      <trkpt lat="43.24003" lon="5.69181">
        <ele>424</ele>
        <time>2020-09-16T13:48:10Z</time>
      </trkpt>
      <trkpt lat="43.24002" lon="5.69173">
        <ele>423</ele>
        <time>2020-09-16T13:48:16Z</time>
      </trkpt>
      <trkpt lat="43.24002" lon="5.69167">
        <ele>423</ele>
        <time>2020-09-16T13:48:22Z</time>
      </trkpt>
      <trkpt lat="43.24" lon="5.69158">
        <ele>423</ele>
        <time>2020-09-16T13:48:28Z</time>
      </trkpt>
      <trkpt lat="43.23999" lon="5.69151">
        <ele>422</ele>
        <time>2020-09-16T13:48:34Z</time>
      </trkpt>
      <trkpt lat="43.23997" lon="5.69144">
        <ele>422</ele>
        <time>2020-09-16T13:48:40Z</time>
      </trkpt>
      <trkpt lat="43.23995" lon="5.69137">
        <ele>422</ele>
        <time>2020-09-16T13:48:46Z</time>
      </trkpt>
      <trkpt lat="43.23993" lon="5.69128">
        <ele>422</ele>
        <time>2020-09-16T13:48:52Z</time>
      </trkpt>
      <trkpt lat="43.23992" lon="5.6912">
        <ele>422</ele>
        <time>2020-09-16T13:48:58Z</time>
      </trkpt>
      <trkpt lat="43.2399" lon="5.69113">
        <ele>422</ele>
        <time>2020-09-16T13:49:04Z</time>
      </trkpt>
      <trkpt lat="43.2399" lon="5.69105">
        <ele>422</ele>
        <time>2020-09-16T13:49:10Z</time>
      </trkpt>
      <trkpt lat="43.23988" lon="5.69097">
        <ele>422</ele>
        <time>2020-09-16T13:49:16Z</time>
      </trkpt>
      <trkpt lat="43.23988" lon="5.69089">
        <ele>422</ele>
        <time>2020-09-16T13:49:22Z</time>
      </trkpt>
      <trkpt lat="43.23986" lon="5.69081">
        <ele>421</ele>
        <time>2020-09-16T13:49:28Z</time>
      </trkpt>
      <trkpt lat="43.23984" lon="5.69072">
        <ele>421</ele>
        <time>2020-09-16T13:49:34Z</time>
      </trkpt>
      <trkpt lat="43.23983" lon="5.69064">
        <ele>421</ele>
        <time>2020-09-16T13:49:40Z</time>
      </trkpt>
      <trkpt lat="43.23981" lon="5.69058">
        <ele>420</ele>
        <time>2020-09-16T13:49:44Z</time>
      </trkpt>
      <trkpt lat="43.23979" lon="5.6905">
        <ele>420</ele>
        <time>2020-09-16T13:49:50Z</time>
      </trkpt>
      <trkpt lat="43.2398" lon="5.69042">
        <ele>420</ele>
        <time>2020-09-16T13:49:56Z</time>
      </trkpt>
      <trkpt lat="43.2398" lon="5.69034">
        <ele>420</ele>
        <time>2020-09-16T13:50:04Z</time>
      </trkpt>
      <trkpt lat="43.23978" lon="5.69026">
        <ele>420</ele>
        <time>2020-09-16T13:50:10Z</time>
      </trkpt>
      <trkpt lat="43.23976" lon="5.6902">
        <ele>420</ele>
        <time>2020-09-16T13:50:14Z</time>
      </trkpt>
      <trkpt lat="43.23973" lon="5.6901">
        <ele>420</ele>
        <time>2020-09-16T13:50:20Z</time>
      </trkpt>
      <trkpt lat="43.2397" lon="5.69005">
        <ele>420</ele>
        <time>2020-09-16T13:50:24Z</time>
      </trkpt>
      <trkpt lat="43.23968" lon="5.68996">
        <ele>419</ele>
        <time>2020-09-16T13:50:30Z</time>
      </trkpt>
      <trkpt lat="43.23968" lon="5.6899">
        <ele>419</ele>
        <time>2020-09-16T13:50:36Z</time>
      </trkpt>
      <trkpt lat="43.23967" lon="5.68983">
        <ele>419</ele>
        <time>2020-09-16T13:50:42Z</time>
      </trkpt>
      <trkpt lat="43.23966" lon="5.68976">
        <ele>419</ele>
        <time>2020-09-16T13:50:48Z</time>
      </trkpt>
      <trkpt lat="43.23966" lon="5.68969">
        <ele>419</ele>
        <time>2020-09-16T13:50:54Z</time>
      </trkpt>
      <trkpt lat="43.23965" lon="5.68961">
        <ele>419</ele>
        <time>2020-09-16T13:51:00Z</time>
      </trkpt>
      <trkpt lat="43.23963" lon="5.68953">
        <ele>419</ele>
        <time>2020-09-16T13:51:04Z</time>
      </trkpt>
      <trkpt lat="43.23962" lon="5.68946">
        <ele>419</ele>
        <time>2020-09-16T13:51:08Z</time>
      </trkpt>
      <trkpt lat="43.2396" lon="5.68939">
        <ele>419</ele>
        <time>2020-09-16T13:51:14Z</time>
      </trkpt>
      <trkpt lat="43.23957" lon="5.68931">
        <ele>419</ele>
        <time>2020-09-16T13:51:20Z</time>
      </trkpt>
      <trkpt lat="43.23954" lon="5.68924">
        <ele>419</ele>
        <time>2020-09-16T13:51:26Z</time>
      </trkpt>
      <trkpt lat="43.2395" lon="5.68918">
        <ele>419</ele>
        <time>2020-09-16T13:51:32Z</time>
      </trkpt>
      <trkpt lat="43.23947" lon="5.68912">
        <ele>419</ele>
        <time>2020-09-16T13:51:38Z</time>
      </trkpt>
      <trkpt lat="43.23944" lon="5.68906">
        <ele>419</ele>
        <time>2020-09-16T13:51:42Z</time>
      </trkpt>
      <trkpt lat="43.23943" lon="5.68899">
        <ele>419</ele>
        <time>2020-09-16T13:51:46Z</time>
      </trkpt>
      <trkpt lat="43.23943" lon="5.68892">
        <ele>419</ele>
        <time>2020-09-16T13:51:52Z</time>
      </trkpt>
      <trkpt lat="43.23944" lon="5.68885">
        <ele>419</ele>
        <time>2020-09-16T13:51:58Z</time>
      </trkpt>
      <trkpt lat="43.23943" lon="5.68877">
        <ele>419</ele>
        <time>2020-09-16T13:52:04Z</time>
      </trkpt>
      <trkpt lat="43.23943" lon="5.68869">
        <ele>419</ele>
        <time>2020-09-16T13:52:10Z</time>
      </trkpt>
      <trkpt lat="43.23942" lon="5.68863">
        <ele>419</ele>
        <time>2020-09-16T13:52:16Z</time>
      </trkpt>
      <trkpt lat="43.23941" lon="5.68855">
        <ele>419</ele>
        <time>2020-09-16T13:52:22Z</time>
      </trkpt>
      <trkpt lat="43.23939" lon="5.6885">
        <ele>419</ele>
        <time>2020-09-16T13:52:26Z</time>
      </trkpt>
      <trkpt lat="43.23936" lon="5.68844">
        <ele>418</ele>
        <time>2020-09-16T13:52:30Z</time>
      </trkpt>
      <trkpt lat="43.23933" lon="5.6884">
        <ele>418</ele>
        <time>2020-09-16T13:52:34Z</time>
      </trkpt>
      <trkpt lat="43.23929" lon="5.68834">
        <ele>418</ele>
        <time>2020-09-16T13:52:40Z</time>
      </trkpt>
      <trkpt lat="43.23925" lon="5.68826">
        <ele>418</ele>
        <time>2020-09-16T13:52:46Z</time>
      </trkpt>
      <trkpt lat="43.23922" lon="5.68819">
        <ele>418</ele>
        <time>2020-09-16T13:52:52Z</time>
      </trkpt>
      <trkpt lat="43.23919" lon="5.68814">
        <ele>419</ele>
        <time>2020-09-16T13:52:56Z</time>
      </trkpt>
      <trkpt lat="43.23916" lon="5.6881">
        <ele>417</ele>
        <time>2020-09-16T13:53:00Z</time>
      </trkpt>
      <trkpt lat="43.23911" lon="5.68807">
        <ele>417</ele>
        <time>2020-09-16T13:53:06Z</time>
      </trkpt>
      <trkpt lat="43.23907" lon="5.68802">
        <ele>417</ele>
        <time>2020-09-16T13:53:12Z</time>
      </trkpt>
      <trkpt lat="43.23903" lon="5.68797">
        <ele>417</ele>
        <time>2020-09-16T13:53:18Z</time>
      </trkpt>
      <trkpt lat="43.23899" lon="5.68792">
        <ele>417</ele>
        <time>2020-09-16T13:53:26Z</time>
      </trkpt>
      <trkpt lat="43.23895" lon="5.68789">
        <ele>417</ele>
        <time>2020-09-16T13:53:30Z</time>
      </trkpt>
      <trkpt lat="43.23891" lon="5.68783">
        <ele>417</ele>
        <time>2020-09-16T13:53:36Z</time>
      </trkpt>
      <trkpt lat="43.23887" lon="5.68776">
        <ele>417</ele>
        <time>2020-09-16T13:53:42Z</time>
      </trkpt>
      <trkpt lat="43.23883" lon="5.68768">
        <ele>417</ele>
        <time>2020-09-16T13:53:48Z</time>
      </trkpt>
      <trkpt lat="43.23881" lon="5.68762">
        <ele>417</ele>
        <time>2020-09-16T13:53:52Z</time>
      </trkpt>
      <trkpt lat="43.23878" lon="5.68756">
        <ele>417</ele>
        <time>2020-09-16T13:53:58Z</time>
      </trkpt>
      <trkpt lat="43.23873" lon="5.6875">
        <ele>417</ele>
        <time>2020-09-16T13:54:04Z</time>
      </trkpt>
      <trkpt lat="43.23868" lon="5.68745">
        <ele>417</ele>
        <time>2020-09-16T13:54:10Z</time>
      </trkpt>
      <trkpt lat="43.23865" lon="5.68739">
        <ele>417</ele>
        <time>2020-09-16T13:54:14Z</time>
      </trkpt>
      <trkpt lat="43.2386" lon="5.68733">
        <ele>417</ele>
        <time>2020-09-16T13:54:20Z</time>
      </trkpt>
      <trkpt lat="43.23856" lon="5.68728">
        <ele>416</ele>
        <time>2020-09-16T13:54:26Z</time>
      </trkpt>
      <trkpt lat="43.23853" lon="5.68722">
        <ele>416</ele>
        <time>2020-09-16T13:54:32Z</time>
      </trkpt>
      <trkpt lat="43.23848" lon="5.68716">
        <ele>416</ele>
        <time>2020-09-16T13:54:38Z</time>
      </trkpt>
      <trkpt lat="43.23844" lon="5.68713">
        <ele>416</ele>
        <time>2020-09-16T13:54:42Z</time>
      </trkpt>
      <trkpt lat="43.23838" lon="5.68709">
        <ele>416</ele>
        <time>2020-09-16T13:54:48Z</time>
      </trkpt>
      <trkpt lat="43.23832" lon="5.68706">
        <ele>413</ele>
        <time>2020-09-16T13:54:54Z</time>
      </trkpt>
      <trkpt lat="43.23832" lon="5.68699">
        <ele>413</ele>
        <time>2020-09-16T13:57:02Z</time>
      </trkpt>
      <trkpt lat="43.23829" lon="5.68693">
        <ele>413</ele>
        <time>2020-09-16T13:57:08Z</time>
      </trkpt>
      <trkpt lat="43.23824" lon="5.68688">
        <ele>413</ele>
        <time>2020-09-16T13:57:14Z</time>
      </trkpt>
      <trkpt lat="43.2382" lon="5.68682">
        <ele>413</ele>
        <time>2020-09-16T13:57:20Z</time>
      </trkpt>
      <trkpt lat="43.23816" lon="5.68678">
        <ele>413</ele>
        <time>2020-09-16T13:57:26Z</time>
      </trkpt>
      <trkpt lat="43.23812" lon="5.68673">
        <ele>413</ele>
        <time>2020-09-16T13:57:34Z</time>
      </trkpt>
      <trkpt lat="43.23808" lon="5.68665">
        <ele>413</ele>
        <time>2020-09-16T13:57:40Z</time>
      </trkpt>
      <trkpt lat="43.23807" lon="5.68659">
        <ele>412</ele>
        <time>2020-09-16T13:57:46Z</time>
      </trkpt>
      <trkpt lat="43.23804" lon="5.68653">
        <ele>412</ele>
        <time>2020-09-16T13:57:52Z</time>
      </trkpt>
      <trkpt lat="43.23802" lon="5.68647">
        <ele>412</ele>
        <time>2020-09-16T13:57:56Z</time>
      </trkpt>
      <trkpt lat="43.23799" lon="5.68642">
        <ele>412</ele>
        <time>2020-09-16T13:58:02Z</time>
      </trkpt>
      <trkpt lat="43.23798" lon="5.68636">
        <ele>412</ele>
        <time>2020-09-16T13:58:08Z</time>
      </trkpt>
      <trkpt lat="43.23797" lon="5.68629">
        <ele>412</ele>
        <time>2020-09-16T13:58:14Z</time>
      </trkpt>
      <trkpt lat="43.23795" lon="5.68623">
        <ele>412</ele>
        <time>2020-09-16T13:58:18Z</time>
      </trkpt>
      <trkpt lat="43.23794" lon="5.68616">
        <ele>412</ele>
        <time>2020-09-16T13:58:24Z</time>
      </trkpt>
      <trkpt lat="43.23795" lon="5.68609">
        <ele>411</ele>
        <time>2020-09-16T13:58:30Z</time>
      </trkpt>
      <trkpt lat="43.23794" lon="5.68601">
        <ele>411</ele>
        <time>2020-09-16T13:58:36Z</time>
      </trkpt>
      <trkpt lat="43.23794" lon="5.68592">
        <ele>411</ele>
        <time>2020-09-16T13:58:42Z</time>
      </trkpt>
      <trkpt lat="43.23793" lon="5.68584">
        <ele>411</ele>
        <time>2020-09-16T13:58:48Z</time>
      </trkpt>
      <trkpt lat="43.23792" lon="5.68577">
        <ele>411</ele>
        <time>2020-09-16T13:58:54Z</time>
      </trkpt>
      <trkpt lat="43.23791" lon="5.6857">
        <ele>411</ele>
        <time>2020-09-16T13:58:58Z</time>
      </trkpt>
      <trkpt lat="43.2379" lon="5.68564">
        <ele>411</ele>
        <time>2020-09-16T13:59:04Z</time>
      </trkpt>
      <trkpt lat="43.23787" lon="5.68556">
        <ele>411</ele>
        <time>2020-09-16T13:59:10Z</time>
      </trkpt>
      <trkpt lat="43.23783" lon="5.68548">
        <ele>411</ele>
        <time>2020-09-16T13:59:14Z</time>
      </trkpt>
      <trkpt lat="43.23781" lon="5.6854">
        <ele>411</ele>
        <time>2020-09-16T13:59:18Z</time>
      </trkpt>
      <trkpt lat="43.23779" lon="5.68535">
        <ele>411</ele>
        <time>2020-09-16T13:59:22Z</time>
      </trkpt>
      <trkpt lat="43.23778" lon="5.68528">
        <ele>411</ele>
        <time>2020-09-16T13:59:28Z</time>
      </trkpt>
      <trkpt lat="43.23776" lon="5.68522">
        <ele>411</ele>
        <time>2020-09-16T13:59:34Z</time>
      </trkpt>
      <trkpt lat="43.23774" lon="5.68515">
        <ele>411</ele>
        <time>2020-09-16T13:59:40Z</time>
      </trkpt>
      <trkpt lat="43.23771" lon="5.68509">
        <ele>411</ele>
        <time>2020-09-16T13:59:44Z</time>
      </trkpt>
      <trkpt lat="43.23768" lon="5.68502">
        <ele>411</ele>
        <time>2020-09-16T13:59:48Z</time>
      </trkpt>
      <trkpt lat="43.23765" lon="5.68493">
        <ele>411</ele>
        <time>2020-09-16T13:59:54Z</time>
      </trkpt>
      <trkpt lat="43.23764" lon="5.68487">
        <ele>411</ele>
        <time>2020-09-16T13:59:58Z</time>
      </trkpt>
      <trkpt lat="43.23762" lon="5.68478">
        <ele>411</ele>
        <time>2020-09-16T14:00:04Z</time>
      </trkpt>
      <trkpt lat="43.23761" lon="5.68469">
        <ele>411</ele>
        <time>2020-09-16T14:00:10Z</time>
      </trkpt>
      <trkpt lat="43.23758" lon="5.68463">
        <ele>411</ele>
        <time>2020-09-16T14:00:18Z</time>
      </trkpt>
      <trkpt lat="43.23756" lon="5.68456">
        <ele>411</ele>
        <time>2020-09-16T14:00:22Z</time>
      </trkpt>
      <trkpt lat="43.23754" lon="5.68448">
        <ele>410</ele>
        <time>2020-09-16T14:00:28Z</time>
      </trkpt>
      <trkpt lat="43.23752" lon="5.68441">
        <ele>410</ele>
        <time>2020-09-16T14:00:34Z</time>
      </trkpt>
      <trkpt lat="43.23749" lon="5.68434">
        <ele>407</ele>
        <time>2020-09-16T14:00:40Z</time>
      </trkpt>
      <trkpt lat="43.23748" lon="5.68427">
        <ele>407</ele>
        <time>2020-09-16T14:00:46Z</time>
      </trkpt>
      <trkpt lat="43.23746" lon="5.68421">
        <ele>408</ele>
        <time>2020-09-16T14:00:50Z</time>
      </trkpt>
      <trkpt lat="43.23743" lon="5.68415">
        <ele>407</ele>
        <time>2020-09-16T14:00:54Z</time>
      </trkpt>
      <trkpt lat="43.23741" lon="5.68409">
        <ele>407</ele>
        <time>2020-09-16T14:00:58Z</time>
      </trkpt>
      <trkpt lat="43.23738" lon="5.68402">
        <ele>406</ele>
        <time>2020-09-16T14:01:06Z</time>
      </trkpt>
      <trkpt lat="43.23736" lon="5.68395">
        <ele>406</ele>
        <time>2020-09-16T14:01:12Z</time>
      </trkpt>
      <trkpt lat="43.23734" lon="5.6839">
        <ele>406</ele>
        <time>2020-09-16T14:01:18Z</time>
      </trkpt>
      <trkpt lat="43.23732" lon="5.68383">
        <ele>406</ele>
        <time>2020-09-16T14:01:24Z</time>
      </trkpt>
      <trkpt lat="43.23731" lon="5.68376">
        <ele>406</ele>
        <time>2020-09-16T14:01:32Z</time>
      </trkpt>
      <trkpt lat="43.23728" lon="5.68368">
        <ele>406</ele>
        <time>2020-09-16T14:01:38Z</time>
      </trkpt>
      <trkpt lat="43.23726" lon="5.68362">
        <ele>406</ele>
        <time>2020-09-16T14:01:42Z</time>
      </trkpt>
      <trkpt lat="43.23724" lon="5.68355">
        <ele>406</ele>
        <time>2020-09-16T14:01:46Z</time>
      </trkpt>
      <trkpt lat="43.23722" lon="5.68348">
        <ele>406</ele>
        <time>2020-09-16T14:01:52Z</time>
      </trkpt>
      <trkpt lat="43.23721" lon="5.68341">
        <ele>406</ele>
        <time>2020-09-16T14:01:58Z</time>
      </trkpt>
      <trkpt lat="43.23719" lon="5.68334">
        <ele>405</ele>
        <time>2020-09-16T14:02:06Z</time>
      </trkpt>
      <trkpt lat="43.23715" lon="5.68327">
        <ele>405</ele>
        <time>2020-09-16T14:02:12Z</time>
      </trkpt>
      <trkpt lat="43.23711" lon="5.68318">
        <ele>405</ele>
        <time>2020-09-16T14:02:18Z</time>
      </trkpt>
      <trkpt lat="43.23709" lon="5.68312">
        <ele>405</ele>
        <time>2020-09-16T14:02:22Z</time>
      </trkpt>
      <trkpt lat="43.23708" lon="5.68306">
        <ele>405</ele>
        <time>2020-09-16T14:02:26Z</time>
      </trkpt>
      <trkpt lat="43.23707" lon="5.68299">
        <ele>405</ele>
        <time>2020-09-16T14:02:32Z</time>
      </trkpt>
      <trkpt lat="43.23708" lon="5.68292">
        <ele>405</ele>
        <time>2020-09-16T14:02:38Z</time>
      </trkpt>
      <trkpt lat="43.23707" lon="5.68285">
        <ele>405</ele>
        <time>2020-09-16T14:02:44Z</time>
      </trkpt>
      <trkpt lat="43.23706" lon="5.68275">
        <ele>405</ele>
        <time>2020-09-16T14:02:54Z</time>
      </trkpt>
      <trkpt lat="43.23704" lon="5.68269">
        <ele>405</ele>
        <time>2020-09-16T14:02:58Z</time>
      </trkpt>
      <trkpt lat="43.23701" lon="5.68263">
        <ele>405</ele>
        <time>2020-09-16T14:03:02Z</time>
      </trkpt>
      <trkpt lat="43.23698" lon="5.68257">
        <ele>405</ele>
        <time>2020-09-16T14:03:06Z</time>
      </trkpt>
      <trkpt lat="43.23695" lon="5.68249">
        <ele>406</ele>
        <time>2020-09-16T14:03:12Z</time>
      </trkpt>
      <trkpt lat="43.23693" lon="5.68242">
        <ele>406</ele>
        <time>2020-09-16T14:03:18Z</time>
      </trkpt>
      <trkpt lat="43.2369" lon="5.68236">
        <ele>405</ele>
        <time>2020-09-16T14:03:24Z</time>
      </trkpt>
      <trkpt lat="43.23688" lon="5.6823">
        <ele>405</ele>
        <time>2020-09-16T14:03:28Z</time>
      </trkpt>
      <trkpt lat="43.23684" lon="5.68225">
        <ele>405</ele>
        <time>2020-09-16T14:03:32Z</time>
      </trkpt>
      <trkpt lat="43.2368" lon="5.6822">
        <ele>405</ele>
        <time>2020-09-16T14:03:38Z</time>
      </trkpt>
      <trkpt lat="43.23676" lon="5.68213">
        <ele>405</ele>
        <time>2020-09-16T14:03:46Z</time>
      </trkpt>
      <trkpt lat="43.23673" lon="5.68207">
        <ele>405</ele>
        <time>2020-09-16T14:03:50Z</time>
      </trkpt>
      <trkpt lat="43.2367" lon="5.68201">
        <ele>405</ele>
        <time>2020-09-16T14:03:56Z</time>
      </trkpt>
      <trkpt lat="43.23668" lon="5.68194">
        <ele>405</ele>
        <time>2020-09-16T14:04:02Z</time>
      </trkpt>
      <trkpt lat="43.23666" lon="5.68188">
        <ele>403</ele>
        <time>2020-09-16T14:04:08Z</time>
      </trkpt>
      <trkpt lat="43.23663" lon="5.6818">
        <ele>403</ele>
        <time>2020-09-16T14:04:14Z</time>
      </trkpt>
      <trkpt lat="43.23662" lon="5.68174">
        <ele>403</ele>
        <time>2020-09-16T14:04:20Z</time>
      </trkpt>
      <trkpt lat="43.2366" lon="5.68166">
        <ele>404</ele>
        <time>2020-09-16T14:04:28Z</time>
      </trkpt>
      <trkpt lat="43.23658" lon="5.68159">
        <ele>404</ele>
        <time>2020-09-16T14:04:34Z</time>
      </trkpt>
      <trkpt lat="43.23655" lon="5.68152">
        <ele>403</ele>
        <time>2020-09-16T14:04:40Z</time>
      </trkpt>
      <trkpt lat="43.23652" lon="5.68146">
        <ele>403</ele>
        <time>2020-09-16T14:04:46Z</time>
      </trkpt>
      <trkpt lat="43.2365" lon="5.68141">
        <ele>403</ele>
        <time>2020-09-16T14:04:50Z</time>
      </trkpt>
      <trkpt lat="43.23647" lon="5.68134">
        <ele>403</ele>
        <time>2020-09-16T14:04:54Z</time>
      </trkpt>
      <trkpt lat="43.23644" lon="5.68127">
        <ele>403</ele>
        <time>2020-09-16T14:05:00Z</time>
      </trkpt>
      <trkpt lat="43.23641" lon="5.68119">
        <ele>403</ele>
        <time>2020-09-16T14:05:06Z</time>
      </trkpt>
      <trkpt lat="43.23638" lon="5.68112">
        <ele>403</ele>
        <time>2020-09-16T14:05:12Z</time>
      </trkpt>
      <trkpt lat="43.23634" lon="5.68106">
        <ele>403</ele>
        <time>2020-09-16T14:05:16Z</time>
      </trkpt>
      <trkpt lat="43.23632" lon="5.681">
        <ele>403</ele>
        <time>2020-09-16T14:05:20Z</time>
      </trkpt>
      <trkpt lat="43.2363" lon="5.68094">
        <ele>403</ele>
        <time>2020-09-16T14:05:24Z</time>
      </trkpt>
      <trkpt lat="43.23628" lon="5.68088">
        <ele>403</ele>
        <time>2020-09-16T14:05:28Z</time>
      </trkpt>
      <trkpt lat="43.23626" lon="5.68081">
        <ele>404</ele>
        <time>2020-09-16T14:05:34Z</time>
      </trkpt>
      <trkpt lat="43.23623" lon="5.68076">
        <ele>404</ele>
        <time>2020-09-16T14:05:38Z</time>
      </trkpt>
      <trkpt lat="43.23619" lon="5.6807">
        <ele>404</ele>
        <time>2020-09-16T14:05:44Z</time>
      </trkpt>
      <trkpt lat="43.23616" lon="5.68065">
        <ele>404</ele>
        <time>2020-09-16T14:05:50Z</time>
      </trkpt>
      <trkpt lat="43.23614" lon="5.68058">
        <ele>404</ele>
        <time>2020-09-16T14:05:58Z</time>
      </trkpt>
      <trkpt lat="43.23611" lon="5.68053">
        <ele>404</ele>
        <time>2020-09-16T14:06:32Z</time>
      </trkpt>
      <trkpt lat="43.23608" lon="5.68058">
        <ele>404</ele>
        <time>2020-09-16T14:11:08Z</time>
      </trkpt>
      <trkpt lat="43.23613" lon="5.68054">
        <ele>404</ele>
        <time>2020-09-16T14:13:06Z</time>
      </trkpt>
      <trkpt lat="43.23618" lon="5.68056">
        <ele>404</ele>
        <time>2020-09-16T14:13:12Z</time>
      </trkpt>
      <trkpt lat="43.23624" lon="5.68058">
        <ele>404</ele>
        <time>2020-09-16T14:13:22Z</time>
      </trkpt>
      <trkpt lat="43.23628" lon="5.68061">
        <ele>404</ele>
        <time>2020-09-16T14:13:28Z</time>
      </trkpt>
      <trkpt lat="43.23634" lon="5.68059">
        <ele>404</ele>
        <time>2020-09-16T14:13:34Z</time>
      </trkpt>
      <trkpt lat="43.23639" lon="5.6806">
        <ele>404</ele>
        <time>2020-09-16T14:13:42Z</time>
      </trkpt>
      <trkpt lat="43.23645" lon="5.68063">
        <ele>404</ele>
        <time>2020-09-16T14:13:46Z</time>
      </trkpt>
      <trkpt lat="43.23642" lon="5.68057">
        <ele>404</ele>
        <time>2020-09-16T14:14:00Z</time>
      </trkpt>
      <trkpt lat="43.23648" lon="5.68057">
        <ele>404</ele>
        <time>2020-09-16T14:14:48Z</time>
      </trkpt>
      <trkpt lat="43.23653" lon="5.68054">
        <ele>404</ele>
        <time>2020-09-16T14:14:56Z</time>
      </trkpt>
      <trkpt lat="43.23658" lon="5.6805">
        <ele>404</ele>
        <time>2020-09-16T14:15:00Z</time>
      </trkpt>
      <trkpt lat="43.23662" lon="5.68044">
        <ele>404</ele>
        <time>2020-09-16T14:15:06Z</time>
      </trkpt>
      <trkpt lat="43.23664" lon="5.68038">
        <ele>405</ele>
        <time>2020-09-16T14:15:36Z</time>
      </trkpt>
      <trkpt lat="43.23669" lon="5.68038">
        <ele>406</ele>
        <time>2020-09-16T14:15:42Z</time>
      </trkpt>
      <trkpt lat="43.23674" lon="5.68035">
        <ele>407</ele>
        <time>2020-09-16T14:15:54Z</time>
      </trkpt>
      <trkpt lat="43.23679" lon="5.68032">
        <ele>407</ele>
        <time>2020-09-16T14:16:04Z</time>
      </trkpt>
      <trkpt lat="43.23685" lon="5.68029">
        <ele>407</ele>
        <time>2020-09-16T14:16:12Z</time>
      </trkpt>
      <trkpt lat="43.23689" lon="5.68025">
        <ele>407</ele>
        <time>2020-09-16T14:16:18Z</time>
      </trkpt>
      <trkpt lat="43.23693" lon="5.68021">
        <ele>407</ele>
        <time>2020-09-16T14:16:24Z</time>
      </trkpt>
      <trkpt lat="43.23698" lon="5.68022">
        <ele>407</ele>
        <time>2020-09-16T14:16:28Z</time>
      </trkpt>
      <trkpt lat="43.23703" lon="5.68027">
        <ele>407</ele>
        <time>2020-09-16T14:16:34Z</time>
      </trkpt>
      <trkpt lat="43.23708" lon="5.68032">
        <ele>407</ele>
        <time>2020-09-16T14:16:40Z</time>
      </trkpt>
      <trkpt lat="43.23713" lon="5.68036">
        <ele>407</ele>
        <time>2020-09-16T14:16:46Z</time>
      </trkpt>
      <trkpt lat="43.23718" lon="5.68038">
        <ele>408</ele>
        <time>2020-09-16T14:16:52Z</time>
      </trkpt>
      <trkpt lat="43.23724" lon="5.68039">
        <ele>408</ele>
        <time>2020-09-16T14:17:02Z</time>
      </trkpt>
      <trkpt lat="43.23727" lon="5.68045">
        <ele>408</ele>
        <time>2020-09-16T14:17:08Z</time>
      </trkpt>
      <trkpt lat="43.2373" lon="5.68051">
        <ele>408</ele>
        <time>2020-09-16T14:17:14Z</time>
      </trkpt>
      <trkpt lat="43.23734" lon="5.68056">
        <ele>408</ele>
        <time>2020-09-16T14:17:20Z</time>
      </trkpt>
      <trkpt lat="43.23737" lon="5.68062">
        <ele>408</ele>
        <time>2020-09-16T14:17:26Z</time>
      </trkpt>
      <trkpt lat="43.23741" lon="5.68069">
        <ele>408</ele>
        <time>2020-09-16T14:17:32Z</time>
      </trkpt>
      <trkpt lat="43.23743" lon="5.68075">
        <ele>408</ele>
        <time>2020-09-16T14:17:36Z</time>
      </trkpt>
      <trkpt lat="43.23747" lon="5.68083">
        <ele>409</ele>
        <time>2020-09-16T14:17:42Z</time>
      </trkpt>
      <trkpt lat="43.23752" lon="5.68088">
        <ele>410</ele>
        <time>2020-09-16T14:17:48Z</time>
      </trkpt>
      <trkpt lat="43.23754" lon="5.68095">
        <ele>411</ele>
        <time>2020-09-16T14:17:54Z</time>
      </trkpt>
      <trkpt lat="43.23756" lon="5.68101">
        <ele>411</ele>
        <time>2020-09-16T14:17:58Z</time>
      </trkpt>
      <trkpt lat="43.23759" lon="5.68108">
        <ele>412</ele>
        <time>2020-09-16T14:18:04Z</time>
      </trkpt>
      <trkpt lat="43.23762" lon="5.68114">
        <ele>412</ele>
        <time>2020-09-16T14:18:10Z</time>
      </trkpt>
      <trkpt lat="43.23765" lon="5.68119">
        <ele>412</ele>
        <time>2020-09-16T14:18:16Z</time>
      </trkpt>
      <trkpt lat="43.23768" lon="5.68124">
        <ele>412</ele>
        <time>2020-09-16T14:18:20Z</time>
      </trkpt>
      <trkpt lat="43.23772" lon="5.68131">
        <ele>412</ele>
        <time>2020-09-16T14:18:26Z</time>
      </trkpt>
      <trkpt lat="43.23775" lon="5.68135">
        <ele>412</ele>
        <time>2020-09-16T14:18:34Z</time>
      </trkpt>
      <trkpt lat="43.2378" lon="5.68135">
        <ele>413</ele>
        <time>2020-09-16T14:18:42Z</time>
      </trkpt>
      <trkpt lat="43.23785" lon="5.68136">
        <ele>413</ele>
        <time>2020-09-16T14:18:48Z</time>
      </trkpt>
      <trkpt lat="43.2379" lon="5.68136">
        <ele>413</ele>
        <time>2020-09-16T14:18:54Z</time>
      </trkpt>
      <trkpt lat="43.23795" lon="5.68137">
        <ele>413</ele>
        <time>2020-09-16T14:19:00Z</time>
      </trkpt>
      <trkpt lat="43.238" lon="5.6814">
        <ele>414</ele>
        <time>2020-09-16T14:19:06Z</time>
      </trkpt>
      <trkpt lat="43.23806" lon="5.68141">
        <ele>414</ele>
        <time>2020-09-16T14:19:14Z</time>
      </trkpt>
      <trkpt lat="43.23811" lon="5.68143">
        <ele>414</ele>
        <time>2020-09-16T14:19:22Z</time>
      </trkpt>
      <trkpt lat="43.23816" lon="5.68142">
        <ele>414</ele>
        <time>2020-09-16T14:19:30Z</time>
      </trkpt>
      <trkpt lat="43.23819" lon="5.68138">
        <ele>414</ele>
        <time>2020-09-16T14:19:36Z</time>
      </trkpt>
      <trkpt lat="43.23822" lon="5.68132">
        <ele>414</ele>
        <time>2020-09-16T14:19:42Z</time>
      </trkpt>
      <trkpt lat="43.23826" lon="5.68127">
        <ele>415</ele>
        <time>2020-09-16T14:19:48Z</time>
      </trkpt>
      <trkpt lat="43.23828" lon="5.68121">
        <ele>415</ele>
        <time>2020-09-16T14:19:52Z</time>
      </trkpt>
      <trkpt lat="43.2383" lon="5.68111">
        <ele>415</ele>
        <time>2020-09-16T14:19:58Z</time>
      </trkpt>
      <trkpt lat="43.23828" lon="5.68105">
        <ele>415</ele>
        <time>2020-09-16T14:20:02Z</time>
      </trkpt>
      <trkpt lat="43.23829" lon="5.68098">
        <ele>416</ele>
        <time>2020-09-16T14:20:08Z</time>
      </trkpt>
      <trkpt lat="43.2383" lon="5.6809">
        <ele>417</ele>
        <time>2020-09-16T14:20:14Z</time>
      </trkpt>
      <trkpt lat="43.23832" lon="5.68083">
        <ele>418</ele>
        <time>2020-09-16T14:20:20Z</time>
      </trkpt>
      <trkpt lat="43.23835" lon="5.68077">
        <ele>419</ele>
        <time>2020-09-16T14:20:26Z</time>
      </trkpt>
      <trkpt lat="43.23837" lon="5.68069">
        <ele>419</ele>
        <time>2020-09-16T14:20:32Z</time>
      </trkpt>
      <trkpt lat="43.2384" lon="5.68062">
        <ele>420</ele>
        <time>2020-09-16T14:20:38Z</time>
      </trkpt>
      <trkpt lat="43.23842" lon="5.68056">
        <ele>420</ele>
        <time>2020-09-16T14:20:42Z</time>
      </trkpt>
      <trkpt lat="43.23845" lon="5.68049">
        <ele>420</ele>
        <time>2020-09-16T14:20:48Z</time>
      </trkpt>
      <trkpt lat="43.23849" lon="5.68044">
        <ele>421</ele>
        <time>2020-09-16T14:20:54Z</time>
      </trkpt>
      <trkpt lat="43.23854" lon="5.6804">
        <ele>421</ele>
        <time>2020-09-16T14:21:00Z</time>
      </trkpt>
      <trkpt lat="43.23859" lon="5.68036">
        <ele>421</ele>
        <time>2020-09-16T14:21:06Z</time>
      </trkpt>
      <trkpt lat="43.23863" lon="5.68033">
        <ele>421</ele>
        <time>2020-09-16T14:21:10Z</time>
      </trkpt>
      <trkpt lat="43.23867" lon="5.68029">
        <ele>421</ele>
        <time>2020-09-16T14:21:14Z</time>
      </trkpt>
      <trkpt lat="43.2387" lon="5.68023">
        <ele>421</ele>
        <time>2020-09-16T14:21:20Z</time>
      </trkpt>
      <trkpt lat="43.23873" lon="5.68015">
        <ele>422</ele>
        <time>2020-09-16T14:21:26Z</time>
      </trkpt>
      <trkpt lat="43.23877" lon="5.68009">
        <ele>422</ele>
        <time>2020-09-16T14:21:32Z</time>
      </trkpt>
      <trkpt lat="43.23881" lon="5.68004">
        <ele>422</ele>
        <time>2020-09-16T14:21:38Z</time>
      </trkpt>
      <trkpt lat="43.23885" lon="5.67998">
        <ele>422</ele>
        <time>2020-09-16T14:21:44Z</time>
      </trkpt>
      <trkpt lat="43.23889" lon="5.67993">
        <ele>422</ele>
        <time>2020-09-16T14:21:52Z</time>
      </trkpt>
      <trkpt lat="43.23892" lon="5.67985">
        <ele>422</ele>
        <time>2020-09-16T14:21:58Z</time>
      </trkpt>
      <trkpt lat="43.23894" lon="5.6798">
        <ele>422</ele>
        <time>2020-09-16T14:22:02Z</time>
      </trkpt>
      <trkpt lat="43.23897" lon="5.67974">
        <ele>422</ele>
        <time>2020-09-16T14:22:06Z</time>
      </trkpt>
      <trkpt lat="43.23899" lon="5.67966">
        <ele>422</ele>
        <time>2020-09-16T14:22:12Z</time>
      </trkpt>
      <trkpt lat="43.23901" lon="5.6796">
        <ele>422</ele>
        <time>2020-09-16T14:22:20Z</time>
      </trkpt>
      <trkpt lat="43.23901" lon="5.67952">
        <ele>422</ele>
        <time>2020-09-16T14:22:26Z</time>
      </trkpt>
      <trkpt lat="43.23902" lon="5.67944">
        <ele>422</ele>
        <time>2020-09-16T14:22:32Z</time>
      </trkpt>
      <trkpt lat="43.23905" lon="5.67937">
        <ele>422</ele>
        <time>2020-09-16T14:22:38Z</time>
      </trkpt>
      <trkpt lat="43.2391" lon="5.67932">
        <ele>423</ele>
        <time>2020-09-16T14:22:44Z</time>
      </trkpt>
      <trkpt lat="43.23915" lon="5.6793">
        <ele>423</ele>
        <time>2020-09-16T14:22:50Z</time>
      </trkpt>
      <trkpt lat="43.23921" lon="5.67928">
        <ele>425</ele>
        <time>2020-09-16T14:22:56Z</time>
      </trkpt>
      <trkpt lat="43.23924" lon="5.67922">
        <ele>425</ele>
        <time>2020-09-16T14:23:02Z</time>
      </trkpt>
      <trkpt lat="43.23926" lon="5.67914">
        <ele>425</ele>
        <time>2020-09-16T14:23:08Z</time>
      </trkpt>
      <trkpt lat="43.23928" lon="5.67908">
        <ele>425</ele>
        <time>2020-09-16T14:23:14Z</time>
      </trkpt>
      <trkpt lat="43.23929" lon="5.67902">
        <ele>425</ele>
        <time>2020-09-16T14:23:20Z</time>
      </trkpt>
      <trkpt lat="43.23929" lon="5.67894">
        <ele>426</ele>
        <time>2020-09-16T14:23:26Z</time>
      </trkpt>
      <trkpt lat="43.2393" lon="5.67888">
        <ele>426</ele>
        <time>2020-09-16T14:23:30Z</time>
      </trkpt>
      <trkpt lat="43.23932" lon="5.6788">
        <ele>426</ele>
        <time>2020-09-16T14:23:36Z</time>
      </trkpt>
      <trkpt lat="43.23932" lon="5.67873">
        <ele>426</ele>
        <time>2020-09-16T14:23:40Z</time>
      </trkpt>
      <trkpt lat="43.23931" lon="5.67866">
        <ele>426</ele>
        <time>2020-09-16T14:23:44Z</time>
      </trkpt>
      <trkpt lat="43.2393" lon="5.67857">
        <ele>425</ele>
        <time>2020-09-16T14:23:50Z</time>
      </trkpt>
      <trkpt lat="43.2393" lon="5.6785">
        <ele>425</ele>
        <time>2020-09-16T14:23:56Z</time>
      </trkpt>
      <trkpt lat="43.2393" lon="5.67843">
        <ele>425</ele>
        <time>2020-09-16T14:24:02Z</time>
      </trkpt>
      <trkpt lat="43.23932" lon="5.67835">
        <ele>425</ele>
        <time>2020-09-16T14:24:08Z</time>
      </trkpt>
      <trkpt lat="43.23933" lon="5.67829">
        <ele>425</ele>
        <time>2020-09-16T14:24:12Z</time>
      </trkpt>
      <trkpt lat="43.23936" lon="5.67822">
        <ele>425</ele>
        <time>2020-09-16T14:24:18Z</time>
      </trkpt>
      <trkpt lat="43.23936" lon="5.67815">
        <ele>426</ele>
        <time>2020-09-16T14:24:22Z</time>
      </trkpt>
      <trkpt lat="43.23936" lon="5.67808">
        <ele>426</ele>
        <time>2020-09-16T14:24:28Z</time>
      </trkpt>
      <trkpt lat="43.23937" lon="5.67799">
        <ele>426</ele>
        <time>2020-09-16T14:24:34Z</time>
      </trkpt>
      <trkpt lat="43.2394" lon="5.67792">
        <ele>426</ele>
        <time>2020-09-16T14:24:40Z</time>
      </trkpt>
      <trkpt lat="43.23941" lon="5.67784">
        <ele>426</ele>
        <time>2020-09-16T14:24:46Z</time>
      </trkpt>
      <trkpt lat="43.23943" lon="5.67777">
        <ele>426</ele>
        <time>2020-09-16T14:24:52Z</time>
      </trkpt>
      <trkpt lat="43.23945" lon="5.6777">
        <ele>426</ele>
        <time>2020-09-16T14:24:58Z</time>
      </trkpt>
      <trkpt lat="43.23948" lon="5.67763">
        <ele>426</ele>
        <time>2020-09-16T14:25:04Z</time>
      </trkpt>
      <trkpt lat="43.23949" lon="5.67757">
        <ele>426</ele>
        <time>2020-09-16T14:25:08Z</time>
      </trkpt>
      <trkpt lat="43.23952" lon="5.67751">
        <ele>426</ele>
        <time>2020-09-16T14:25:12Z</time>
      </trkpt>
      <trkpt lat="43.23953" lon="5.67743">
        <ele>427</ele>
        <time>2020-09-16T14:25:18Z</time>
      </trkpt>
      <trkpt lat="43.23954" lon="5.67737">
        <ele>427</ele>
        <time>2020-09-16T14:25:22Z</time>
      </trkpt>
      <trkpt lat="43.23956" lon="5.67728">
        <ele>427</ele>
        <time>2020-09-16T14:25:28Z</time>
      </trkpt>
      <trkpt lat="43.23957" lon="5.67721">
        <ele>427</ele>
        <time>2020-09-16T14:25:34Z</time>
      </trkpt>
      <trkpt lat="43.23959" lon="5.67714">
        <ele>427</ele>
        <time>2020-09-16T14:25:40Z</time>
      </trkpt>
      <trkpt lat="43.23963" lon="5.67707">
        <ele>427</ele>
        <time>2020-09-16T14:25:46Z</time>
      </trkpt>
      <trkpt lat="43.23966" lon="5.67701">
        <ele>427</ele>
        <time>2020-09-16T14:25:52Z</time>
      </trkpt>
      <trkpt lat="43.23967" lon="5.67694">
        <ele>427</ele>
        <time>2020-09-16T14:25:58Z</time>
      </trkpt>
      <trkpt lat="43.23967" lon="5.67687">
        <ele>427</ele>
        <time>2020-09-16T14:26:02Z</time>
      </trkpt>
      <trkpt lat="43.23971" lon="5.6768">
        <ele>427</ele>
        <time>2020-09-16T14:26:08Z</time>
      </trkpt>
      <trkpt lat="43.23975" lon="5.67673">
        <ele>428</ele>
        <time>2020-09-16T14:26:14Z</time>
      </trkpt>
      <trkpt lat="43.23979" lon="5.67669">
        <ele>428</ele>
        <time>2020-09-16T14:26:18Z</time>
      </trkpt>
      <trkpt lat="43.23984" lon="5.67665">
        <ele>428</ele>
        <time>2020-09-16T14:26:24Z</time>
      </trkpt>
      <trkpt lat="43.2399" lon="5.67662">
        <ele>428</ele>
        <time>2020-09-16T14:26:30Z</time>
      </trkpt>
      <trkpt lat="43.23995" lon="5.67659">
        <ele>428</ele>
        <time>2020-09-16T14:26:36Z</time>
      </trkpt>
      <trkpt lat="43.24" lon="5.67658">
        <ele>429</ele>
        <time>2020-09-16T14:26:42Z</time>
      </trkpt>
      <trkpt lat="43.24006" lon="5.67657">
        <ele>429</ele>
        <time>2020-09-16T14:26:48Z</time>
      </trkpt>
      <trkpt lat="43.24011" lon="5.67655">
        <ele>429</ele>
        <time>2020-09-16T14:26:54Z</time>
      </trkpt>
      <trkpt lat="43.24015" lon="5.67653">
        <ele>429</ele>
        <time>2020-09-16T14:26:58Z</time>
      </trkpt>
      <trkpt lat="43.24021" lon="5.6765">
        <ele>429</ele>
        <time>2020-09-16T14:27:02Z</time>
      </trkpt>
      <trkpt lat="43.24025" lon="5.67645">
        <ele>429</ele>
        <time>2020-09-16T14:27:08Z</time>
      </trkpt>
      <trkpt lat="43.24029" lon="5.67641">
        <ele>429</ele>
        <time>2020-09-16T14:27:12Z</time>
      </trkpt>
      <trkpt lat="43.24034" lon="5.67637">
        <ele>429</ele>
        <time>2020-09-16T14:27:16Z</time>
      </trkpt>
      <trkpt lat="43.24038" lon="5.67632">
        <ele>430</ele>
        <time>2020-09-16T14:27:22Z</time>
      </trkpt>
      <trkpt lat="43.24042" lon="5.67626">
        <ele>430</ele>
        <time>2020-09-16T14:27:28Z</time>
      </trkpt>
      <trkpt lat="43.24045" lon="5.67618">
        <ele>429</ele>
        <time>2020-09-16T14:27:34Z</time>
      </trkpt>
      <trkpt lat="43.24046" lon="5.67611">
        <ele>429</ele>
        <time>2020-09-16T14:27:40Z</time>
      </trkpt>
      <trkpt lat="43.24046" lon="5.67604">
        <ele>429</ele>
        <time>2020-09-16T14:27:44Z</time>
      </trkpt>
      <trkpt lat="43.24043" lon="5.67595">
        <ele>429</ele>
        <time>2020-09-16T14:27:50Z</time>
      </trkpt>
      <trkpt lat="43.24042" lon="5.67589">
        <ele>429</ele>
        <time>2020-09-16T14:27:54Z</time>
      </trkpt>
      <trkpt lat="43.24041" lon="5.67582">
        <ele>429</ele>
        <time>2020-09-16T14:27:58Z</time>
      </trkpt>
      <trkpt lat="43.2404" lon="5.67576">
        <ele>429</ele>
        <time>2020-09-16T14:28:02Z</time>
      </trkpt>
      <trkpt lat="43.24038" lon="5.67569">
        <ele>429</ele>
        <time>2020-09-16T14:28:06Z</time>
      </trkpt>
      <trkpt lat="43.24037" lon="5.67561">
        <ele>429</ele>
        <time>2020-09-16T14:28:12Z</time>
      </trkpt>
      <trkpt lat="43.24035" lon="5.67554">
        <ele>429</ele>
        <time>2020-09-16T14:28:18Z</time>
      </trkpt>
      <trkpt lat="43.24031" lon="5.67547">
        <ele>429</ele>
        <time>2020-09-16T14:28:24Z</time>
      </trkpt>
      <trkpt lat="43.24027" lon="5.67541">
        <ele>429</ele>
        <time>2020-09-16T14:28:32Z</time>
      </trkpt>
      <trkpt lat="43.24023" lon="5.67537">
        <ele>429</ele>
        <time>2020-09-16T14:28:38Z</time>
      </trkpt>
      <trkpt lat="43.24019" lon="5.67533">
        <ele>429</ele>
        <time>2020-09-16T14:28:44Z</time>
      </trkpt>
      <trkpt lat="43.24024" lon="5.67539">
        <ele>429</ele>
        <time>2020-09-16T14:30:16Z</time>
      </trkpt>
      <trkpt lat="43.24028" lon="5.67543">
        <ele>429</ele>
        <time>2020-09-16T14:30:20Z</time>
      </trkpt>
      <trkpt lat="43.24031" lon="5.67548">
        <ele>429</ele>
        <time>2020-09-16T14:30:24Z</time>
      </trkpt>
      <trkpt lat="43.24035" lon="5.67553">
        <ele>429</ele>
        <time>2020-09-16T14:30:28Z</time>
      </trkpt>
      <trkpt lat="43.24038" lon="5.67558">
        <ele>429</ele>
        <time>2020-09-16T14:30:34Z</time>
      </trkpt>
      <trkpt lat="43.24041" lon="5.67563">
        <ele>429</ele>
        <time>2020-09-16T14:30:40Z</time>
      </trkpt>
      <trkpt lat="43.24042" lon="5.6757">
        <ele>429</ele>
        <time>2020-09-16T14:30:46Z</time>
      </trkpt>
      <trkpt lat="43.24042" lon="5.67577">
        <ele>429</ele>
        <time>2020-09-16T14:30:52Z</time>
      </trkpt>
      <trkpt lat="43.24044" lon="5.67585">
        <ele>429</ele>
        <time>2020-09-16T14:30:58Z</time>
      </trkpt>
      <trkpt lat="43.24045" lon="5.67592">
        <ele>429</ele>
        <time>2020-09-16T14:31:04Z</time>
      </trkpt>
      <trkpt lat="43.24048" lon="5.67599">
        <ele>429</ele>
        <time>2020-09-16T14:31:10Z</time>
      </trkpt>
      <trkpt lat="43.24053" lon="5.67603">
        <ele>430</ele>
        <time>2020-09-16T14:31:16Z</time>
      </trkpt>
      <trkpt lat="43.24059" lon="5.67605">
        <ele>430</ele>
        <time>2020-09-16T14:31:22Z</time>
      </trkpt>
      <trkpt lat="43.24065" lon="5.67603">
        <ele>430</ele>
        <time>2020-09-16T14:31:28Z</time>
      </trkpt>
      <trkpt lat="43.24071" lon="5.67602">
        <ele>430</ele>
        <time>2020-09-16T14:31:34Z</time>
      </trkpt>
      <trkpt lat="43.24075" lon="5.67599">
        <ele>430</ele>
        <time>2020-09-16T14:31:40Z</time>
      </trkpt>
      <trkpt lat="43.2408" lon="5.67596">
        <ele>430</ele>
        <time>2020-09-16T14:31:44Z</time>
      </trkpt>
      <trkpt lat="43.24086" lon="5.67595">
        <ele>430</ele>
        <time>2020-09-16T14:31:50Z</time>
      </trkpt>
      <trkpt lat="43.24092" lon="5.67593">
        <ele>430</ele>
        <time>2020-09-16T14:31:56Z</time>
      </trkpt>
      <trkpt lat="43.24096" lon="5.67588">
        <ele>430</ele>
        <time>2020-09-16T14:32:02Z</time>
      </trkpt>
      <trkpt lat="43.241" lon="5.67581">
        <ele>430</ele>
        <time>2020-09-16T14:32:08Z</time>
      </trkpt>
      <trkpt lat="43.24101" lon="5.67573">
        <ele>430</ele>
        <time>2020-09-16T14:32:14Z</time>
      </trkpt>
      <trkpt lat="43.24103" lon="5.67566">
        <ele>431</ele>
        <time>2020-09-16T14:32:20Z</time>
      </trkpt>
      <trkpt lat="43.24108" lon="5.67563">
        <ele>431</ele>
        <time>2020-09-16T14:32:26Z</time>
      </trkpt>
      <trkpt lat="43.24114" lon="5.67562">
        <ele>431</ele>
        <time>2020-09-16T14:32:34Z</time>
      </trkpt>
      <trkpt lat="43.24119" lon="5.67559">
        <ele>431</ele>
        <time>2020-09-16T14:32:40Z</time>
      </trkpt>
      <trkpt lat="43.24123" lon="5.67555">
        <ele>431</ele>
        <time>2020-09-16T14:32:48Z</time>
      </trkpt>
      <trkpt lat="43.24128" lon="5.67552">
        <ele>431</ele>
        <time>2020-09-16T14:32:52Z</time>
      </trkpt>
      <trkpt lat="43.24132" lon="5.67549">
        <ele>431</ele>
        <time>2020-09-16T14:32:56Z</time>
      </trkpt>
      <trkpt lat="43.24136" lon="5.67547">
        <ele>431</ele>
        <time>2020-09-16T14:33:02Z</time>
      </trkpt>
      <trkpt lat="43.24138" lon="5.67541">
        <ele>431</ele>
        <time>2020-09-16T14:33:10Z</time>
      </trkpt>
      <trkpt lat="43.24135" lon="5.67533">
        <ele>431</ele>
        <time>2020-09-16T14:33:16Z</time>
      </trkpt>
      <trkpt lat="43.24133" lon="5.67526">
        <ele>431</ele>
        <time>2020-09-16T14:33:20Z</time>
      </trkpt>
      <trkpt lat="43.24129" lon="5.6752">
        <ele>431</ele>
        <time>2020-09-16T14:33:26Z</time>
      </trkpt>
      <trkpt lat="43.24126" lon="5.67514">
        <ele>431</ele>
        <time>2020-09-16T14:33:32Z</time>
      </trkpt>
      <trkpt lat="43.24124" lon="5.67508">
        <ele>431</ele>
        <time>2020-09-16T14:33:36Z</time>
      </trkpt>
      <trkpt lat="43.2412" lon="5.67501">
        <ele>431</ele>
        <time>2020-09-16T14:33:42Z</time>
      </trkpt>
      <trkpt lat="43.24117" lon="5.67494">
        <ele>430</ele>
        <time>2020-09-16T14:33:48Z</time>
      </trkpt>
      <trkpt lat="43.24113" lon="5.6749">
        <ele>430</ele>
        <time>2020-09-16T14:33:54Z</time>
      </trkpt>
      <trkpt lat="43.24108" lon="5.67488">
        <ele>430</ele>
        <time>2020-09-16T14:34:00Z</time>
      </trkpt>
      <trkpt lat="43.24102" lon="5.67485">
        <ele>430</ele>
        <time>2020-09-16T14:34:06Z</time>
      </trkpt>
      <trkpt lat="43.24098" lon="5.67481">
        <ele>430</ele>
        <time>2020-09-16T14:34:14Z</time>
      </trkpt>
      <trkpt lat="43.24095" lon="5.67485">
        <ele>430</ele>
        <time>2020-09-16T14:34:34Z</time>
      </trkpt>
      <trkpt lat="43.2409" lon="5.67488">
        <ele>431</ele>
        <time>2020-09-16T14:34:42Z</time>
      </trkpt>
      <trkpt lat="43.24086" lon="5.6749">
        <ele>431</ele>
        <time>2020-09-16T14:34:48Z</time>
      </trkpt>
      <trkpt lat="43.24081" lon="5.67488">
        <ele>430</ele>
        <time>2020-09-16T14:35:00Z</time>
      </trkpt>
      <trkpt lat="43.24077" lon="5.67483">
        <ele>430</ele>
        <time>2020-09-16T14:35:06Z</time>
      </trkpt>
      <trkpt lat="43.24074" lon="5.67476">
        <ele>430</ele>
        <time>2020-09-16T14:35:16Z</time>
      </trkpt>
      <trkpt lat="43.24073" lon="5.67469">
        <ele>429</ele>
        <time>2020-09-16T14:35:46Z</time>
      </trkpt>
      <trkpt lat="43.24077" lon="5.67466">
        <ele>429</ele>
        <time>2020-09-16T14:35:58Z</time>
      </trkpt>
      <trkpt lat="43.24081" lon="5.6747">
        <ele>429</ele>
        <time>2020-09-16T14:36:08Z</time>
      </trkpt>
      <trkpt lat="43.2408" lon="5.67476">
        <ele>430</ele>
        <time>2020-09-16T14:42:56Z</time>
      </trkpt>
      <trkpt lat="43.24084" lon="5.6748">
        <ele>430</ele>
        <time>2020-09-16T14:43:12Z</time>
      </trkpt>
      <trkpt lat="43.2409" lon="5.67482">
        <ele>430</ele>
        <time>2020-09-16T14:43:24Z</time>
      </trkpt>
      <trkpt lat="43.24096" lon="5.67481">
        <ele>430</ele>
        <time>2020-09-16T14:43:30Z</time>
      </trkpt>
      <trkpt lat="43.24103" lon="5.67483">
        <ele>430</ele>
        <time>2020-09-16T14:43:36Z</time>
      </trkpt>
      <trkpt lat="43.24108" lon="5.67483">
        <ele>430</ele>
        <time>2020-09-16T14:43:44Z</time>
      </trkpt>
      <trkpt lat="43.24112" lon="5.67484">
        <ele>430</ele>
        <time>2020-09-16T14:44:52Z</time>
      </trkpt>
      <trkpt lat="43.24117" lon="5.67488">
        <ele>430</ele>
        <time>2020-09-16T14:45:36Z</time>
      </trkpt>
      <trkpt lat="43.24121" lon="5.67492">
        <ele>430</ele>
        <time>2020-09-16T14:45:44Z</time>
      </trkpt>
      <trkpt lat="43.24125" lon="5.67497">
        <ele>430</ele>
        <time>2020-09-16T14:46:50Z</time>
      </trkpt>
      <trkpt lat="43.24128" lon="5.67502">
        <ele>431</ele>
        <time>2020-09-16T14:46:56Z</time>
      </trkpt>
      <trkpt lat="43.24131" lon="5.67509">
        <ele>431</ele>
        <time>2020-09-16T14:47:02Z</time>
      </trkpt>
      <trkpt lat="43.24135" lon="5.67516">
        <ele>431</ele>
        <time>2020-09-16T14:47:08Z</time>
      </trkpt>
      <trkpt lat="43.24137" lon="5.67524">
        <ele>431</ele>
        <time>2020-09-16T14:47:14Z</time>
      </trkpt>
      <trkpt lat="43.24141" lon="5.6753">
        <ele>431</ele>
        <time>2020-09-16T14:47:18Z</time>
      </trkpt>
      <trkpt lat="43.24142" lon="5.67536">
        <ele>431</ele>
        <time>2020-09-16T14:47:22Z</time>
      </trkpt>
      <trkpt lat="43.24144" lon="5.67544">
        <ele>431</ele>
        <time>2020-09-16T14:47:28Z</time>
      </trkpt>
      <trkpt lat="43.24139" lon="5.67548">
        <ele>431</ele>
        <time>2020-09-16T14:47:34Z</time>
      </trkpt>
      <trkpt lat="43.24133" lon="5.67551">
        <ele>431</ele>
        <time>2020-09-16T14:47:38Z</time>
      </trkpt>
      <trkpt lat="43.24128" lon="5.67553">
        <ele>431</ele>
        <time>2020-09-16T14:47:42Z</time>
      </trkpt>
      <trkpt lat="43.24123" lon="5.67556">
        <ele>431</ele>
        <time>2020-09-16T14:47:46Z</time>
      </trkpt>
      <trkpt lat="43.24118" lon="5.67559">
        <ele>431</ele>
        <time>2020-09-16T14:47:50Z</time>
      </trkpt>
      <trkpt lat="43.24114" lon="5.67562">
        <ele>431</ele>
        <time>2020-09-16T14:47:54Z</time>
      </trkpt>
      <trkpt lat="43.24109" lon="5.67563">
        <ele>431</ele>
        <time>2020-09-16T14:47:58Z</time>
      </trkpt>
      <trkpt lat="43.24103" lon="5.67565">
        <ele>431</ele>
        <time>2020-09-16T14:48:04Z</time>
      </trkpt>
      <trkpt lat="43.241" lon="5.6757">
        <ele>430</ele>
        <time>2020-09-16T14:48:08Z</time>
      </trkpt>
      <trkpt lat="43.24099" lon="5.67577">
        <ele>430</ele>
        <time>2020-09-16T14:48:12Z</time>
      </trkpt>
      <trkpt lat="43.24096" lon="5.67582">
        <ele>430</ele>
        <time>2020-09-16T14:48:16Z</time>
      </trkpt>
      <trkpt lat="43.24092" lon="5.67588">
        <ele>430</ele>
        <time>2020-09-16T14:48:20Z</time>
      </trkpt>
      <trkpt lat="43.24088" lon="5.67592">
        <ele>430</ele>
        <time>2020-09-16T14:48:24Z</time>
      </trkpt>
      <trkpt lat="43.24082" lon="5.67594">
        <ele>430</ele>
        <time>2020-09-16T14:48:28Z</time>
      </trkpt>
      <trkpt lat="43.24077" lon="5.67596">
        <ele>430</ele>
        <time>2020-09-16T14:48:32Z</time>
      </trkpt>
      <trkpt lat="43.24072" lon="5.67598">
        <ele>430</ele>
        <time>2020-09-16T14:48:36Z</time>
      </trkpt>
      <trkpt lat="43.24066" lon="5.67601">
        <ele>430</ele>
        <time>2020-09-16T14:48:42Z</time>
      </trkpt>
      <trkpt lat="43.24062" lon="5.67604">
        <ele>430</ele>
        <time>2020-09-16T14:48:46Z</time>
      </trkpt>
      <trkpt lat="43.24056" lon="5.67606">
        <ele>430</ele>
        <time>2020-09-16T14:48:50Z</time>
      </trkpt>
      <trkpt lat="43.2405" lon="5.67605">
        <ele>429</ele>
        <time>2020-09-16T14:48:56Z</time>
      </trkpt>
      <trkpt lat="43.24045" lon="5.67596">
        <ele>429</ele>
        <time>2020-09-16T14:49:00Z</time>
      </trkpt>
      <trkpt lat="43.24043" lon="5.67589">
        <ele>429</ele>
        <time>2020-09-16T14:49:04Z</time>
      </trkpt>
      <trkpt lat="43.24041" lon="5.6758">
        <ele>429</ele>
        <time>2020-09-16T14:49:10Z</time>
      </trkpt>
      <trkpt lat="43.2404" lon="5.67574">
        <ele>429</ele>
        <time>2020-09-16T14:49:14Z</time>
      </trkpt>
      <trkpt lat="43.24037" lon="5.67565">
        <ele>429</ele>
        <time>2020-09-16T14:49:20Z</time>
      </trkpt>
      <trkpt lat="43.24034" lon="5.67557">
        <ele>429</ele>
        <time>2020-09-16T14:49:26Z</time>
      </trkpt>
      <trkpt lat="43.24031" lon="5.6755">
        <ele>429</ele>
        <time>2020-09-16T14:49:30Z</time>
      </trkpt>
      <trkpt lat="43.24028" lon="5.67544">
        <ele>429</ele>
        <time>2020-09-16T14:49:36Z</time>
      </trkpt>
      <trkpt lat="43.24024" lon="5.67539">
        <ele>429</ele>
        <time>2020-09-16T14:49:42Z</time>
      </trkpt>
      <trkpt lat="43.24019" lon="5.67533">
        <ele>429</ele>
        <time>2020-09-16T14:49:48Z</time>
      </trkpt>
      <trkpt lat="43.24015" lon="5.67529">
        <ele>429</ele>
        <time>2020-09-16T14:49:52Z</time>
      </trkpt>
      <trkpt lat="43.24009" lon="5.67524">
        <ele>429</ele>
        <time>2020-09-16T14:49:56Z</time>
      </trkpt>
      <trkpt lat="43.24004" lon="5.6752">
        <ele>429</ele>
        <time>2020-09-16T14:50:00Z</time>
      </trkpt>
      <trkpt lat="43.23999" lon="5.67517">
        <ele>427</ele>
        <time>2020-09-16T14:50:04Z</time>
      </trkpt>
      <trkpt lat="43.23994" lon="5.67512">
        <ele>427</ele>
        <time>2020-09-16T14:50:08Z</time>
      </trkpt>
      <trkpt lat="43.23989" lon="5.67508">
        <ele>427</ele>
        <time>2020-09-16T14:50:12Z</time>
      </trkpt>
      <trkpt lat="43.23985" lon="5.67503">
        <ele>427</ele>
        <time>2020-09-16T14:50:16Z</time>
      </trkpt>
      <trkpt lat="43.23981" lon="5.67498">
        <ele>427</ele>
        <time>2020-09-16T14:50:20Z</time>
      </trkpt>
      <trkpt lat="43.23975" lon="5.67493">
        <ele>426</ele>
        <time>2020-09-16T14:50:24Z</time>
      </trkpt>
      <trkpt lat="43.23971" lon="5.67489">
        <ele>426</ele>
        <time>2020-09-16T14:50:28Z</time>
      </trkpt>
      <trkpt lat="43.23967" lon="5.67484">
        <ele>426</ele>
        <time>2020-09-16T14:50:32Z</time>
      </trkpt>
      <trkpt lat="43.23962" lon="5.67479">
        <ele>426</ele>
        <time>2020-09-16T14:50:36Z</time>
      </trkpt>
      <trkpt lat="43.23957" lon="5.67475">
        <ele>426</ele>
        <time>2020-09-16T14:50:40Z</time>
      </trkpt>
      <trkpt lat="43.23953" lon="5.67471">
        <ele>426</ele>
        <time>2020-09-16T14:50:44Z</time>
      </trkpt>
      <trkpt lat="43.23948" lon="5.67465">
        <ele>426</ele>
        <time>2020-09-16T14:50:50Z</time>
      </trkpt>
      <trkpt lat="43.23945" lon="5.6746">
        <ele>425</ele>
        <time>2020-09-16T14:50:54Z</time>
      </trkpt>
      <trkpt lat="43.23941" lon="5.67456">
        <ele>425</ele>
        <time>2020-09-16T14:50:58Z</time>
      </trkpt>
      <trkpt lat="43.23937" lon="5.67451">
        <ele>425</ele>
        <time>2020-09-16T14:51:02Z</time>
      </trkpt>
      <trkpt lat="43.23934" lon="5.67446">
        <ele>425</ele>
        <time>2020-09-16T14:51:06Z</time>
      </trkpt>
      <trkpt lat="43.23928" lon="5.67443">
        <ele>425</ele>
        <time>2020-09-16T14:51:12Z</time>
      </trkpt>
      <trkpt lat="43.23924" lon="5.67441">
        <ele>425</ele>
        <time>2020-09-16T14:51:16Z</time>
      </trkpt>
      <trkpt lat="43.23918" lon="5.67437">
        <ele>425</ele>
        <time>2020-09-16T14:51:22Z</time>
      </trkpt>
      <trkpt lat="43.23914" lon="5.67434">
        <ele>422</ele>
        <time>2020-09-16T14:51:26Z</time>
      </trkpt>
      <trkpt lat="43.23909" lon="5.6743">
        <ele>422</ele>
        <time>2020-09-16T14:51:30Z</time>
      </trkpt>
      <trkpt lat="43.23904" lon="5.67426">
        <ele>422</ele>
        <time>2020-09-16T14:51:34Z</time>
      </trkpt>
      <trkpt lat="43.23898" lon="5.67422">
        <ele>422</ele>
        <time>2020-09-16T14:51:38Z</time>
      </trkpt>
      <trkpt lat="43.23894" lon="5.67418">
        <ele>422</ele>
        <time>2020-09-16T14:51:42Z</time>
      </trkpt>
      <trkpt lat="43.23891" lon="5.67413">
        <ele>421</ele>
        <time>2020-09-16T14:51:46Z</time>
      </trkpt>
      <trkpt lat="43.23888" lon="5.67407">
        <ele>421</ele>
        <time>2020-09-16T14:51:50Z</time>
      </trkpt>
      <trkpt lat="43.23884" lon="5.67403">
        <ele>421</ele>
        <time>2020-09-16T14:51:54Z</time>
      </trkpt>
      <trkpt lat="43.2388" lon="5.67398">
        <ele>420</ele>
        <time>2020-09-16T14:51:58Z</time>
      </trkpt>
      <trkpt lat="43.23876" lon="5.67393">
        <ele>420</ele>
        <time>2020-09-16T14:52:02Z</time>
      </trkpt>
      <trkpt lat="43.23872" lon="5.67388">
        <ele>420</ele>
        <time>2020-09-16T14:52:06Z</time>
      </trkpt>
      <trkpt lat="43.23868" lon="5.67384">
        <ele>420</ele>
        <time>2020-09-16T14:52:10Z</time>
      </trkpt>
      <trkpt lat="43.23865" lon="5.67379">
        <ele>419</ele>
        <time>2020-09-16T14:52:14Z</time>
      </trkpt>
      <trkpt lat="43.23862" lon="5.67375">
        <ele>419</ele>
        <time>2020-09-16T14:52:18Z</time>
      </trkpt>
      <trkpt lat="43.23857" lon="5.67371">
        <ele>419</ele>
        <time>2020-09-16T14:52:22Z</time>
      </trkpt>
      <trkpt lat="43.23853" lon="5.67367">
        <ele>419</ele>
        <time>2020-09-16T14:52:26Z</time>
      </trkpt>
      <trkpt lat="43.2385" lon="5.67361">
        <ele>419</ele>
        <time>2020-09-16T14:52:30Z</time>
      </trkpt>
      <trkpt lat="43.23846" lon="5.67356">
        <ele>418</ele>
        <time>2020-09-16T14:52:34Z</time>
      </trkpt>
      <trkpt lat="43.2384" lon="5.6735">
        <ele>418</ele>
        <time>2020-09-16T14:52:40Z</time>
      </trkpt>
      <trkpt lat="43.23835" lon="5.67347">
        <ele>417</ele>
        <time>2020-09-16T14:52:44Z</time>
      </trkpt>
      <trkpt lat="43.23831" lon="5.67344">
        <ele>415</ele>
        <time>2020-09-16T14:52:48Z</time>
      </trkpt>
      <trkpt lat="43.23824" lon="5.67343">
        <ele>415</ele>
        <time>2020-09-16T14:52:52Z</time>
      </trkpt>
      <trkpt lat="43.23818" lon="5.6734">
        <ele>414</ele>
        <time>2020-09-16T14:52:58Z</time>
      </trkpt>
      <trkpt lat="43.23813" lon="5.67338">
        <ele>414</ele>
        <time>2020-09-16T14:53:02Z</time>
      </trkpt>
      <trkpt lat="43.23808" lon="5.67335">
        <ele>413</ele>
        <time>2020-09-16T14:53:08Z</time>
      </trkpt>
      <trkpt lat="43.23804" lon="5.6733">
        <ele>413</ele>
        <time>2020-09-16T14:53:14Z</time>
      </trkpt>
      <trkpt lat="43.238" lon="5.67323">
        <ele>413</ele>
        <time>2020-09-16T14:53:20Z</time>
      </trkpt>
      <trkpt lat="43.23797" lon="5.67318">
        <ele>412</ele>
        <time>2020-09-16T14:53:24Z</time>
      </trkpt>
      <trkpt lat="43.23792" lon="5.67313">
        <ele>412</ele>
        <time>2020-09-16T14:53:30Z</time>
      </trkpt>
      <trkpt lat="43.23788" lon="5.67306">
        <ele>412</ele>
        <time>2020-09-16T14:53:36Z</time>
      </trkpt>
      <trkpt lat="43.23783" lon="5.673">
        <ele>412</ele>
        <time>2020-09-16T14:53:42Z</time>
      </trkpt>
      <trkpt lat="43.23779" lon="5.67294">
        <ele>412</ele>
        <time>2020-09-16T14:53:48Z</time>
      </trkpt>
      <trkpt lat="43.23775" lon="5.67288">
        <ele>411</ele>
        <time>2020-09-16T14:53:54Z</time>
      </trkpt>
      <trkpt lat="43.23772" lon="5.67283">
        <ele>411</ele>
        <time>2020-09-16T14:53:58Z</time>
      </trkpt>
      <trkpt lat="43.23767" lon="5.67278">
        <ele>411</ele>
        <time>2020-09-16T14:54:04Z</time>
      </trkpt>
      <trkpt lat="43.23762" lon="5.67275">
        <ele>411</ele>
        <time>2020-09-16T14:54:08Z</time>
      </trkpt>
      <trkpt lat="43.23758" lon="5.67269">
        <ele>411</ele>
        <time>2020-09-16T14:54:14Z</time>
      </trkpt>
      <trkpt lat="43.23753" lon="5.67263">
        <ele>410</ele>
        <time>2020-09-16T14:54:20Z</time>
      </trkpt>
      <trkpt lat="43.23749" lon="5.6726">
        <ele>408</ele>
        <time>2020-09-16T14:54:24Z</time>
      </trkpt>
      <trkpt lat="43.23744" lon="5.67254">
        <ele>408</ele>
        <time>2020-09-16T14:54:30Z</time>
      </trkpt>
      <trkpt lat="43.23739" lon="5.67249">
        <ele>408</ele>
        <time>2020-09-16T14:54:36Z</time>
      </trkpt>
      <trkpt lat="43.23734" lon="5.67244">
        <ele>407</ele>
        <time>2020-09-16T14:54:42Z</time>
      </trkpt>
      <trkpt lat="43.2373" lon="5.67238">
        <ele>407</ele>
        <time>2020-09-16T14:54:48Z</time>
      </trkpt>
      <trkpt lat="43.23727" lon="5.67233">
        <ele>406</ele>
        <time>2020-09-16T14:54:54Z</time>
      </trkpt>
      <trkpt lat="43.23724" lon="5.67226">
        <ele>406</ele>
        <time>2020-09-16T14:55:02Z</time>
      </trkpt>
      <trkpt lat="43.23721" lon="5.67221">
        <ele>406</ele>
        <time>2020-09-16T14:55:06Z</time>
      </trkpt>
      <trkpt lat="43.23717" lon="5.67213">
        <ele>405</ele>
        <time>2020-09-16T14:55:12Z</time>
      </trkpt>
      <trkpt lat="43.23716" lon="5.67207">
        <ele>405</ele>
        <time>2020-09-16T14:55:16Z</time>
      </trkpt>
      <trkpt lat="43.23715" lon="5.67201">
        <ele>405</ele>
        <time>2020-09-16T14:55:20Z</time>
      </trkpt>
      <trkpt lat="43.23714" lon="5.67193">
        <ele>405</ele>
        <time>2020-09-16T14:55:26Z</time>
      </trkpt>
      <trkpt lat="43.23712" lon="5.67185">
        <ele>405</ele>
        <time>2020-09-16T14:55:32Z</time>
      </trkpt>
      <trkpt lat="43.2371" lon="5.67177">
        <ele>405</ele>
        <time>2020-09-16T14:55:38Z</time>
      </trkpt>
      <trkpt lat="43.23708" lon="5.67171">
        <ele>405</ele>
        <time>2020-09-16T14:55:42Z</time>
      </trkpt>
      <trkpt lat="43.23706" lon="5.67164">
        <ele>404</ele>
        <time>2020-09-16T14:55:46Z</time>
      </trkpt>
      <trkpt lat="43.23703" lon="5.67157">
        <ele>404</ele>
        <time>2020-09-16T14:55:50Z</time>
      </trkpt>
      <trkpt lat="43.23701" lon="5.6715">
        <ele>403</ele>
        <time>2020-09-16T14:55:54Z</time>
      </trkpt>
      <trkpt lat="43.23698" lon="5.67143">
        <ele>403</ele>
        <time>2020-09-16T14:56:00Z</time>
      </trkpt>
      <trkpt lat="43.23697" lon="5.67136">
        <ele>403</ele>
        <time>2020-09-16T14:56:06Z</time>
      </trkpt>
      <trkpt lat="43.23696" lon="5.67129">
        <ele>403</ele>
        <time>2020-09-16T14:56:12Z</time>
      </trkpt>
      <trkpt lat="43.23695" lon="5.67122">
        <ele>403</ele>
        <time>2020-09-16T14:56:16Z</time>
      </trkpt>
      <trkpt lat="43.23694" lon="5.67114">
        <ele>403</ele>
        <time>2020-09-16T14:56:20Z</time>
      </trkpt>
      <trkpt lat="43.23693" lon="5.67107">
        <ele>403</ele>
        <time>2020-09-16T14:56:24Z</time>
      </trkpt>
      <trkpt lat="43.23692" lon="5.67101">
        <ele>403</ele>
        <time>2020-09-16T14:56:28Z</time>
      </trkpt>
      <trkpt lat="43.2369" lon="5.67094">
        <ele>402</ele>
        <time>2020-09-16T14:56:34Z</time>
      </trkpt>
      <trkpt lat="43.23689" lon="5.67088">
        <ele>402</ele>
        <time>2020-09-16T14:56:38Z</time>
      </trkpt>
      <trkpt lat="43.23688" lon="5.67082">
        <ele>401</ele>
        <time>2020-09-16T14:56:42Z</time>
      </trkpt>
      <trkpt lat="43.23688" lon="5.67073">
        <ele>401</ele>
        <time>2020-09-16T14:56:48Z</time>
      </trkpt>
      <trkpt lat="43.23687" lon="5.67066">
        <ele>401</ele>
        <time>2020-09-16T14:56:52Z</time>
      </trkpt>
      <trkpt lat="43.23686" lon="5.67059">
        <ele>401</ele>
        <time>2020-09-16T14:56:56Z</time>
      </trkpt>
      <trkpt lat="43.23686" lon="5.67051">
        <ele>401</ele>
        <time>2020-09-16T14:57:00Z</time>
      </trkpt>
      <trkpt lat="43.23685" lon="5.67045">
        <ele>400</ele>
        <time>2020-09-16T14:57:06Z</time>
      </trkpt>
      <trkpt lat="43.23683" lon="5.67037">
        <ele>400</ele>
        <time>2020-09-16T14:57:12Z</time>
      </trkpt>
      <trkpt lat="43.2368" lon="5.67031">
        <ele>400</ele>
        <time>2020-09-16T14:57:16Z</time>
      </trkpt>
      <trkpt lat="43.23677" lon="5.67025">
        <ele>400</ele>
        <time>2020-09-16T14:57:20Z</time>
      </trkpt>
      <trkpt lat="43.23672" lon="5.67024">
        <ele>399</ele>
        <time>2020-09-16T14:57:24Z</time>
      </trkpt>
      <trkpt lat="43.23666" lon="5.67026">
        <ele>399</ele>
        <time>2020-09-16T14:57:28Z</time>
      </trkpt>
      <trkpt lat="43.23661" lon="5.67028">
        <ele>399</ele>
        <time>2020-09-16T14:57:34Z</time>
      </trkpt>
      <trkpt lat="43.23656" lon="5.67031">
        <ele>399</ele>
        <time>2020-09-16T14:57:40Z</time>
      </trkpt>
      <trkpt lat="43.23651" lon="5.67032">
        <ele>399</ele>
        <time>2020-09-16T14:57:46Z</time>
      </trkpt>
      <trkpt lat="43.23645" lon="5.67033">
        <ele>399</ele>
        <time>2020-09-16T14:57:56Z</time>
      </trkpt>
      <trkpt lat="43.23638" lon="5.67035">
        <ele>399</ele>
        <time>2020-09-16T14:58:02Z</time>
      </trkpt>
      <trkpt lat="43.23632" lon="5.67037">
        <ele>400</ele>
        <time>2020-09-16T14:58:06Z</time>
      </trkpt>
      <trkpt lat="43.23628" lon="5.67039">
        <ele>400</ele>
        <time>2020-09-16T14:58:10Z</time>
      </trkpt>
      <trkpt lat="43.23622" lon="5.67042">
        <ele>400</ele>
        <time>2020-09-16T14:58:16Z</time>
      </trkpt>
      <trkpt lat="43.23616" lon="5.67041">
        <ele>400</ele>
        <time>2020-09-16T14:58:24Z</time>
      </trkpt>
      <trkpt lat="43.2361" lon="5.67042">
        <ele>400</ele>
        <time>2020-09-16T14:58:32Z</time>
      </trkpt>
      <trkpt lat="43.23604" lon="5.67043">
        <ele>400</ele>
        <time>2020-09-16T14:58:36Z</time>
      </trkpt>
      <trkpt lat="43.23598" lon="5.67043">
        <ele>400</ele>
        <time>2020-09-16T14:58:40Z</time>
      </trkpt>
      <trkpt lat="43.23591" lon="5.67044">
        <ele>400</ele>
        <time>2020-09-16T14:58:46Z</time>
      </trkpt>
      <trkpt lat="43.23586" lon="5.67045">
        <ele>400</ele>
        <time>2020-09-16T14:58:50Z</time>
      </trkpt>
      <trkpt lat="43.23581" lon="5.67045">
        <ele>402</ele>
        <time>2020-09-16T14:58:54Z</time>
      </trkpt>
      <trkpt lat="43.23577" lon="5.67044">
        <ele>402</ele>
        <time>2020-09-16T14:58:58Z</time>
      </trkpt>
      <trkpt lat="43.23572" lon="5.67042">
        <ele>402</ele>
        <time>2020-09-16T14:59:04Z</time>
      </trkpt>
      <trkpt lat="43.23567" lon="5.67039">
        <ele>402</ele>
        <time>2020-09-16T14:59:12Z</time>
      </trkpt>
      <trkpt lat="43.23564" lon="5.67034">
        <ele>402</ele>
        <time>2020-09-16T14:59:20Z</time>
      </trkpt>
      <trkpt lat="43.23559" lon="5.67032">
        <ele>402</ele>
        <time>2020-09-16T14:59:24Z</time>
      </trkpt>
      <trkpt lat="43.23553" lon="5.67028">
        <ele>402</ele>
        <time>2020-09-16T14:59:30Z</time>
      </trkpt>
      <trkpt lat="43.23548" lon="5.67029">
        <ele>402</ele>
        <time>2020-09-16T14:59:36Z</time>
      </trkpt>
      <trkpt lat="43.23543" lon="5.67029">
        <ele>402</ele>
        <time>2020-09-16T14:59:40Z</time>
      </trkpt>
      <trkpt lat="43.23538" lon="5.67033">
        <ele>402</ele>
        <time>2020-09-16T14:59:46Z</time>
      </trkpt>
      <trkpt lat="43.23533" lon="5.67032">
        <ele>402</ele>
        <time>2020-09-16T14:59:52Z</time>
      </trkpt>
      <trkpt lat="43.23528" lon="5.67029">
        <ele>402</ele>
        <time>2020-09-16T15:00:00Z</time>
      </trkpt>
    </trkseg>
  </trk>
</gpx>